[[{"header":{"parameterUnit":"m.s-1","parameterCategory":1,"la1":31.0,"la2":29.5877,"lo1":-88.7671,"lo2":-86.6584,"dy":0.0162,"dx":0.0185,"nx":115,"ny":88,"refTime":"2023-06-29T18:00:00:Z","depth":0,"parameterNumber":2,"parameterNumberName":"U-component_of_WINDS"},"data":[0.0,0.0,0.0,0.0,0.0,0.0,0.0,0.0,0.0,0.0,0.0,0.0,0.0,0.0,0.0,0.0,0.0,0.0,0.0,0.0,0.0,0.0,0.0,0.0,0.0,0.0,0.0,0.0,0.0,0.0,0.0,0.0,0.0,0.0,0.0,0.0,0.0,0.0,0.0,0.0,0.0,0.0,0.0,0.0,0.0,0.0,0.0,0.0,0.0,0.0,0.0,0.0,0.0,0.0,0.0,0.0,0.0,0.0,0.0,0.0,0.0,0.0,0.0,0.0,0.0,0.0,0.0,0.0,0.0,0.0,0.0,0.0,0.0,0.0,0.0,0.0,0.0,0.0,0.0,0.0,0.0,0.0,0.0,0.0,0.0,0.0,0.0,0.0,0.0,0.0,0.0,0.0,0.0,0.0,0.0,0.0,0.0,0.0,0.0,0.0,0.0,0.0,0.0,0.0,0.0,0.0,0.0,0.0,0.0,0.0,0.0,0.0,0.0,0.0,0.0,0.0,0.0,0.0,0.0,0.0,0.0,0.0,0.0,0.0,0.0,0.0,0.0,0.0,0.0,0.0,0.0,0.0,0.0,0.0,0.0,0.0,0.0,0.0,0.0,0.0,0.0,0.0,0.0,0.0,0.0,0.0,0.0,0.0,0.0,0.0,0.0,0.0,0.0,0.0,0.0,0.0,0.0,0.0,0.0,0.0,0.0,0.0,0.0,0.0,0.0,0.0,0.0,0.0,0.0,0.0,0.0,0.0,0.0,0.0,0.0,0.0,0.0,0.0,0.0,0.0,0.0,0.0,0.0,0.0,0.0,0.0,0.0,0.0,0.0,0.0,0.0,0.0,0.0,0.0,0.0,0.0,0.0,0.0,0.0,0.0,0.0,0.0,0.0,0.0,0.0,0.0,0.0,0.0,0.0,0.0,0.0,0.0,0.0,0.0,0.0,0.0,0.0,0.0,0.0,0.0,0.0,0.0,0.0,0.0,0.0,0.0,0.0,0.0,0.0,0.0,0.0,0.0,0.0,0.0,0.0,0.0,0.0,0.0,0.0,0.0,0.0,0.0,0.0,0.0,0.0,0.0,0.0,0.0,0.0,0.0,0.0,0.0,0.0,0.0,0.0,0.0,0.0,0.0,0.0,0.0,0.0,0.0,0.0,0.0,0.0,0.0,0.0,0.0,0.0,0.0,0.0,0.0,0.0,0.0,0.0,0.0,0.0,0.0,0.0,0.0,0.0,0.0,0.0,0.0,0.0,0.0,0.0,0.0,0.0,0.0,0.0,0.0,0.0,0.0,0.0,0.0,0.0,0.0,0.0,0.0,0.0,0.0,0.0,0.0,0.0,0.0,0.0,0.0,0.0,0.0,0.0,0.0,0.0,0.0,0.0,0.0,0.0,0.0,0.0,0.0,0.0,0.0,0.0,0.0,0.0,0.0,0.0,0.0,0.0,0.0,0.0,0.0,0.0,0.0,0.0,0.0,0.0,0.0,0.0,0.0,0.0,0.0,0.0,0.0,0.0,0.0,0.0,0.0,0.0,0.0,0.0,0.0,0.0,0.0,0.0,0.0,0.0,0.0,0.0,0.0,0.0,0.0,0.0,0.0,0.0,0.0,0.0,0.0,0.0,0.0,0.0,0.0,0.0,0.0,0.0,0.0,0.0,0.0,0.0,0.0,0.0,0.0,0.0,0.0,0.0,0.0,0.0,0.0,0.0,0.0,0.0,0.0,0.0,0.0,0.0,0.0,0.0,0.0,0.0,0.0,0.0,0.0,0.0,0.0,0.0,0.0,0.0,0.0,0.0,0.0,0.0,0.0,0.0,0.0,0.0,0.0,0.0,0.0,0.0,0.0,0.0,0.0,0.0,0.0,0.0,0.0,0.0,0.0,0.0,0.0,0.0,0.0,0.0,0.0,0.0,0.0,0.0,0.0,0.0,0.0,0.0,0.0,0.0,0.0,0.0,0.0,0.0,0.0,0.0,0.0,0.0,0.0,0.0,0.0,0.0,0.0,0.0,0.0,0.0,0.0,0.0,0.0,0.0,0.0,0.0,0.0,0.0,0.0,0.0,0.0,0.0,0.0,0.0,0.0,0.0,0.0,0.0,0.0,0.0,0.0,0.0,0.0,0.0,0.0,0.0,0.0,0.0,0.0,0.0,0.0,0.0,0.0,0.0,0.0,0.0,0.0,0.0,0.0,0.0,0.0,0.0,0.0,0.0,0.0,0.0,0.0,0.0,0.0,0.0,0.0,0.0,0.0,0.0,0.0,0.0,0.0,0.0,0.0,0.0,0.0,0.0,0.0,0.0,0.0,0.0,0.0,0.0,0.0,0.0,0.0,0.0,0.0,0.0,0.0,0.0,0.0,0.0,0.0,0.0,0.0,0.0,0.0,0.0,0.0,0.0,0.0,0.0,0.0,0.0,0.0,0.0,0.0,0.0,0.0,0.0,0.0,0.0,0.0,0.0,0.0,0.0,0.0,0.0,0.0,0.0,0.0,0.0,0.0,0.0,0.0,0.0,0.0,0.0,0.0,0.0,0.0,0.0,0.0,0.0,0.0,0.0,0.0,0.0,0.0,0.0,0.0,0.0,0.0,0.0,0.0,0.0,0.0,0.0,0.0,0.0,0.0,0.0,0.0,0.0,0.0,0.0,0.0,0.0,0.0,0.0,0.0,0.0,0.0,0.0,0.0,0.0,0.0,0.0,0.0,0.0,0.0,0.0,0.0,0.0,0.0,0.0,0.0,0.0,0.0,0.0,0.0,0.0,0.0,0.0,0.0,0.0,0.0,0.0,0.0,0.0,0.0,0.0,0.0,0.0,0.0,0.0,0.0,0.0,0.0,0.0,0.0,0.0,0.0,0.0,0.0,0.0,0.0,0.0,0.0,0.0,0.0,0.0,0.0,0.0,0.0,0.0,0.0,0.0,0.0,0.0,0.0,0.0,0.0,0.0,0.0,0.0,0.0,0.0,0.0,0.0,0.0,0.0,0.0,0.0,0.0,0.0,0.0,0.0,0.0,0.0,0.0,0.0,0.0,0.0,0.0,0.0,0.0,0.0,0.0,0.0,0.0,0.0,0.0,0.0,0.0,0.0,0.0,0.0,0.0,0.0,0.0,0.0,0.0,0.0,0.0,0.0,0.0,0.0,0.0,0.0,0.0,0.0,0.0,0.0,0.0,0.0,0.0,0.0,0.0,0.0,0.0,0.0,0.0,0.0,0.0,0.0,0.0,0.0,0.0,0.0,0.0,0.0,0.0,0.0,0.0,0.0,0.0,0.0,0.0,0.0,0.0,0.0,0.0,0.0,0.0,0.0,0.0,0.0,0.0,0.0,0.0,0.0,0.0,0.0,0.0,0.0,0.0,0.0,0.0,0.0,0.0,0.0,0.0,0.0,0.0,0.0,0.0,0.0,0.0,0.0,0.0,0.0,0.0,0.0,0.0,0.0,0.0,0.0,0.0,0.0,0.0,0.0,0.0,0.0,0.0,0.0,0.0,0.0,0.0,0.0,0.0,0.0,0.0,0.0,0.0,0.0,0.0,0.0,0.0,0.0,0.0,0.0,0.0,0.0,0.0,0.0,0.0,0.0,0.0,0.0,0.0,0.0,0.0,0.0,0.0,0.0,0.0,0.0,0.0,0.0,0.0,0.0,0.0,0.0,0.0,0.0,0.0,0.0,0.0,0.0,0.0,0.0,0.0,0.0,0.0,0.0,0.0,0.0,0.0,0.0,0.0,0.0,0.0,0.0,0.0,0.0,0.0,0.0,0.0,0.0,0.0,0.0,0.0,0.0,0.0,0.0,0.0,0.0,0.0,0.0,0.0,0.0,0.0,0.0,0.0,0.0,0.0,0.0,0.0,0.0,0.0,0.0,0.0,0.0,0.0,0.0,0.0,0.0,0.0,0.0,0.0,0.0,0.0,0.0,0.0,0.0,0.0,0.0,0.0,0.0,0.0,0.0,0.0,0.0,0.0,0.0,0.0,0.0,0.0,0.0,0.0,0.0,0.0,0.0,0.0,0.0,0.0,0.0,0.0,0.0,0.0,0.0,0.0,0.0,0.0,0.0,0.0,0.0,0.0,0.0,0.0,0.0,0.0,0.0,0.0,0.0,0.0,0.0,0.0,0.0,0.0,0.0,0.0,0.0,0.0,0.0,0.0,0.0,0.0,0.0,0.0,0.0,0.0,0.0,0.0,0.0,0.0,0.0,0.0,0.0,0.0,0.0,0.0,0.0,0.0,0.0,0.0,0.0,0.0,0.0,0.0,-1.2534,0.0,0.0,0.0,0.0,0.0,0.0,0.0,0.0,0.0,0.0,0.0,0.0,0.0,0.0,0.0,0.0,0.0,0.0,0.0,0.0,0.0,0.0,0.0,0.0,0.0,0.0,0.0,0.0,0.0,0.0,0.0,0.0,0.0,0.0,0.0,0.0,0.0,0.0,0.0,0.0,0.0,0.0,0.0,0.0,0.0,0.0,0.0,0.0,0.0,0.0,0.0,0.0,0.0,0.0,0.0,0.0,0.0,0.0,0.0,0.0,0.0,0.0,0.0,0.0,0.0,0.0,0.0,0.0,0.0,0.0,0.0,0.0,0.0,0.0,0.0,0.0,0.0,0.0,0.0,0.0,0.0,0.0,0.0,0.0,0.0,0.0,0.0,0.0,0.0,0.0,0.0,0.0,0.0,0.0,0.0,0.0,0.0,0.0,0.0,0.0,0.0,0.0,0.0,0.0,0.0,0.0,0.0,0.0,0.0,0.0,-1.4324,-1.3956,-1.3562,-1.3352,-1.3359,0.0,0.0,0.0,0.0,0.0,0.0,0.0,0.0,0.0,0.0,0.0,0.0,0.0,0.0,0.0,0.0,0.0,0.0,0.0,0.0,0.0,0.0,0.0,0.0,0.0,0.0,0.0,0.0,0.0,0.0,0.0,0.0,0.0,0.0,0.0,0.0,0.0,0.0,0.0,0.0,0.0,0.0,0.0,0.0,0.0,0.0,0.0,0.0,0.0,0.0,0.0,0.0,0.0,0.0,0.0,0.0,0.0,0.0,0.0,0.0,0.0,0.0,0.0,0.0,0.0,0.0,0.0,0.0,0.0,0.0,0.0,0.0,0.0,0.0,0.0,0.0,0.0,0.0,0.0,0.0,0.0,0.0,0.0,0.0,0.0,0.0,0.0,0.0,0.0,0.0,0.0,0.0,0.0,0.0,0.0,0.0,0.0,0.0,0.0,0.0,0.0,0.0,0.0,0.0,0.0,0.0,0.0,0.0,0.0,0.0,0.0,0.0,-1.4966,-1.4502,-1.4159,0.0,0.0,0.0,0.0,0.0,0.0,0.0,0.0,0.0,0.0,0.0,0.0,0.0,0.0,0.0,0.0,0.0,0.0,0.0,0.0,0.0,0.0,0.0,0.0,0.0,0.0,0.0,0.0,0.0,0.0,0.0,0.0,0.0,0.0,0.0,0.0,0.0,0.0,0.0,0.0,0.0,0.0,0.0,0.0,0.0,0.0,0.0,0.0,0.0,0.0,0.0,0.0,0.0,0.0,0.0,0.0,0.0,0.0,0.0,0.0,0.0,0.0,0.0,0.0,0.0,0.0,0.0,0.0,0.0,0.0,0.0,0.0,0.0,0.0,0.0,0.0,0.0,0.0,0.0,0.0,0.0,0.0,0.0,0.0,0.0,0.0,0.0,0.0,0.0,0.0,0.0,0.0,0.0,0.0,0.0,0.0,0.0,0.0,0.0,0.0,0.0,0.0,0.0,0.0,0.0,0.0,0.0,0.0,0.0,0.0,-1.7088,-1.7097,-1.7001,0.0,-1.4992,0.0,0.0,0.0,0.0,0.0,0.0,0.0,0.0,0.0,0.0,0.0,0.0,0.0,0.0,0.0,0.0,0.0,0.0,0.0,0.0,0.0,0.0,0.0,0.0,0.0,0.0,0.0,0.0,0.0,0.0,0.0,0.0,0.0,0.0,0.0,0.0,0.0,0.0,0.0,0.0,0.0,0.0,0.0,0.0,0.0,0.0,0.0,0.0,0.0,0.0,0.0,0.0,0.0,0.0,0.0,0.0,0.0,0.0,0.0,0.0,0.0,0.0,0.0,0.0,0.0,0.0,0.0,0.0,0.0,0.0,0.0,0.0,0.0,0.0,0.0,0.0,0.0,0.0,0.0,0.0,0.0,0.0,0.0,0.0,0.0,0.0,0.0,0.0,0.0,0.0,0.0,0.0,0.0,0.0,0.0,0.0,0.0,0.0,0.0,0.0,0.0,0.0,0.0,0.0,0.0,0.0,0.0,0.0,0.0,0.0,-1.8257,-1.8721,-1.7799,-1.701,0.0,0.0,0.0,0.0,0.0,0.0,0.0,0.0,0.0,0.0,0.0,0.0,0.0,0.0,0.0,0.0,0.0,0.0,0.0,0.0,0.0,0.0,0.0,0.0,0.0,0.0,0.0,0.0,0.0,0.0,0.0,0.0,0.0,0.0,0.0,0.0,0.0,0.0,0.0,0.0,0.0,0.0,0.0,0.0,0.0,0.0,0.0,0.0,0.0,0.0,0.0,0.0,0.0,0.0,0.0,0.0,0.0,0.0,0.0,0.0,0.0,0.0,0.0,0.0,0.0,0.0,0.0,0.0,0.0,0.0,0.0,0.0,0.0,0.0,0.0,0.0,0.0,0.0,0.0,0.0,0.0,0.0,0.0,0.0,0.0,0.0,0.0,0.0,0.0,0.0,0.0,0.0,0.0,0.0,0.0,0.0,0.0,0.0,0.0,0.0,0.0,0.0,0.0,0.0,0.0,0.0,0.0,0.0,0.0,0.0,-1.9251,-1.9531,-2.0216,-1.8791,-1.7851,-1.7605,0.0,0.0,0.0,0.0,0.0,0.0,0.0,0.0,0.0,0.0,0.0,0.0,0.0,0.0,0.0,0.0,0.0,0.0,0.0,0.0,0.0,0.0,0.0,0.0,0.0,0.0,0.0,0.0,0.0,0.0,0.0,0.0,0.0,0.0,0.0,0.0,0.0,0.0,0.0,0.0,0.0,0.0,0.0,0.0,0.0,0.0,0.0,0.0,0.0,0.0,0.0,0.0,0.0,0.0,0.0,0.0,0.0,0.0,0.0,0.0,0.0,0.0,0.0,0.0,0.0,0.0,0.0,0.0,0.0,0.0,0.0,0.0,0.0,0.0,0.0,0.0,0.0,0.0,0.0,0.0,0.0,0.0,0.0,0.0,0.0,0.0,0.0,0.0,0.0,0.0,0.0,0.0,0.0,0.0,0.0,0.0,0.0,0.0,0.0,0.0,0.0,0.0,0.0,0.0,0.0,0.0,0.0,0.0,-1.9495,-2.0285,-2.1077,-2.1832,-2.0398,-1.9219,0.0,0.0,0.0,0.0,0.0,0.0,0.0,0.0,0.0,0.0,0.0,0.0,0.0,0.0,0.0,0.0,0.0,0.0,0.0,0.0,0.0,0.0,0.0,0.0,0.0,0.0,0.0,0.0,0.0,0.0,0.0,0.0,0.0,0.0,0.0,0.0,0.0,0.0,0.0,0.0,0.0,0.0,0.0,0.0,0.0,0.0,0.0,0.0,0.0,0.0,0.0,0.0,0.0,0.0,0.0,0.0,0.0,0.0,0.0,0.0,0.0,0.0,0.0,0.0,0.0,0.0,0.0,0.0,0.0,0.0,0.0,0.0,0.0,0.0,0.0,0.0,0.0,0.0,0.0,0.0,0.0,0.0,0.0,0.0,0.0,0.0,0.0,0.0,0.0,0.0,0.0,0.0,0.0,0.0,0.0,0.0,0.0,0.0,0.0,0.0,0.0,0.0,0.0,0.0,0.0,0.0,0.0,0.0,0.0,-2.0198,-2.1569,-2.24,-2.2645,-2.1235,-2.0236,0.0,0.0,0.0,0.0,0.0,0.0,0.0,0.0,0.0,0.0,0.0,0.0,0.0,0.0,0.0,0.0,0.0,0.0,0.0,0.0,0.0,0.0,0.0,0.0,0.0,0.0,0.0,0.0,0.0,0.0,0.0,0.0,0.0,0.0,0.0,0.0,0.0,0.0,0.0,0.0,0.0,0.0,0.0,0.0,0.0,0.0,0.0,0.0,0.0,0.0,0.0,0.0,0.0,0.0,0.0,0.0,0.0,0.0,0.0,0.0,0.0,0.0,0.0,0.0,0.0,0.0,0.0,0.0,0.0,0.0,0.0,0.0,0.0,0.0,0.0,0.0,0.0,0.0,0.0,0.0,0.0,0.0,0.0,0.0,0.0,0.0,0.0,0.0,0.0,0.0,0.0,0.0,0.0,0.0,0.0,0.0,0.0,0.0,0.0,0.0,0.0,0.0,0.0,0.0,0.0,0.0,0.0,0.0,0.0,-2.101,0.0,-2.3488,-2.3453,-2.1984,-2.1003,0.0,0.0,0.0,0.0,0.0,0.0,0.0,0.0,0.0,0.0,0.0,0.0,0.0,0.0,0.0,0.0,0.0,0.0,0.0,0.0,0.0,0.0,0.0,0.0,0.0,0.0,0.0,0.0,0.0,0.0,0.0,0.0,0.0,0.0,0.0,0.0,0.0,0.0,0.0,0.0,0.0,0.0,0.0,0.0,0.0,0.0,0.0,0.0,0.0,0.0,0.0,0.0,0.0,0.0,0.0,0.0,0.0,0.0,0.0,0.0,0.0,0.0,0.0,0.0,0.0,0.0,0.0,0.0,0.0,0.0,0.0,0.0,0.0,0.0,0.0,0.0,0.0,0.0,0.0,0.0,0.0,0.0,0.0,0.0,0.0,0.0,0.0,0.0,0.0,0.0,0.0,0.0,0.0,0.0,0.0,0.0,0.0,0.0,0.0,0.0,0.0,0.0,0.0,0.0,0.0,0.0,0.0,0.0,-1.9566,-2.1937,-2.3518,-2.4344,-2.4256,-2.2772,-2.1511,0.0,0.0,0.0,0.0,0.0,0.0,0.0,0.0,0.0,0.0,0.0,0.0,0.0,0.0,0.0,0.0,0.0,0.0,0.0,0.0,0.0,0.0,0.0,0.0,0.0,0.0,0.0,0.0,0.0,0.0,0.0,0.0,0.0,0.0,0.0,0.0,0.0,0.0,0.0,0.0,0.0,0.0,0.0,0.0,0.0,0.0,0.0,0.0,0.0,0.0,0.0,0.0,0.0,0.0,0.0,0.0,0.0,0.0,0.0,0.0,0.0,0.0,0.0,0.0,0.0,0.0,0.0,0.0,0.0,0.0,0.0,0.0,0.0,0.0,0.0,0.0,0.0,0.0,0.0,0.0,0.0,0.0,0.0,0.0,0.0,0.0,0.0,0.0,0.0,0.0,0.0,0.0,0.0,0.0,0.0,0.0,0.0,0.0,0.0,0.0,0.0,0.0,0.0,0.0,0.0,0.0,0.0,0.0,0.0,-2.2756,-2.4805,-2.563,-2.505,-2.4033,-2.2833,0.0,0.0,0.0,0.0,0.0,0.0,0.0,0.0,0.0,0.0,0.0,0.0,0.0,0.0,0.0,0.0,0.0,0.0,0.0,0.0,0.0,0.0,0.0,0.0,0.0,0.0,0.0,0.0,0.0,0.0,0.0,0.0,0.0,0.0,0.0,0.0,0.0,0.0,0.0,0.0,0.0,0.0,0.0,0.0,0.0,0.0,0.0,0.0,0.0,0.0,0.0,0.0,0.0,0.0,0.0,0.0,0.0,0.0,0.0,0.0,0.0,0.0,0.0,0.0,0.0,0.0,0.0,0.0,0.0,0.0,0.0,0.0,0.0,0.0,0.0,0.0,0.0,0.0,0.0,0.0,0.0,0.0,0.0,0.0,0.0,0.0,0.0,0.0,0.0,0.0,0.0,0.0,0.0,0.0,0.0,0.0,0.0,0.0,0.0,0.0,0.0,0.0,0.0,0.0,0.0,0.0,0.0,0.0,0.0,-2.6065,-2.7546,-2.8087,-2.7578,-2.6209,-2.4444,-2.2275,0.0,0.0,0.0,0.0,0.0,0.0,0.0,0.0,0.0,0.0,0.0,0.0,0.0,0.0,0.0,0.0,0.0,0.0,0.0,0.0,0.0,0.0,0.0,0.0,0.0,0.0,0.0,0.0,0.0,0.0,0.0,0.0,0.0,0.0,0.0,0.0,0.0,0.0,0.0,0.0,0.0,0.0,0.0,0.0,0.0,0.0,0.0,0.0,0.0,0.0,0.0,0.0,0.0,0.0,0.0,0.0,0.0,0.0,0.0,0.0,0.0,0.0,0.0,0.0,0.0,0.0,0.0,0.0,0.0,0.0,0.0,0.0,0.0,0.0,0.0,0.0,0.0,0.0,0.0,0.0,0.0,0.0,0.0,0.0,0.0,0.0,0.0,0.0,0.0,0.0,0.0,0.0,0.0,0.0,0.0,0.0,0.0,0.0,0.0,0.0,0.0,0.0,0.0,0.0,0.0,0.0,0.0,0.0,-3.134,-3.16,-3.165,-3.1351,-2.9084,-2.6359,0.0,0.0,0.0,0.0,0.0,0.0,0.0,0.0,0.0,0.0,0.0,0.0,0.0,0.0,0.0,0.0,0.0,0.0,0.0,0.0,0.0,0.0,0.0,0.0,0.0,0.0,0.0,0.0,0.0,0.0,0.0,0.0,0.0,0.0,0.0,0.0,0.0,0.0,0.0,0.0,0.0,0.0,0.0,0.0,0.0,0.0,0.0,0.0,0.0,0.0,0.0,0.0,0.0,0.0,0.0,0.0,0.0,0.0,0.0,0.0,0.0,0.0,0.0,0.0,0.0,0.0,0.0,0.0,0.0,0.0,0.0,0.0,0.0,0.0,0.0,0.0,0.0,0.0,0.0,0.0,0.0,0.0,0.0,0.0,0.0,0.0,0.0,0.0,0.0,0.0,0.0,0.0,0.0,0.0,0.0,0.0,0.0,0.0,0.0,0.0,0.0,0.0,0.0,0.0,0.0,0.0,0.0,0.0,0.0,-3.5056,-3.7084,-3.6708,-3.388,-3.1952,-2.9199,0.0,0.0,0.0,0.0,0.0,0.0,0.0,0.0,0.0,0.0,0.0,0.0,0.0,0.0,0.0,0.0,0.0,0.0,0.0,0.0,0.0,0.0,0.0,0.0,0.0,0.0,0.0,0.0,0.0,0.0,0.0,0.0,0.0,0.0,0.0,0.0,0.0,0.0,0.0,0.0,0.0,0.0,0.0,0.0,0.0,0.0,0.0,0.0,0.0,0.0,0.0,0.0,0.0,0.0,0.0,0.0,0.0,0.0,0.0,0.0,0.0,0.0,0.0,0.0,0.0,0.0,0.0,0.0,0.0,0.0,0.0,0.0,0.0,0.0,0.0,0.0,0.0,0.0,0.0,0.0,0.0,0.0,0.0,0.0,0.0,0.0,0.0,0.0,0.0,0.0,0.0,0.0,0.0,0.0,0.0,0.0,0.0,0.0,0.0,0.0,0.0,0.0,0.0,0.0,0.0,0.0,0.0,0.0,-3.2109,-3.7111,-3.9676,-4.0003,-3.8085,-3.5131,-3.1377,0.0,0.0,0.0,0.0,0.0,0.0,0.0,0.0,0.0,0.0,0.0,0.0,0.0,0.0,0.0,0.0,0.0,0.0,0.0,0.0,0.0,0.0,0.0,0.0,0.0,0.0,0.0,0.0,0.0,0.0,0.0,0.0,0.0,0.0,0.0,0.0,0.0,0.0,0.0,0.0,0.0,0.0,0.0,0.0,0.0,0.0,0.0,0.0,0.0,0.0,0.0,0.0,0.0,0.0,0.0,0.0,0.0,0.0,0.0,0.0,0.0,0.0,0.0,0.0,0.0,0.0,0.0,0.0,0.0,0.0,0.0,0.0,0.0,0.0,0.0,0.0,0.0,0.0,0.0,0.0,0.0,0.0,0.0,0.0,0.0,0.0,0.0,0.0,0.0,0.0,0.0,0.0,0.0,0.0,0.0,0.0,0.0,0.0,0.0,0.0,0.0,0.0,0.0,0.0,0.0,0.0,0.0,0.0,-3.3364,-3.777,-4.0372,-4.1936,-4.2253,-3.8035,-3.313,0.0,0.0,0.0,0.0,0.0,0.0,0.0,0.0,0.0,0.0,0.0,0.0,0.0,0.0,0.0,0.0,0.0,0.0,0.0,0.0,0.0,0.0,0.0,0.0,0.0,0.0,0.0,0.0,0.0,0.0,0.0,0.0,0.0,0.0,0.0,0.0,0.0,0.0,0.0,0.0,0.0,0.0,0.0,0.0,0.0,0.0,0.0,0.0,0.0,0.0,0.0,0.0,0.0,0.0,0.0,0.0,0.0,0.0,0.0,0.0,0.0,0.0,0.0,0.0,0.0,0.0,0.0,0.0,0.0,0.0,0.0,0.0,0.0,0.0,0.0,0.0,0.0,0.0,0.0,0.0,0.0,0.0,0.0,0.0,0.0,0.0,0.0,0.0,0.0,0.0,0.0,0.0,0.0,0.0,0.0,0.0,0.0,0.0,0.0,0.0,0.0,0.0,0.0,0.0,0.0,0.0,0.0,0.0,-3.4252,-3.7404,-4.0782,-4.2079,-4.1119,-3.8049,-3.4339,0.0,0.0,0.0,0.0,0.0,0.0,0.0,0.0,0.0,0.0,0.0,0.0,0.0,0.0,0.0,0.0,0.0,0.0,0.0,0.0,0.0,0.0,0.0,0.0,0.0,0.0,0.0,0.0,0.0,0.0,0.0,0.0,0.0,0.0,0.0,0.0,0.0,0.0,0.0,0.0,0.0,0.0,0.0,0.0,0.0,0.0,0.0,0.0,-1.7103,0.0,0.0,0.0,0.0,0.0,0.0,0.0,0.0,0.0,0.0,0.0,0.0,0.0,0.0,0.0,0.0,0.0,0.0,0.0,0.0,0.0,0.0,0.0,0.0,0.0,0.0,0.0,0.0,0.0,0.0,0.0,0.0,0.0,0.0,0.0,0.0,0.0,0.0,0.0,0.0,0.0,0.0,0.0,0.0,0.0,0.0,0.0,0.0,0.0,0.0,0.0,0.0,0.0,0.0,0.0,0.0,0.0,0.0,0.0,-3.4699,-3.7653,-3.998,-4.1093,-4.0885,-3.7711,-3.4414,0.0,0.0,0.0,0.0,0.0,0.0,0.0,0.0,0.0,0.0,0.0,0.0,0.0,0.0,0.0,0.0,0.0,0.0,0.0,0.0,0.0,0.0,0.0,0.0,0.0,0.0,0.0,0.0,0.0,0.0,0.0,0.0,0.0,0.0,0.0,0.0,0.0,0.0,0.0,0.0,0.0,0.0,0.0,0.0,0.0,0.0,0.0,0.0,0.0,0.0,0.0,0.0,0.0,0.0,0.0,0.0,0.0,0.0,0.0,0.0,0.0,0.0,0.0,0.0,0.0,0.0,0.0,0.0,0.0,0.0,0.0,0.0,0.0,0.0,0.0,0.0,0.0,0.0,0.0,0.0,0.0,0.0,0.0,0.0,0.0,0.0,0.0,0.0,0.0,0.0,0.0,0.0,0.0,0.0,0.0,0.0,0.0,0.0,0.0,0.0,0.0,0.0,0.0,0.0,0.0,0.0,0.0,-3.0421,-3.4588,-3.7558,-3.8629,-3.9656,-4.0712,-3.6945,-3.3813,-3.1576,0.0,0.0,0.0,0.0,0.0,0.0,0.0,0.0,0.0,0.0,0.0,0.0,0.0,0.0,0.0,0.0,0.0,0.0,0.0,0.0,0.0,0.0,0.0,0.0,0.0,0.0,0.0,0.0,0.0,0.0,0.0,0.0,0.0,0.0,0.0,0.0,0.0,0.0,-1.4429,-1.5611,0.0,0.0,0.0,0.0,0.0,0.0,0.0,0.0,-1.8818,0.0,0.0,0.0,0.0,0.0,0.0,0.0,0.0,0.0,0.0,0.0,0.0,0.0,0.0,0.0,0.0,0.0,0.0,0.0,0.0,0.0,0.0,0.0,0.0,0.0,0.0,0.0,0.0,0.0,0.0,0.0,0.0,0.0,0.0,0.0,0.0,0.0,0.0,0.0,0.0,0.0,0.0,0.0,0.0,0.0,0.0,0.0,0.0,0.0,0.0,0.0,0.0,0.0,0.0,0.0,0.0,-2.5688,-3.001,-3.3225,-3.5318,-3.733,-3.8471,-3.8625,-3.5242,-3.276,-3.1327,0.0,0.0,0.0,0.0,0.0,0.0,0.0,0.0,0.0,0.0,0.0,0.0,0.0,0.0,0.0,0.0,0.0,0.0,0.0,0.0,0.0,0.0,0.0,0.0,0.0,0.0,0.0,0.0,0.0,0.0,0.0,0.0,0.0,0.0,0.0,0.0,0.0,0.0,0.0,-1.6664,-1.7123,0.0,0.0,0.0,0.0,0.0,0.0,0.0,0.0,-2.0185,0.0,0.0,0.0,0.0,0.0,0.0,0.0,0.0,0.0,0.0,0.0,0.0,0.0,0.0,0.0,0.0,0.0,0.0,0.0,0.0,0.0,0.0,0.0,0.0,0.0,0.0,0.0,0.0,0.0,0.0,0.0,0.0,0.0,0.0,0.0,0.0,0.0,0.0,0.0,0.0,0.0,0.0,0.0,0.0,0.0,0.0,0.0,0.0,0.0,0.0,0.0,0.0,0.0,0.0,0.0,-2.5691,-2.9772,-3.2612,-3.4008,-3.5425,-3.606,-3.5778,-3.3559,-3.131,0.0,0.0,0.0,0.0,0.0,0.0,0.0,0.0,0.0,0.0,0.0,0.0,0.0,0.0,0.0,0.0,0.0,0.0,0.0,0.0,0.0,0.0,0.0,0.0,0.0,0.0,0.0,0.0,0.0,0.0,0.0,0.0,0.0,0.0,0.0,0.0,0.0,0.0,0.0,0.0,-1.7175,-1.7889,-1.8023,0.0,0.0,0.0,0.0,0.0,0.0,-2.0225,-2.0444,0.0,0.0,0.0,0.0,0.0,0.0,0.0,0.0,0.0,0.0,0.0,0.0,0.0,0.0,0.0,0.0,0.0,0.0,0.0,0.0,0.0,0.0,0.0,0.0,0.0,0.0,0.0,0.0,0.0,0.0,0.0,0.0,0.0,0.0,0.0,0.0,0.0,0.0,0.0,0.0,0.0,0.0,0.0,0.0,0.0,0.0,0.0,0.0,0.0,0.0,0.0,0.0,0.0,0.0,0.0,-2.5832,-2.9341,-3.1758,-3.2919,-3.3522,-3.3669,-3.3322,-3.2012,-2.9844,0.0,0.0,0.0,0.0,0.0,0.0,0.0,0.0,0.0,0.0,0.0,0.0,0.0,0.0,0.0,0.0,0.0,0.0,0.0,0.0,0.0,0.0,0.0,0.0,0.0,0.0,0.0,0.0,0.0,0.0,0.0,0.0,0.0,0.0,0.0,0.0,0.0,0.0,0.0,0.0,0.0,-1.8661,-1.8437,-1.8501,0.0,0.0,0.0,0.0,-2.0083,-2.0846,0.0,0.0,0.0,0.0,0.0,0.0,0.0,0.0,0.0,0.0,0.0,0.0,0.0,0.0,0.0,0.0,0.0,0.0,0.0,0.0,0.0,0.0,0.0,0.0,0.0,0.0,0.0,0.0,0.0,0.0,0.0,0.0,0.0,0.0,0.0,0.0,0.0,0.0,0.0,0.0,0.0,0.0,0.0,0.0,0.0,0.0,0.0,0.0,0.0,0.0,0.0,0.0,0.0,0.0,0.0,0.0,-2.6871,-2.8183,-2.9751,-3.1692,-3.2073,-3.2314,-3.2429,-3.0802,-2.8647,0.0,0.0,0.0,0.0,0.0,0.0,0.0,0.0,0.0,0.0,0.0,0.0,0.0,0.0,0.0,0.0,0.0,0.0,0.0,0.0,0.0,0.0,0.0,0.0,0.0,0.0,0.0,0.0,0.0,0.0,0.0,0.0,0.0,0.0,0.0,0.0,0.0,0.0,0.0,0.0,0.0,-1.94,-1.9946,-2.0138,-2.0125,0.0,0.0,0.0,-2.1867,-2.3155,0.0,0.0,0.0,0.0,0.0,0.0,0.0,0.0,0.0,0.0,0.0,0.0,0.0,0.0,0.0,0.0,0.0,0.0,0.0,0.0,0.0,0.0,0.0,0.0,0.0,0.0,0.0,0.0,0.0,0.0,0.0,0.0,0.0,0.0,0.0,0.0,0.0,0.0,0.0,0.0,0.0,0.0,0.0,0.0,0.0,0.0,0.0,0.0,0.0,0.0,0.0,0.0,0.0,0.0,0.0,-2.3736,-2.6498,-2.8145,-2.9095,-2.9333,-3.0117,-3.0158,-2.9426,-2.8812,-2.7043,0.0,0.0,0.0,0.0,0.0,0.0,0.0,0.0,0.0,0.0,0.0,0.0,0.0,0.0,0.0,0.0,0.0,0.0,0.0,0.0,0.0,0.0,0.0,0.0,0.0,0.0,0.0,0.0,0.0,0.0,0.0,0.0,0.0,0.0,0.0,0.0,0.0,0.0,0.0,0.0,0.0,0.0,-1.9631,-2.0294,0.0,0.0,0.0,-2.1265,-2.1576,0.0,0.0,0.0,0.0,0.0,0.0,0.0,0.0,0.0,0.0,0.0,0.0,0.0,0.0,0.0,0.0,0.0,0.0,0.0,0.0,0.0,0.0,0.0,0.0,0.0,0.0,0.0,0.0,0.0,0.0,0.0,0.0,0.0,0.0,0.0,0.0,0.0,0.0,0.0,0.0,0.0,0.0,0.0,0.0,0.0,0.0,0.0,0.0,0.0,0.0,0.0,0.0,0.0,0.0,0.0,0.0,0.0,-2.6103,-2.8015,-2.8522,-2.7652,-2.84,-2.825,-2.7109,-2.7321,0.0,0.0,0.0,0.0,0.0,0.0,0.0,0.0,0.0,0.0,0.0,0.0,0.0,0.0,0.0,0.0,0.0,0.0,0.0,0.0,0.0,0.0,0.0,0.0,0.0,0.0,0.0,-1.1991,0.0,0.0,0.0,0.0,0.0,0.0,0.0,0.0,0.0,0.0,0.0,0.0,0.0,0.0,-1.989,-1.9722,-2.0662,-2.1141,0.0,0.0,-2.1305,-2.144,-2.1831,-2.1729,0.0,0.0,0.0,0.0,0.0,0.0,0.0,0.0,0.0,0.0,0.0,0.0,0.0,0.0,0.0,0.0,0.0,0.0,0.0,0.0,0.0,0.0,0.0,0.0,0.0,0.0,0.0,0.0,0.0,0.0,0.0,0.0,0.0,0.0,0.0,0.0,0.0,0.0,0.0,0.0,0.0,0.0,0.0,0.0,0.0,0.0,0.0,0.0,0.0,0.0,0.0,0.0,0.0,0.0,0.0,-2.6141,-2.7251,-2.7766,-2.7599,-2.7375,-2.7056,-2.6652,-2.6894,-2.5369,0.0,0.0,0.0,0.0,0.0,0.0,0.0,0.0,0.0,0.0,0.0,0.0,0.0,0.0,0.0,0.0,0.0,0.0,0.0,0.0,0.0,0.0,0.0,0.0,0.0,0.0,0.0,0.0,0.0,0.0,0.0,0.0,0.0,0.0,0.0,0.0,0.0,0.0,0.0,0.0,0.0,-2.0178,-2.1198,-2.201,-2.2458,0.0,0.0,-2.2818,-2.2224,-2.2922,-2.26,-1.9857,0.0,0.0,0.0,0.0,0.0,0.0,0.0,0.0,0.0,0.0,0.0,0.0,0.0,0.0,0.0,0.0,0.0,0.0,0.0,0.0,0.0,0.0,0.0,0.0,0.0,0.0,0.0,0.0,0.0,0.0,0.0,0.0,0.0,0.0,0.0,0.0,0.0,0.0,0.0,0.0,0.0,0.0,0.0,0.0,0.0,0.0,0.0,0.0,0.0,0.0,0.0,0.0,0.0,-2.4257,-2.659,-2.7777,-2.8062,-2.7377,-2.7208,-2.6739,-2.5953,-2.5575,-2.4433,0.0,0.0,0.0,0.0,0.0,0.0,0.0,0.0,0.0,0.0,0.0,0.0,0.0,0.0,0.0,0.0,0.0,0.0,0.0,0.0,0.0,0.0,0.0,0.0,0.0,0.0,0.0,0.0,-1.3497,-1.3667,-1.4147,0.0,0.0,0.0,0.0,0.0,0.0,0.0,0.0,0.0,0.0,-2.0897,-2.1014,-2.1865,0.0,0.0,-2.1707,-2.1811,-2.1192,-2.1588,-2.1497,-2.0079,-1.875,0.0,0.0,0.0,0.0,0.0,0.0,0.0,0.0,0.0,0.0,0.0,0.0,0.0,0.0,0.0,0.0,0.0,0.0,0.0,0.0,0.0,0.0,0.0,0.0,0.0,0.0,0.0,0.0,0.0,0.0,0.0,0.0,0.0,0.0,0.0,0.0,0.0,0.0,0.0,0.0,0.0,0.0,0.0,0.0,0.0,0.0,0.0,0.0,0.0,0.0,0.0,0.0,-2.4389,-2.637,-2.7981,-2.8229,-2.7045,-2.6876,-2.6327,-2.5378,-2.4745,-2.3932,0.0,0.0,0.0,0.0,0.0,0.0,0.0,0.0,0.0,0.0,0.0,0.0,0.0,0.0,0.0,0.0,0.0,0.0,0.0,0.0,0.0,0.0,0.0,0.0,0.0,0.0,0.0,0.0,-1.3945,-1.3975,-1.3831,0.0,0.0,0.0,0.0,0.0,0.0,0.0,0.0,0.0,0.0,-2.0976,-2.0962,-2.1629,-2.1877,-2.1121,-2.1134,-2.1081,-2.0566,-2.0538,-2.0409,-1.9927,0.0,0.0,0.0,0.0,0.0,0.0,0.0,0.0,0.0,0.0,0.0,0.0,0.0,0.0,0.0,0.0,0.0,0.0,0.0,0.0,0.0,0.0,0.0,0.0,0.0,0.0,0.0,0.0,0.0,0.0,0.0,0.0,0.0,0.0,0.0,0.0,0.0,0.0,0.0,0.0,0.0,0.0,0.0,0.0,0.0,0.0,0.0,0.0,0.0,0.0,0.0,0.0,0.0,0.0,-2.528,-2.7617,-2.8086,-2.6701,-2.6233,-2.5693,-2.5041,-2.4671,-2.4017,-2.2974,0.0,0.0,0.0,0.0,0.0,0.0,0.0,0.0,0.0,0.0,0.0,0.0,0.0,0.0,0.0,0.0,0.0,0.0,0.0,0.0,0.0,0.0,0.0,0.0,0.0,0.0,-1.3817,-1.4275,-1.4367,0.0,0.0,0.0,0.0,0.0,0.0,0.0,0.0,0.0,0.0,-1.9433,-2.0257,-2.1315,-2.1511,-2.1602,-2.1799,-2.14,-2.1,-2.0709,-2.0201,-1.9648,0.0,0.0,0.0,0.0,0.0,0.0,0.0,0.0,0.0,0.0,0.0,0.0,0.0,0.0,0.0,0.0,0.0,0.0,0.0,0.0,0.0,0.0,0.0,0.0,0.0,0.0,0.0,0.0,-2.4644,0.0,0.0,0.0,0.0,0.0,0.0,0.0,0.0,0.0,0.0,0.0,-2.7557,-2.806,0.0,0.0,0.0,0.0,0.0,0.0,0.0,0.0,0.0,0.0,0.0,0.0,-2.5036,-2.6049,-2.8119,-2.86,-2.7352,-2.6477,-2.5677,-2.5021,-2.3978,-2.2835,-2.1572,0.0,0.0,0.0,0.0,0.0,0.0,0.0,0.0,0.0,0.0,0.0,0.0,0.0,0.0,0.0,0.0,0.0,0.0,0.0,0.0,0.0,0.0,0.0,0.0,0.0,-1.4768,0.0,0.0,0.0,0.0,0.0,0.0,0.0,0.0,0.0,0.0,0.0,-1.8623,-1.9394,-2.0335,-2.0936,-2.0975,-2.1263,-2.1342,0.0,0.0,0.0,0.0,0.0,0.0,0.0,0.0,0.0,0.0,0.0,0.0,0.0,0.0,-1.7267,-1.6726,-1.6895,-1.7027,-1.6667,0.0,0.0,0.0,0.0,0.0,0.0,0.0,0.0,0.0,0.0,0.0,0.0,0.0,0.0,0.0,0.0,-2.6884,0.0,0.0,0.0,0.0,0.0,0.0,0.0,0.0,-3.0113,-3.1491,-3.0994,-3.1777,-3.1689,0.0,-2.8919,-2.6448,0.0,0.0,0.0,0.0,0.0,0.0,0.0,0.0,-2.4957,-2.605,-2.7838,-2.8318,-2.7352,-2.6583,-2.5823,-2.5021,-2.4116,-2.2851,-2.1221,-2.1002,-2.0542,0.0,0.0,0.0,0.0,0.0,0.0,0.0,0.0,0.0,0.0,0.0,0.0,0.0,0.0,0.0,0.0,0.0,0.0,0.0,0.0,0.0,0.0,0.0,-1.5108,0.0,0.0,0.0,0.0,0.0,0.0,0.0,0.0,0.0,-1.6963,-1.8283,-1.9447,-2.0046,-2.091,-2.1302,-2.0791,0.0,0.0,0.0,0.0,0.0,0.0,0.0,-2.0024,-1.9836,-1.966,-1.9509,-1.9258,-1.8709,-1.8227,-1.8052,0.0,0.0,-1.8013,-1.8109,-1.8289,-1.8494,-1.8374,-1.8165,-1.7936,-1.7704,-1.7352,0.0,0.0,0.0,0.0,0.0,0.0,0.0,0.0,-2.9118,-2.8864,0.0,-2.9508,0.0,0.0,0.0,0.0,0.0,0.0,0.0,0.0,-3.3922,-3.5526,-3.3515,-3.5671,-3.5503,-3.313,-3.2265,-3.0785,-2.8612,-2.4951,0.0,0.0,0.0,0.0,0.0,0.0,-2.4315,-2.5397,-2.688,-2.7316,-2.6649,-2.6545,-2.6033,-2.4989,-2.4922,-2.3939,-2.1976,-2.2453,-2.2501,-2.1802,-2.046,0.0,0.0,0.0,0.0,0.0,0.0,0.0,0.0,0.0,0.0,0.0,0.0,0.0,0.0,0.0,0.0,0.0,0.0,0.0,0.0,-1.4689,0.0,0.0,0.0,0.0,0.0,0.0,0.0,0.0,0.0,0.0,-1.8022,-1.9107,-2.0022,-2.0569,0.0,0.0,0.0,0.0,-2.1004,-2.031,-2.0093,-1.9977,-1.9837,-2.0302,-2.0478,-1.9899,0.0,0.0,-1.973,-1.9406,-1.9235,-1.9196,-1.9078,-1.9011,-1.8999,-1.9408,-1.9913,-2.0406,-2.0141,-1.967,-1.9049,-1.8581,-1.8019,-3.5437,0.0,0.0,0.0,0.0,-3.1069,-3.2444,-3.4934,-3.4451,-3.403,-3.3684,-3.312,0.0,0.0,0.0,0.0,0.0,0.0,-3.0321,-3.0308,-3.4709,-3.6671,-3.651,-3.7669,-3.7831,-3.7049,-3.525,-3.3763,-3.2519,-2.9967,-2.7205,-2.4326,0.0,0.0,0.0,0.0,-2.6232,-2.6252,-2.7483,-2.7673,-2.6616,-2.5842,-2.5072,-2.4239,-2.4207,-2.3683,-2.2611,-2.2345,-2.2092,-2.1869,-2.0983,0.0,0.0,0.0,0.0,0.0,0.0,0.0,0.0,0.0,0.0,0.0,0.0,0.0,0.0,0.0,0.0,0.0,0.0,0.0,-1.7016,-1.6702,-1.6362,0.0,0.0,0.0,0.0,0.0,0.0,0.0,0.0,0.0,-1.861,-1.9719,-2.0347,0.0,0.0,-2.0206,-1.9965,-2.0033,-2.0089,-2.0042,0.0,0.0,0.0,-2.0288,-2.049,-1.9886,-1.9949,-1.9935,-1.9629,-1.9899,-1.9914,-1.9346,-1.9461,-1.9676,-1.9615,-1.9997,-2.0406,-2.061,-2.1067,-2.1416,-2.1265,-2.1056,-2.0714,-4.288,-4.0745,-3.6748,-3.5097,-3.5175,-3.5014,-3.598,-3.7652,-3.7652,-3.7034,-3.6017,-3.6513,-3.4686,-3.1162,-2.9791,0.0,0.0,0.0,-3.2392,-3.2929,-3.6295,-3.8006,-3.8324,-3.9003,-3.8994,-3.8352,-3.6662,-3.5587,-3.5122,-3.3255,-3.1185,-2.8947,0.0,0.0,-2.5369,-2.6804,-2.7467,-2.7284,-2.785,-2.7738,-2.6855,-2.5634,-2.4653,-2.392,-2.3888,-2.3572,-2.2891,-2.2481,-2.2335,-2.2548,-2.1906,-2.1145,0.0,0.0,0.0,0.0,0.0,0.0,0.0,0.0,0.0,0.0,0.0,-1.5864,0.0,0.0,0.0,0.0,-1.5299,-1.6859,-1.7996,-1.7369,0.0,0.0,0.0,0.0,0.0,0.0,0.0,-1.7643,-1.814,-1.8728,-1.9522,-2.0242,-2.0581,-2.0203,-2.0335,-2.0351,-2.0007,0.0,-2.0143,-2.0029,-2.0255,-2.0291,-1.9861,-2.0314,-2.0566,-2.0226,-2.0137,-2.0023,-1.9758,-2.0304,-2.0432,-1.9648,-1.9833,-2.0216,-1.9872,-2.0394,-2.0923,-2.0947,-2.1596,-2.2099,-2.1831,-2.1757,-2.1569,-4.8506,-4.8117,-4.0125,-3.7082,-3.7535,-3.8279,-3.8915,-3.9472,-3.9584,-3.8637,-3.7281,-3.9431,-3.813,-3.4271,-3.3339,0.0,0.0,-3.4042,-3.5124,-3.5828,-3.8335,-3.935,-3.9081,-3.9695,-3.9238,-3.7777,-3.696,-3.6596,-3.6487,-3.5035,-3.4399,-3.4465,-3.0939,-2.8655,-2.7768,-2.8099,-2.8374,-2.8472,-2.8117,-2.7632,-2.7101,-2.5799,-2.4715,-2.3977,-2.3942,-2.3572,-2.2815,-2.2721,-2.2979,-2.3538,-2.2961,-2.2287,-2.1587,0.0,0.0,0.0,0.0,0.0,0.0,0.0,0.0,0.0,0.0,0.0,0.0,0.0,0.0,0.0,-1.6002,0.0,-1.7983,-1.7186,0.0,0.0,0.0,-1.6179,-1.7225,-1.6937,-1.746,-1.9499,0.0,0.0,0.0,0.0,-2.0646,-2.0699,-2.1067,-2.1133,-2.0486,-2.0656,-2.0706,-2.0041,-1.9938,-1.9874,-1.9836,-2.0251,-2.0553,-2.0515,-2.0616,-2.039,-1.9974,-2.0544,-2.067,-1.9605,-2.0144,-2.0504,-1.986,-2.0538,-2.1344,-2.1284,-2.1777,-2.1987,-2.1463,-2.1293,-2.1144,-5.007,-4.8674,-4.726,-4.573,-4.4265,-4.4408,-4.3838,-4.2927,-4.3522,-4.2537,-4.0457,-4.0401,-3.8464,-3.5157,-3.4266,-3.4328,-3.5166,-3.6133,-3.7043,-3.7903,-3.9095,-3.9519,-3.9238,-3.926,-3.8759,-3.7815,-3.7502,-3.6997,-3.635,-3.5593,-3.5164,-3.5003,-3.3133,-3.1446,-3.0142,-3.0664,-3.0386,-2.9248,-2.8884,-2.7952,-2.642,-2.6025,-2.5342,-2.4312,-2.4278,-2.3758,-2.2692,-2.2144,-2.2423,-2.3522,-2.2945,-2.272,-2.2952,-2.1182,0.0,0.0,0.0,0.0,0.0,0.0,0.0,0.0,0.0,-1.6905,-1.6705,0.0,-1.6221,0.0,-1.5254,-1.6362,-1.7931,-1.8218,0.0,0.0,-1.8009,-1.8192,-1.8466,-1.8793,-1.9028,-1.9071,-1.9394,-1.9695,-1.9982,-2.0009,-2.019,-2.0633,-2.0326,-1.9969,-1.9691,-1.9658,-1.9712,-1.985,-2.0151,-2.0327,-1.9861,-1.9911,-2.0038,-1.9999,-2.0012,-1.9962,-1.9823,-2.0282,-2.0397,-1.9631,-1.9829,-1.9913,-1.9338,-2.0069,-2.0742,-2.0839,-2.1566,-2.2166,-2.1968,-2.1925,-2.1744,-4.946,-4.8509,-4.9224,-4.8536,-4.701,-4.7188,-4.6445,-4.5138,-4.5249,-4.4302,-4.2612,-4.1813,-4.0457,-3.8725,-3.7856,-3.7567,-3.7759,-3.819,-3.8525,-3.8887,-3.9487,-3.9507,-3.9022,-3.8719,-3.8192,-3.7458,-3.7255,-3.7134,-3.6932,-3.6208,-3.6038,-3.6274,-3.4822,-3.3507,-3.24,-3.2068,-3.1424,-3.0541,-2.9516,-2.8143,-2.6451,-2.6192,-2.5613,-2.4621,-2.4244,-2.3531,-2.242,-2.1654,-2.1692,-2.2599,-2.2284,-2.2214,-2.2477,-2.1146,-2.0047,0.0,0.0,0.0,0.0,0.0,0.0,0.0,0.0,0.0,0.0,0.0,-1.6632,0.0,-1.608,0.0,-1.8349,-1.8519,-1.8623,-1.8832,-1.8662,-1.8741,-1.9237,-1.9345,-1.9473,-1.9679,-1.976,-1.9891,-2.0164,-1.9956,-1.9917,-2.0169,-1.9825,-1.9576,-1.9695,-1.9456,-1.9269,-1.9422,-1.951,-1.9497,-1.912,-1.9284,-1.9447,-1.9497,-1.9874,-2.0112,-1.9886,-2.0395,-2.0546,-1.968,-1.9912,-2.0155,-1.9531,-2.0009,-2.0586,-2.0687,-2.1072,-2.1626,-2.2077,-2.2036,-2.1728,-4.8162,-4.8105,-4.8567,-4.8358,-4.7735,-4.8147,-4.7661,-4.6501,-4.5783,-4.4896,-4.3949,-4.315,-4.2779,-4.2742,-4.1962,-4.103,-4.0031,-4.0037,-3.9811,-3.9458,-3.9678,-3.942,-3.8756,-3.8247,-3.7662,-3.7046,-3.6806,-3.7012,-3.76,-3.6734,-3.6692,-3.7326,-3.5949,-3.4841,-3.4162,-3.2759,-3.1909,-3.1645,-3.0048,-2.8455,-2.6945,-2.657,-2.5875,-2.4772,-2.403,-2.3175,-2.2127,-2.1258,-2.1057,-2.1584,-2.1481,-2.1456,-2.1519,-2.0841,-2.0212,0.0,-1.8915,0.0,0.0,0.0,0.0,0.0,0.0,0.0,0.0,-1.7854,-1.706,-1.6651,-1.7447,-1.8179,-1.8649,-1.8336,-1.8532,-1.9525,-1.8806,-1.8623,-1.963,-1.9277,-1.9303,-2.0358,-2.0085,-1.9995,-2.0294,-2.0087,-1.9832,-1.9694,-1.9601,-1.9644,-1.9901,-1.9432,-1.898,-1.8895,-1.8494,-1.838,-1.8367,-1.8682,-1.9033,-1.9133,-1.9823,-2.039,-1.9874,-2.0457,-2.0695,-1.9767,-2.0012,-2.0337,-1.9827,-2.0161,-2.0506,-2.0499,-2.0591,-2.0952,-2.1644,-2.1596,-2.1296,-4.8964,-4.8338,-4.8433,-4.8632,-4.889,-4.899,-4.8175,-4.6794,-4.6416,-4.5417,-4.3949,-4.315,-4.2779,-4.2742,-4.1962,-4.1468,-4.1275,-4.126,-4.104,-4.0632,-4.0068,-3.954,-3.9048,-3.8023,-3.7461,-3.7299,-3.6774,-3.6593,-3.6731,-3.645,-3.6391,-3.6512,-3.5632,-3.4855,-3.4116,0.0,0.0,0.0,-3.0557,-2.9627,-2.8148,-2.8013,-2.6824,-2.4493,-2.413,0.0,-2.2079,-2.1225,-2.131,-2.2284,-2.1763,0.0,0.0,0.0,0.0,0.0,0.0,0.0,0.0,0.0,0.0,0.0,-2.022,-1.9838,-1.9451,-1.8527,-1.7914,-1.7782,-1.7539,-1.7408,-1.7512,-1.7878,-1.8362,-1.8963,-1.8885,-1.9028,-1.9682,-1.9264,-1.9015,-1.9198,-1.9564,-1.9656,-1.9355,-1.9871,-2.0135,-1.9671,-1.9785,-1.9737,-1.9394,-1.8827,-1.8404,-1.8342,-1.8191,-1.8179,-1.8204,-1.8619,-1.8958,-1.9096,-1.9522,-1.9899,-1.9861,-1.9845,-1.9952,-1.9565,-1.9594,-1.9687,-1.9511,-1.9821,-2.0088,-2.0116,-2.0354,-2.0658,-2.0868,-2.0815,-2.0634,-4.8798,0.0,-4.8411,-4.8562,0.0,-4.9519,-4.913,-4.7965,-4.7118,-4.5715,-4.3968,-4.3578,-4.3169,-4.2779,-4.237,-4.1757,-4.101,-4.1014,-4.0667,-4.0025,-3.9479,-3.9088,-3.8877,-3.8093,-3.765,-3.7432,-3.711,-3.6834,-3.6629,-3.6485,-3.6402,-3.6385,-3.56,-3.5007,-3.4611,-3.3473,-3.2179,-3.0714,-3.03,-2.9558,-2.8472,-2.842,-2.7343,-2.5214,0.0,0.0,0.0,0.0,0.0,0.0,0.0,0.0,0.0,0.0,0.0,-2.2274,-2.1673,-2.1563,-2.2099,-2.189,-2.1763,-2.1873,-2.1497,-2.074,-1.9467,-1.9139,-1.8734,-1.8153,-1.7813,-1.7748,-1.8009,-1.8074,-1.8427,-1.9198,-1.8858,-1.8649,-1.8872,-1.8702,-1.8388,-1.8166,-1.8584,-1.8924,-1.8911,-1.9014,-1.9206,-1.9134,-1.9148,-1.9015,-1.8461,-1.8264,-1.8053,-1.7466,-1.7375,-1.7453,-1.779,-1.8254,-1.8719,-1.897,-1.9434,-1.9761,-1.9798,-1.9682,-1.9591,-1.9591,-1.9486,-1.942,-1.9419,-1.9533,-1.9609,-1.9621,-1.9718,-1.9805,-1.9832,-2.0009,-2.0129,-4.8546,-4.8411,-4.8411,-4.8469,-4.8725,-4.9815,-4.9836,-4.9022,0.0,0.0,0.0,-4.3931,-4.3537,-4.3032,-4.2738,-4.1869,-4.0639,-4.0438,-3.9937,-3.9106,-3.8822,-3.8703,-3.8673,-3.8346,-3.8016,-3.7685,-3.756,-3.7338,-3.6992,-3.6733,-3.6591,-3.6519,-3.5803,-3.5338,-3.5111,-3.368,-3.23,-3.111,-3.03,-2.9472,-2.8644,-2.8592,-2.7734,-2.5961,-2.6517,-2.6082,-2.4573,-2.3933,-2.3264,-2.2513,-2.249,-2.2257,-2.1723,-2.2163,-2.2455,-2.2471,-2.2578,-2.282,-2.3271,-2.2928,-2.2821,-2.3165,-2.2506,-2.1319,-1.9482,-1.9621,-1.9317,-1.8179,-1.8009,-1.8114,-1.8545,-1.8205,-1.8349,-1.9381,-1.8558,-1.797,-1.8074,-1.7996,-1.7748,-1.7356,-1.7774,-1.8183,-1.8461,-1.8306,-1.8129,-1.8488,-1.8605,-1.8346,-1.7861,-1.7951,-1.7677,-1.6801,-1.6663,-1.6738,-1.73,-1.7877,-1.8331,-1.8757,-1.9346,-1.9761,-1.9672,-1.9645,-1.9656,-1.963,-1.9539,-1.9512,-1.946,-1.9393,-1.9249,-1.9249,-1.9105,-1.9013,-1.9049,-1.9363,-1.9624,-4.9068,-4.8411,-4.8411,-4.8836,-4.9525,-4.9734,-4.9451,-4.8766,-4.7545,-4.6311,-4.51,-4.3627,-4.3363,-4.3908,-4.2452,-4.1646,-4.1386,-4.0717,-3.9918,0.0,-3.9041,-3.9027,-3.9013,-3.8688,-3.8502,-3.8423,-3.803,-3.7808,-3.7703,-3.7284,-3.7036,-3.6902,-3.651,-3.5939,-3.5128,-3.368,-3.28,-3.2576,-3.1852,-3.0782,-2.9403,-2.9351,-2.825,-2.616,-2.6583,-2.6419,-2.5393,-2.503,-2.4589,-2.3996,-2.3285,-2.2928,-2.3018,-2.3102,-2.3163,-2.3194,-2.3636,-2.3738,-2.3348,-2.3594,-2.3584,-2.3135,-2.2489,-2.1578,-2.0433,-1.9944,-1.9253,-1.8219,-1.7678,-1.7363,-1.7421,-1.7429,-1.763,-1.8205,-1.7748,-1.7525,-1.7996,-1.7643,-1.7329,-1.7238,-1.7743,-1.7848,-1.7571,-1.7977,-1.8349,-1.8463,-1.8599,-1.8819,-1.8618,-1.8041,-1.7287,-1.6697,-1.6513,-1.676,-1.7338,-1.784,-1.8204,-1.8292,-1.9121,-1.956,-1.9171,-1.9384,-1.9609,-1.9735,-1.9608,-1.9646,-1.9658,-1.9539,-1.937,-1.9317,-1.9184,-1.9013,-1.9013,-1.9095,-1.9131,-4.9726,-4.9687,-4.9281,-4.9591,-5.0345,-5.0337,-5.0082,-4.9546,-4.8117,-4.6732,-4.5431,-4.4532,-4.3661,-4.2787,-4.1969,-4.1089,-4.0215,-3.9863,-3.9472,-3.9101,-3.9101,-3.9101,-3.9124,-3.9419,-3.9441,-3.9237,-3.9047,-3.8851,-3.8576,-3.7505,-3.7023,-3.7173,-3.6753,-3.608,-3.5183,-3.4093,-3.3335,-3.2886,-3.1783,-3.0869,-3.0162,-2.973,-2.88,-2.7355,-2.7485,-2.7368,-2.6927,-2.6484,-2.6132,-2.5934,-2.5102,-2.4492,-2.421,-2.3982,-2.3856,-2.3856,-2.4092,-2.4117,-2.3805,-2.3842,-2.3739,-2.3392,-2.3076,-2.2465,-2.1391,-2.0329,-1.941,-1.8791,-1.8008,-1.7537,-1.7537,-1.7516,-1.7553,-1.7599,-1.7356,-1.7316,-1.7525,-1.7395,-1.7212,-1.7225,-1.7434,-1.7609,-1.7596,-1.7661,-1.7856,-1.7999,-1.8347,-1.8681,-1.897,-1.8618,-1.7965,-1.7187,-1.7021,-1.7247,-1.7712,-1.7752,-1.8016,-1.8494,-1.8794,-1.8844,-1.8618,-1.8832,-1.8895,-1.8932,-1.8957,-1.907,-1.9259,-1.9131,-1.9114,-1.9331,-1.9172,-1.9013,-1.9013,-1.9013,-1.9013,-5.0326,-5.0821,-5.0229,-5.0241,-5.0608,-5.0627,-5.0338,-4.974,-4.8452,-4.706,-4.5735,-4.5122,-4.3879,-4.2331,-4.1634,-4.0717,-3.9714,-3.9268,-3.9101,-3.9101,-3.9101,-3.9194,-3.9435,-4.0104,-4.0322,-4.0185,-4.0041,-3.979,-3.9367,-3.7913,-3.7158,-3.7166,-3.6457,-3.5838,-3.5324,-3.4515,-3.3869,-3.3369,-3.2146,-3.1214,-3.0714,-2.992,-2.9161,-2.8438,-2.8219,-2.8101,-2.8084,-2.7632,-2.7428,-2.7487,-2.6711,-2.5935,-2.5282,-2.4889,-2.4483,-2.4169,-2.4045,-2.3978,-2.3869,-2.3828,-2.3739,-2.3595,-2.3595,-2.3137,-2.2007,-2.0769,-1.9821,-1.9307,-1.8466,-1.7962,-1.7962,-1.7948,-1.7828,-1.7537,-1.7496,-1.7488,-1.7365,-1.7344,-1.7331,-1.7344,-1.7248,-1.7395,-1.7704,-1.7393,-1.72,-1.7584,-1.8033,-1.8555,-1.892,-1.9083,-1.8769,-1.8041,-1.7586,-1.7524,-1.7928,-1.785,-1.7915,-1.8631,-1.8544,-1.8455,-1.8342,-1.8229,-1.8293,-1.843,-1.8342,-1.8418,-1.8683,-1.8586,-1.8572,-1.8791,-1.8648,-1.8614,-1.8734,-1.8797,-1.8893,-5.0801,-5.0879,-5.0763,-5.0403,-4.9861,-4.9803,-4.9236,-4.8327,-4.7982,-4.7305,-4.6184,-4.4323,-4.3755,-4.3706,-4.1622,-4.0861,-4.1126,-3.9788,-3.912,-3.912,-3.9101,-3.951,-4.0155,-4.036,-4.0773,-4.1212,-4.064,-4.0277,-4.0163,-3.8967,-3.784,-3.6745,-3.551,-3.5251,-3.558,-3.4675,-3.4372,-3.4976,-3.4217,-3.2802,-3.0782,-2.9903,-2.9161,-2.8437,-2.8252,-2.8168,-2.8152,-2.7981,-2.8057,-2.8222,-2.7488,-2.6713,-2.6013,-2.5835,-2.5116,-2.3557,-2.3264,-2.3046,-2.2921,-2.3444,-2.3739,-2.3616,-2.358,-2.3065,-2.1898,-2.1252,-2.0508,-1.9608,-1.8846,-1.8456,-1.8436,-1.8436,-1.8397,-1.8285,-1.8285,-1.824,-1.7828,-1.7747,-1.7747,-1.7747,-1.7496,-1.7321,-1.7574,-1.7272,-1.714,-1.7502,-1.8208,-1.8781,-1.8983,-1.9258,-1.9346,-1.8744,-1.8078,-1.7524,-1.7589,-1.7865,-1.784,-1.7727,-1.8306,-1.8417,-1.8141,-1.8078,-1.8279,-1.8168,-1.8318,-1.8056,-1.8062,-1.7968,-1.7873,-1.8105,-1.7993,-1.7784,-1.8133,-1.8313,-1.8496,-5.0473,-5.084,-5.0395,-4.9997,-4.9649,-4.9165,-4.8655,-4.8205,-4.7667,-4.7103,-4.6513,-4.5144,-4.4253,-4.3692,-4.2422,-4.1783,-4.1497,-4.0383,-3.9863,-3.9825,-3.9342,-3.9287,-3.964,-4.0178,-4.0583,-4.0847,-4.0564,-4.0416,-4.0191,-3.9202,-3.8049,-3.7089,-3.6643,-3.654,-3.6437,-3.5176,-3.4528,-3.451,-3.3392,-3.2323,-3.1421,-3.061,-3.0058,-2.9661,-2.832,-2.7979,-2.8596,-2.8288,-2.8215,-2.8637,-2.7761,-2.7064,-2.6707,-2.6066,-2.5289,-2.4304,-2.3825,-2.3531,-2.3348,-2.3582,-2.3674,-2.3595,-2.3251,-2.2838,-2.2328,-2.1436,-2.0651,-2.0182,-1.9383,-1.886,-1.8874,-1.8841,-1.875,-1.8558,-1.85,-1.8436,-1.8246,-1.8206,-1.8206,-1.8206,-1.8068,-1.7948,-1.7928,-1.7727,-1.7665,-1.7844,-1.8251,-1.8537,-1.8906,-1.8945,-1.8907,-1.8882,-1.8355,-1.794,-1.7827,-1.74,-1.7325,-1.7375,-1.7438,-1.7365,-1.7365,-1.7202,-1.7277,-1.7553,-1.7428,-1.7405,-1.7501,-1.7461,-1.7394,-1.7617,-1.7944,-1.7965,-1.8157,-1.8269,-1.8524,-5.0202,-5.0415,-4.9687,-4.9204,-4.8933,-4.8314,-4.7908,-4.7637,-4.7018,-4.6642,-4.6452,-4.575,-4.489,-4.3945,-4.3289,-4.2641,-4.1954,-4.0905,-4.0416,-4.0327,-3.9733,-3.9454,-3.9528,-4.0327,-4.0717,-4.0694,-4.0494,-4.0285,-3.996,-3.8958,-3.8151,-3.7774,-3.7705,-3.7414,-3.686,-3.5899,-3.5144,-3.4493,-3.3556,-3.3035,-3.2719,-3.1801,-3.1128,-3.0558,-2.8594,-2.7944,-2.8853,-2.8152,-2.8032,-2.8673,-2.7844,-2.7308,-2.7162,-2.6409,-2.5556,-2.4607,-2.4045,-2.3667,-2.3519,-2.3728,-2.3714,-2.337,-2.3062,-2.2718,-2.2128,-2.1425,-2.0842,-2.0352,-1.9893,-1.9503,-1.9269,-1.9269,-1.9197,-1.9094,-1.9099,-1.9122,-1.9244,-1.9105,-1.8958,-1.893,-1.866,-1.8422,-1.8266,-1.8042,-1.7923,-1.8015,-1.8022,-1.8115,-1.8579,-1.845,-1.838,-1.8682,-1.8293,-1.799,-1.7928,-1.7626,-1.7187,-1.6961,-1.6936,-1.6951,-1.671,-1.6685,-1.6722,-1.724,-1.6751,-1.6548,-1.6789,-1.685,-1.6846,-1.7423,-1.7726,-1.7761,-1.7665,-1.8042,-1.8505,-5.0415,-4.9649,-4.8836,-4.8043,-4.7231,-4.7192,-4.6716,-4.6097,-4.5916,-4.5877,-4.588,-4.5632,-4.5416,-4.516,-4.3952,-4.3282,-4.2972,-4.1362,-4.0537,-4.0471,-4.0341,-4.0341,-4.0416,-4.1144,-4.146,-4.1163,-4.0568,-3.9955,-3.925,-3.8456,-3.8326,-3.8952,-3.8107,-3.7257,-3.7029,-3.7167,-3.6617,-3.5743,-3.5809,-3.5812,-3.5047,-3.3585,-3.2059,-3.0835,-2.9179,-2.837,-2.8372,-2.7552,-2.7418,-2.8032,-2.7858,-2.7578,-2.7253,-2.7145,-2.6078,-2.4111,-2.3354,-2.3025,-2.302,-2.3811,-2.3969,-2.3047,-2.3116,-2.2742,-2.1196,-2.1291,-2.1006,-1.9899,-2.0292,-2.0273,-1.9889,-1.9763,-1.9945,-2.0399,-2.0533,-2.0666,-2.0887,-2.0239,-2.0064,-1.9846,-1.9146,-1.8666,-1.826,-1.7935,-1.7963,-1.799,-1.7978,-1.8079,-1.8182,-1.8191,-1.8244,-1.8259,-1.7958,-1.7471,-1.7521,-1.74,-1.73,-1.7137,-1.7096,-1.725,-1.7124,-1.7024,-1.7036,-1.6974,-1.6679,-1.6442,-1.6268,-1.6208,-1.6205,-1.6504,-1.6856,-1.6941,-1.7253,-1.7885,-1.8373,-4.9622,-4.8836,-4.8546,-4.7889,-4.7057,-4.6503,-4.6078,-4.5826,-4.5807,-4.5807,-4.5793,-4.5723,-4.5673,-4.5603,-4.495,-4.4456,-4.4026,-4.2859,-4.1935,-4.1259,-4.0691,-4.0142,-3.964,-3.9881,-3.9993,-3.9955,-3.9695,-3.9714,-3.9951,-3.9621,-3.99,-4.0517,-4.0226,-3.9798,-3.9402,-3.9052,-3.8525,-3.7773,-3.6852,-3.6079,-3.5685,-3.3911,-3.2628,-3.2059,-3.0144,-2.93,-2.9678,-2.887,-2.8288,-2.8015,-2.7876,-2.7754,-2.7577,-2.7326,-2.6796,-2.575,-2.4658,-2.3938,-2.3722,-2.348,-2.3227,-2.2778,-2.2478,-2.2024,-2.1021,-2.0897,-2.0842,-2.0513,-2.0509,-2.0707,-2.0902,-2.0602,-2.0438,-2.0673,-2.1077,-2.1381,-2.1327,-2.0917,-2.0497,-2.034,-1.966,-1.9315,-1.9678,-1.9239,-1.8703,-1.8772,-1.8528,-1.8371,-1.8355,-1.8208,-1.8162,-1.8745,-1.8596,-1.8244,-1.8244,-1.7456,-1.6986,-1.7049,-1.7109,-1.7134,-1.7071,-1.6823,-1.676,-1.6738,-1.652,-1.6451,-1.63,-1.6434,-1.6286,-1.6166,-1.645,-1.6754,-1.6942,-1.7713,-1.8204,-4.8759,-4.7985,-4.7657,-4.7231,-4.6631,-4.6058,-4.5807,-4.5807,-4.5807,-4.5807,-4.5807,-4.5807,-4.5807,-4.5786,-4.5618,-4.5304,-4.4786,-4.391,-4.2894,-4.1855,-4.1234,-4.0466,-3.9714,-3.9784,-3.9751,-3.951,-3.9212,-3.9547,-4.0323,-4.0416,-4.081,-4.1534,-4.179,-4.1585,-4.1018,-4.071,-4.0108,-3.881,-3.7596,-3.6861,-3.6267,-3.4731,-3.3642,-3.3078,-3.1541,-3.054,-3.059,-2.9728,-2.9023,-2.8492,-2.8285,-2.8096,-2.7823,-2.7452,-2.7143,-2.6869,-2.5889,-2.5134,-2.4932,-2.4474,-2.3997,-2.3334,-2.2906,-2.2248,-2.1289,-2.1055,-2.0946,-2.0812,-2.0961,-2.1261,-2.153,-2.147,-2.135,-2.138,-2.1754,-2.2113,-2.2233,-2.1754,-2.1316,-2.1008,-2.0493,-2.0504,-2.0929,-2.0094,-1.9603,-1.9618,-1.9007,-1.8567,-1.8549,-1.8194,-1.8004,-1.8733,-1.8536,-1.8307,-1.8211,-1.7626,-1.7179,-1.7188,-1.7153,-1.7139,-1.7014,-1.6741,-1.6572,-1.6513,-1.647,-1.6426,-1.6452,-1.6611,-1.6505,-1.6296,-1.6534,-1.688,-1.723,-1.7645,-1.8103,-4.7954,-4.7115,-4.6213,-4.6,-4.5923,-4.5845,-4.5807,-4.5807,-4.5807,-4.5807,-4.5807,-4.5807,-4.5807,-4.58,-4.5759,-4.5658,-4.5272,-4.4362,-4.3285,-4.2277,-4.2084,-4.1505,-4.0634,-4.1129,-4.1006,-4.0378,-3.9547,-3.9677,-4.0694,-4.0736,-4.107,-4.1776,-4.2537,-4.2326,-4.1227,-4.1834,-4.0972,-3.9176,-3.8829,-3.8384,-3.7264,-3.6174,-3.5081,-3.4108,-3.3151,-3.2061,-3.08,-2.9953,-2.9471,-2.9245,-2.9122,-2.8693,-2.8076,-2.7707,-2.7387,-2.7302,-2.683,-2.6489,-2.6317,-2.6732,-2.6057,-2.4922,-2.4541,-2.38,-2.2429,-2.1982,-2.1699,-2.1415,-2.1455,-2.1769,-2.1964,-2.2328,-2.2553,-2.2673,-2.2628,-2.2897,-2.3206,-2.3017,-2.2433,-2.1809,-2.1361,-2.1394,-2.1259,-2.0659,-2.015,-1.9955,-1.9341,-1.8671,-1.8649,-1.8262,-1.7935,-1.797,-1.82,-1.8376,-1.8091,-1.7787,-1.757,-1.7391,-1.7327,-1.7253,-1.7102,-1.687,-1.6771,-1.6737,-1.6763,-1.6685,-1.6392,-1.6516,-1.6457,-1.6361,-1.6697,-1.688,-1.7072,-1.7401,-1.7988,-4.8459,-4.7122,-4.6832,-4.6348,-4.5845,-4.5807,-4.5807,-4.5807,-4.5807,-4.5807,-4.5807,-4.5807,-4.5807,-4.5807,-4.5807,-4.5778,-4.5669,-4.5255,-4.446,-4.3422,-4.3232,-4.2705,-4.1961,-4.1857,-4.1637,-4.1151,-4.0397,-4.1014,-4.2463,-4.2296,-4.2742,-4.3856,-4.3763,-4.3472,-4.3045,-4.3307,-4.2633,-4.1467,-4.058,-3.9764,-3.8703,-3.7077,-3.5667,-3.4577,-3.3735,-3.2735,-3.1525,-3.1105,-3.0655,-3.0139,-2.9943,-2.9712,-2.9414,-2.9288,-2.9158,-2.8958,-2.8169,-2.7633,-2.7387,-2.7013,-2.6627,-2.5938,-2.5839,-2.5194,-2.4067,-2.3674,-2.3524,-2.3311,-2.2894,-2.2652,-2.3445,-2.343,-2.3182,-2.2748,-2.3077,-2.334,-2.3496,-2.3071,-2.2631,-2.2265,-2.1756,-2.1766,-2.2146,-2.158,-2.0741,-2.0669,-2.0056,-1.9487,-1.9003,-1.8798,-1.8693,-1.8674,-1.8688,-1.8629,-1.8635,-1.8543,-1.8335,-1.8064,-1.7862,-1.7562,-1.7326,-1.714,-1.7046,-1.7097,-1.7093,-1.6964,-1.666,-1.65,-1.6543,-1.6457,-1.6645,-1.6682,-1.6654,-1.7145,-1.7922,-4.7953,-4.6726,-4.6628,-4.631,-4.5826,-4.5807,-4.5807,-4.5807,-4.5807,-4.5807,-4.5807,-4.5807,-4.5807,-4.5807,-4.5807,-4.5807,-4.5807,-4.5807,-4.536,-4.4536,-4.4059,-4.3567,-4.2995,-4.2919,-4.3243,-4.3281,-4.2333,-4.2686,-4.4358,-4.4023,-4.4098,-4.4599,-4.4581,-4.4283,-4.4061,-4.3986,-4.3596,-4.2752,-4.1636,-4.0551,-3.9404,-3.7906,-3.6504,-3.5474,-3.4854,-3.3864,-3.2577,-3.2364,-3.1872,-3.1069,-3.0711,-3.0476,-3.0176,-3.0292,-3.034,-2.9943,-2.9568,-2.9057,-2.8387,-2.8105,-2.74,-2.6889,-2.6945,-2.6455,-2.5338,-2.4867,-2.48,-2.4426,-2.3768,-2.3636,-2.4416,-2.4204,-2.3707,-2.3338,-2.3462,-2.358,-2.3535,-2.3287,-2.3056,-2.2831,-2.2467,-2.2664,-2.2937,-2.2309,-2.1444,-2.1293,-2.0828,-2.0204,-1.9682,-1.9488,-1.9464,-1.9329,-1.9123,-1.9185,-1.9407,-1.9296,-1.9109,-1.882,-1.852,-1.8092,-1.7703,-1.7553,-1.7444,-1.7692,-1.7799,-1.7768,-1.7481,-1.7188,-1.711,-1.6921,-1.6723,-1.6718,-1.6861,-1.7488,-1.8157,-4.6897,-4.6105,-4.5951,-4.5937,-4.5807,-4.5807,-4.5807,-4.5807,-4.5807,-4.5807,-4.5807,-4.5807,-4.5807,-4.5807,-4.5807,-4.5807,-4.5807,-4.5807,-4.5761,-4.5457,-4.4941,-4.4393,-4.4179,-4.4095,-4.4815,-4.6031,-4.4647,-4.451,-4.5568,-4.5337,-4.4952,-4.4544,-4.4971,-4.4841,-4.4172,-4.4005,-4.3615,-4.2782,-4.1912,-4.0812,-3.9628,-3.8676,-3.7614,-3.6468,-3.6255,-3.5332,-3.3618,-3.3107,-3.2647,-3.1704,-3.1342,-3.0917,-3.0465,-3.0835,-3.0835,-3.0309,-3.0818,-3.0249,-2.9508,-2.9636,-2.9365,-2.7891,-2.8066,-2.7745,-2.6267,-2.5741,-2.5352,-2.4863,-2.4455,-2.4516,-2.491,-2.4775,-2.4467,-2.4281,-2.3879,-2.3616,-2.3595,-2.3565,-2.349,-2.3477,-2.3451,-2.3452,-2.3864,-2.2776,-2.2185,-2.183,-2.1394,-2.0828,-2.0175,-1.9928,-2.0045,-1.9827,-1.9435,-1.9478,-1.9624,-1.9314,-1.9146,-1.908,-1.8825,-1.8498,-1.8126,-1.7984,-1.7767,-1.8042,-1.8463,-1.8445,-1.8193,-1.7812,-1.7515,-1.731,-1.7136,-1.6968,-1.7178,-1.7695,-1.8089,-4.8319,-4.6922,-4.6848,-4.6434,-4.5852,-4.5807,-4.5807,-4.5807,-4.5826,-4.5865,-4.5807,-4.5807,-4.5845,-4.5807,-4.5807,-4.5807,-4.5807,-4.5807,-4.5807,-4.5877,-4.6266,-4.6138,-4.5582,-4.4673,-4.5235,-4.6694,-4.551,-4.5375,-4.7161,-4.6621,-4.6118,-4.5825,-4.5451,-4.4896,-4.4135,-4.4023,-4.3578,-4.2797,-4.1942,-4.1036,-4.0084,-3.9118,-3.8092,-3.7043,-3.6893,-3.575,-3.3671,-3.2684,-3.208,-3.1591,-3.1498,-3.1298,-3.0922,-3.1072,-3.1089,-3.0954,-3.1004,-3.1072,-3.0692,-3.0746,-3.0586,-3.0185,-2.9635,-2.9267,-2.8461,-2.7265,-2.6727,-2.6405,-2.6086,-2.5714,-2.5839,-2.5715,-2.5384,-2.4773,-2.411,-2.3681,-2.3659,-2.3595,-2.3595,-2.3573,-2.3451,-2.3452,-2.3422,-2.309,-2.2461,-2.212,-2.1815,-2.1336,-2.0582,-2.0204,-2.0248,-1.9928,-1.9653,-1.9711,-1.9653,-1.9333,-1.9174,-1.9155,-1.9022,-1.8827,-1.8573,-1.8439,-1.8181,-1.8065,-1.8919,-1.9113,-1.8617,-1.8139,-1.7915,-1.7835,-1.7488,-1.7303,-1.7221,-1.7503,-1.7862,-4.8103,-4.6762,-4.6746,-4.6426,-4.5905,-4.5873,-4.5841,-4.5891,-4.6194,-4.6116,-4.5962,-4.6232,-4.6136,-4.5845,-4.5807,-4.5807,-4.5807,-4.5807,-4.602,-4.6438,-4.6825,-4.7101,-4.6931,-4.6062,-4.629,-4.7277,-4.658,-4.6981,-4.8008,-4.7866,-4.7575,-4.7023,-4.6259,-4.5398,-4.4618,-4.4116,-4.3801,-4.3188,-4.2195,-4.1241,-4.0715,-3.9512,-3.8645,-3.7915,-3.7734,-3.6794,-3.5042,-3.3442,-3.2257,-3.1737,-3.1538,-3.1462,-3.1254,-3.1232,-3.1232,-3.121,-3.119,-3.1089,-3.0869,-3.0987,-3.0869,-3.048,-3.0277,-3.0078,-2.9281,-2.8336,-2.7912,-2.7457,-2.6847,-2.6479,-2.63,-2.6092,-2.5595,-2.4962,-2.4441,-2.4152,-2.4168,-2.4006,-2.3894,-2.3824,-2.3581,-2.343,-2.3585,-2.322,-2.2788,-2.249,-2.2417,-2.1649,-2.0843,-2.0611,-2.0349,-2.0088,-1.9725,-1.9638,-1.9725,-1.9508,-1.9551,-1.9537,-1.9401,-1.9185,-1.9079,-1.8969,-1.8879,-1.8848,-1.944,-1.9614,-1.9086,-1.8732,-1.8717,-1.8497,-1.8024,-1.7706,-1.7633,-1.7496,-1.7814,-4.7205,-4.6319,-4.6279,-4.6146,-4.6047,-4.6114,-4.6164,-4.6164,-4.6719,-4.6654,-4.6241,-4.6665,-4.6368,-4.5826,-4.5807,-4.5807,-4.5826,-4.6,-4.6689,-4.7154,-4.7502,-4.7619,-4.7989,-4.7232,-4.7289,-4.7741,-4.8211,-4.8143,-4.8337,-4.8819,-4.8566,-4.7575,-4.6706,-4.5985,-4.4968,-4.4302,-4.4042,-4.3689,-4.2556,-4.1713,-4.1186,-4.0011,-3.9091,-3.8674,-3.8267,-3.7804,-3.6427,-3.4778,-3.309,-3.2078,-3.1759,-3.1504,-3.1334,-3.1332,-3.1274,-3.1213,-3.1176,-3.0937,-3.0497,-3.0903,-3.0734,-2.9991,-3.0565,-3.0584,-2.9479,-2.8935,-2.8494,-2.7781,-2.7213,-2.6988,-2.6646,-2.6087,-2.5621,-2.5269,-2.5056,-2.5036,-2.4958,-2.4614,-2.4281,-2.424,-2.3674,-2.3659,-2.3686,-2.3491,-2.2902,-2.3084,-2.2954,-2.2461,-2.1728,-2.1322,-2.0886,-2.0364,-1.9943,-1.9478,-1.9609,-1.9711,-1.9885,-2.0001,-1.9856,-1.9681,-1.9624,-1.9582,-1.9652,-1.9848,-2.0277,-2.0142,-1.96,-1.9434,-1.9575,-1.9188,-1.8729,-1.841,-1.8139,-1.7892,-1.7995,-4.863,-4.7219,-4.7214,-4.6767,-4.6259,-4.6801,-4.7081,-4.7075,-4.7134,-4.7095,-4.6826,-4.6371,-4.6046,-4.5845,-4.5826,-4.5807,-4.6058,-4.6631,-4.7618,-4.8952,-4.8392,-4.8217,-4.804,-4.705,-4.7039,-4.7586,-4.7237,-4.7338,-4.7907,-4.8263,-4.7829,-4.6477,-4.6521,-4.5997,-4.4535,-4.415,-4.4005,-4.3838,-4.2983,-4.2203,-4.1542,-4.0537,-3.9571,-3.8962,-3.8138,-3.7453,-3.6739,-3.5014,-3.4105,-3.3899,-3.277,-3.1826,-3.1623,-3.1457,-3.1366,-3.1254,-3.1213,-3.1106,-3.1021,-3.1038,-3.1106,-3.0717,-3.0463,-3.0209,-2.9956,-2.9297,-2.8653,-2.8094,-2.8179,-2.7922,-2.7341,-2.6665,-2.6148,-2.5864,-2.5826,-2.5844,-2.5733,-2.4989,-2.441,-2.4141,-2.3754,-2.3349,-2.3384,-2.3265,-2.3167,-2.3528,-2.3447,-2.3229,-2.2657,-2.1967,-2.1372,-2.0718,-2.0204,-1.9841,-2.0132,-2.0248,-2.0378,-2.0509,-2.0393,-2.0567,-2.0494,-2.0219,-2.0291,-2.0611,-2.104,-2.0654,-2.0001,-2.0677,-2.0944,-2.0208,-1.9444,-1.9202,-1.8904,-1.8515,-1.8112,-4.8503,-4.6972,-4.6933,-4.6866,-4.6845,-4.7242,-4.7635,-4.7917,-4.789,-4.7635,-4.7247,-4.6657,-4.6467,-4.6416,-4.6054,-4.6167,-4.7115,-4.7889,-4.8295,-4.8546,-4.8237,-4.7947,-4.727,-4.6752,-4.6812,-4.7135,-4.6923,-4.7012,-4.7412,-4.7793,-4.7662,-4.6518,-4.611,-4.549,-4.461,-4.3911,-4.3686,-4.3801,-4.3206,-4.2556,-4.2092,-4.0933,-3.9859,-3.9213,-3.8569,-3.8293,-3.7726,-3.6315,-3.5789,-3.548,-3.4305,-3.2945,-3.2392,-3.2193,-3.1924,-3.1325,-3.1213,-3.119,-3.119,-3.119,-3.1173,-3.121,-3.0801,-3.07,-3.0328,-2.9651,-2.8891,-2.8467,-2.8348,-2.8125,-2.7627,-2.6852,-2.6395,-2.6239,-2.6185,-2.6185,-2.6043,-2.54,-2.4843,-2.4668,-2.4364,-2.4006,-2.3745,-2.3487,-2.3423,-2.3777,-2.3327,-2.3072,-2.2637,-2.2002,-2.1653,-2.1079,-2.0515,-2.034,-2.0689,-2.0843,-2.0915,-2.1003,-2.1003,-2.1409,-2.1721,-2.133,-2.0944,-2.1206,-2.138,-2.0901,-2.0524,-2.138,-2.1641,-2.0602,-1.9924,-1.991,-1.978,-1.9442,-1.8882,-4.814,-4.6489,-4.6495,-4.6894,-4.7492,-4.7659,-4.807,-4.8563,-4.8636,-4.8224,-4.759,-4.7276,-4.6877,-4.6998,-4.6465,-4.7075,-4.837,-4.9068,-4.8991,-4.8198,-4.8295,-4.7637,-4.6767,-4.6748,-4.6752,-4.6136,-4.6629,-4.6934,-4.6883,-4.7212,-4.7122,-4.6767,-4.5546,-4.4638,-4.4543,-4.3631,-4.3007,-4.35,-4.3113,-4.276,-4.2612,-4.1497,-4.0459,-3.949,-3.9275,-3.9151,-3.8456,-3.7523,-3.7053,-3.7182,-3.6181,-3.5008,-3.4076,-3.3438,-3.2942,-3.1741,-3.176,-3.1675,-3.1519,-3.137,-3.131,-3.1271,-3.1193,-3.1157,-3.0852,-3.0209,-2.9568,-2.8924,-2.8549,-2.7803,-2.756,-2.6834,-2.6377,-2.6205,-2.6185,-2.6185,-2.6115,-2.5811,-2.5556,-2.5313,-2.4843,-2.4431,-2.4348,-2.42,-2.4082,-2.3898,-2.3437,-2.3046,-2.2694,-2.2297,-2.2035,-2.1272,-2.0619,-2.05,-2.0834,-2.1699,-2.1743,-2.1656,-2.167,-2.2011,-2.2548,-2.2229,-2.175,-2.1489,-2.1438,-2.1119,-2.1104,-2.167,-2.154,-2.0654,-2.0605,-2.0806,-2.0654,-2.0324,-1.9715,-4.9565,-4.7386,-4.7392,-4.7477,-4.7676,-4.8339,-4.8689,-4.8824,-4.8782,-4.8693,-4.8357,-4.7015,-4.682,-4.7206,-4.7284,-4.8064,-4.9147,-4.964,-4.9524,-4.8897,-4.8658,-4.7736,-4.7018,-4.6922,-4.6941,-4.6965,-4.6997,-4.6708,-4.6378,-4.6572,-4.6263,-4.505,-4.4952,-4.45,-4.3107,-4.2238,-4.2651,-4.3193,-4.304,-4.2988,-4.2839,-4.2422,-4.1379,-4.0034,-3.9571,-3.9128,-3.8703,-3.7973,-3.7711,-3.8245,-3.7574,-3.6835,-3.6082,-3.5259,-3.4341,-3.3441,-3.2983,-3.263,-3.2211,-3.1803,-3.1657,-3.1545,-3.1428,-3.1269,-3.1164,-3.0942,-3.0419,-2.9683,-2.8682,-2.7734,-2.7577,-2.7051,-2.6443,-2.6289,-2.6352,-2.6351,-2.6316,-2.6195,-2.5979,-2.5718,-2.5245,-2.4862,-2.4885,-2.4878,-2.4777,-2.4702,-2.452,-2.4219,-2.3945,-2.3347,-2.2799,-2.178,-2.064,-2.0706,-2.0907,-2.2033,-2.262,-2.2461,-2.2417,-2.2417,-2.2757,-2.2801,-2.2577,-2.2171,-2.1997,-2.191,-2.2011,-2.2113,-2.1931,-2.1438,-2.1583,-2.1772,-2.1388,-2.0976,-2.0521,-4.9503,-4.7653,-4.7601,-4.7608,-4.777,-4.8514,-4.8886,-4.8887,-4.8864,-4.8861,-4.8464,-4.7522,-4.7555,-4.8329,-4.8165,-4.8534,-4.9187,-5.0217,-4.991,-4.922,-4.8626,-4.7979,-4.7168,-4.7083,-4.6767,-4.6689,-4.6791,-4.6916,-4.6426,-4.6265,-4.5556,-4.4727,-4.4863,-4.4198,-4.3016,-4.3233,-4.3208,-4.3356,-4.3437,-4.3608,-4.3505,-4.3159,-4.1895,-4.0544,-3.9797,-3.9335,-3.8752,-3.8501,-3.833,-3.8524,-3.8322,-3.8031,-3.7624,-3.7071,-3.6034,-3.4675,-3.3917,-3.3424,-3.2897,-3.2441,-3.2074,-3.2003,-3.1841,-3.1786,-3.1711,-3.1532,-3.127,-3.0537,-2.9379,-2.8476,-2.8732,-2.7957,-2.7563,-2.7367,-2.728,-2.7263,-2.7214,-2.6984,-2.6652,-2.6318,-2.6007,-2.5737,-2.5503,-2.5483,-2.5417,-2.5428,-2.5456,-2.5257,-2.5035,-2.4514,-2.3837,-2.3435,-2.2514,-2.2321,-2.2333,-2.2754,-2.3368,-2.3228,-2.2941,-2.2941,-2.291,-2.2918,-2.2838,-2.2606,-2.2548,-2.2475,-2.233,-2.2243,-2.2236,-2.2251,-2.2272,-2.2229,-2.1968,-2.1613,-2.1172,-4.9265,-4.7606,-4.7616,-4.7605,-4.7747,-4.8532,-4.8769,-4.8691,-4.8828,-4.875,-4.8535,-4.7923,-4.8285,-4.9329,-4.9418,-4.9247,-4.9257,-5.0704,-5.0096,-4.887,-4.8502,-4.7965,-4.7133,-4.7013,-4.6941,-4.698,-4.7154,-4.7158,-4.6534,-4.6113,-4.5398,-4.5034,-4.5151,-4.4708,-4.3823,-4.4254,-4.4307,-4.4209,-4.4215,-4.4474,-4.4242,-4.347,-4.2228,-4.0694,-4.0387,-3.98,-3.894,-3.8752,-3.8655,-3.8686,-3.8652,-3.8655,-3.8655,-3.8575,-3.7584,-3.5825,-3.4779,-3.4249,-3.3664,-3.3243,-3.2785,-3.2488,-3.2527,-3.2546,-3.2529,-3.2397,-3.2115,-3.1575,-3.0362,-2.9593,-2.976,-2.9168,-2.8619,-2.8389,-2.8279,-2.8345,-2.8111,-2.7862,-2.758,-2.7224,-2.6884,-2.6574,-2.6332,-2.5947,-2.5859,-2.5902,-2.5935,-2.5753,-2.555,-2.5545,-2.516,-2.5298,-2.49,-2.4483,-2.4201,-2.3778,-2.4052,-2.3896,-2.3407,-2.3105,-2.3031,-2.2978,-2.2897,-2.2868,-2.2786,-2.2707,-2.2533,-2.2446,-2.2504,-2.2591,-2.2751,-2.2671,-2.2395,-2.2214,-2.1888,-4.9831,-4.7608,-4.7616,-4.7603,-4.7707,-4.8473,-4.8417,-4.789,-4.8515,-4.8436,-4.787,-4.7773,-4.8223,-4.9257,-5.0508,-5.0842,-5.0947,-5.092,-5.0337,-4.8943,-4.8643,-4.7892,-4.656,-4.6842,-4.7354,-4.7463,-4.7889,-4.7286,-4.6646,-4.6159,-4.5746,-4.5566,-4.5717,-4.5368,-4.4872,-4.5443,-4.4979,-4.4808,-4.4812,-4.4814,-4.4594,-4.3894,-4.285,-4.1843,-4.0937,-4.0061,-3.9133,-3.8921,-3.8803,-3.8716,-3.8704,-3.8707,-3.8673,-3.8593,-3.8457,-3.7908,-3.7192,-3.6147,-3.4966,-3.4202,-3.3759,-3.3378,-3.3377,-3.3406,-3.3547,-3.3628,-3.3571,-3.3626,-3.1988,-3.09,-3.0726,-2.9664,-2.8927,-2.8715,-2.8824,-2.8719,-2.8547,-2.8597,-2.8331,-2.8144,-2.7779,-2.7415,-2.7121,-2.6658,-2.6294,-2.6346,-2.636,-2.6205,-2.624,-2.6358,-2.6314,-2.6371,-2.6442,-2.6061,-2.5515,-2.5167,-2.4882,-2.4657,-2.4194,-2.3607,-2.3533,-2.3503,-2.3111,-2.3074,-2.3015,-2.2963,-2.2863,-2.2811,-2.2846,-2.283,-2.283,-2.2859,-2.283,-2.2664,-2.2446,-4.9013,-4.7627,-4.7611,-4.7305,-4.6999,-4.7804,-4.7671,-4.7165,-4.777,-4.7966,-4.7772,-4.8162,-4.9042,-5.0234,-5.1149,-5.1049,-5.0852,-5.1073,-5.0644,-4.9558,-4.915,-4.8574,-4.7675,-4.7217,-4.7412,-4.771,-4.7715,-4.7753,-4.7151,-4.7102,-4.6851,-4.605,-4.6981,-4.6968,-4.6244,-4.6973,-4.6493,-4.581,-4.5188,-4.4992,-4.4659,-4.4023,-4.3154,-4.2233,-4.1366,-4.044,-3.9645,-3.9178,-3.9036,-3.8927,-3.8818,-3.8707,-3.8692,-3.8658,-3.8609,-3.8554,-3.8266,-3.7421,-3.6289,-3.5263,-3.4755,-3.4754,-3.4801,-3.4979,-3.4994,-3.4835,-3.4844,-3.4969,-3.3876,-3.2884,-3.2186,-3.144,-3.068,-3.0205,-2.9861,-2.9797,-2.9638,-2.919,-2.9054,-2.8862,-2.8641,-2.8246,-2.7831,-2.7379,-2.678,-2.6328,-2.6585,-2.6775,-2.7133,-2.7668,-2.7522,-2.732,-2.7384,-2.7356,-2.6734,-2.6226,-2.5886,-2.5659,-2.5425,-2.4897,-2.4439,-2.4193,-2.377,-2.3445,-2.3363,-2.3282,-2.3157,-2.3016,-2.2881,-2.2873,-2.2888,-2.2888,-2.2888,-2.2859,-2.2606,-4.8037,-4.7274,-4.7274,-4.7008,-4.6683,-4.7329,-4.7254,-4.679,-4.7609,-4.7825,-4.7867,-4.8512,-4.9784,-5.0996,-5.1094,-5.0742,-5.0293,-5.084,-5.0467,-4.998,-4.9591,-4.9149,-4.8431,-4.7822,-4.7676,-4.7739,-4.8166,-4.8268,-4.8604,-4.8709,-4.8195,-4.6804,-4.8381,-4.8521,-4.8022,-4.841,-4.8556,-4.6604,-4.5697,-4.5281,-4.4971,-4.45,-4.3694,-4.2878,-4.2104,-4.1358,-4.0473,-3.9938,-3.9714,-3.961,-3.9101,-3.8892,-3.8829,-3.8758,-3.8719,-3.8615,-3.8365,-3.8041,-3.7262,-3.6522,-3.5915,-3.5929,-3.6245,-3.6262,-3.6624,-3.6182,-3.5847,-3.6194,-3.5321,-3.4414,-3.3772,-3.3398,-3.2555,-3.1916,-3.1487,-3.1416,-3.123,-3.067,-3.0356,-3.0381,-2.9951,-2.8915,-2.8517,-2.8097,-2.7412,-2.6551,-2.6634,-2.7133,-2.7836,-2.8507,-2.8672,-2.8414,-2.8399,-2.8383,-2.7891,-2.7365,-2.7011,-2.665,-2.6413,-2.59,-2.5306,-2.4824,-2.4421,-2.41,-2.3808,-2.3465,-2.329,-2.3061,-2.2888,-2.2888,-2.2888,-2.2888,-2.2888,-2.2888,-2.2815,-4.7178,-4.6378,-4.6436,-4.6851,-4.7443,-4.7562,-4.7546,-4.7568,-4.8365,-4.8266,-4.7878,-4.8584,-4.9878,-5.0799,-5.0644,-5.0331,-5.0213,-5.0254,-4.9961,-4.9432,-4.8914,-4.9025,-4.8736,-4.867,-4.872,-4.9285,-4.9235,-4.9304,-4.9732,-5.0104,-4.9865,-4.9586,-4.96,-4.9958,-4.9864,-4.9742,-4.9369,-4.7587,-4.6354,-4.5596,-4.5475,-4.5236,-4.4777,-4.4028,-4.3701,-4.3274,-4.2136,-4.1302,-4.0733,-4.0606,-3.9812,-3.917,-3.9055,-3.8873,-3.8777,-3.8643,-3.826,-3.8138,-3.7961,-3.7488,-3.6905,-3.6574,-3.669,-3.7273,-3.767,-3.7541,-3.738,-3.7184,-3.6433,-3.5804,-3.5322,-3.495,-3.4069,-3.3132,-3.2601,-3.2493,-3.2275,-3.1968,-3.1737,-3.189,-3.1246,-3.0106,-2.9264,-2.884,-2.7812,-2.6882,-2.6651,-2.7133,-2.8191,-2.8916,-2.9484,-2.9567,-2.9501,-2.9333,-2.897,-2.848,-2.7913,-2.7587,-2.7378,-2.6634,-2.5861,-2.5447,-2.5483,-2.4606,-2.4253,-2.3801,-2.3428,-2.3348,-2.3209,-2.2978,-2.2888,-2.2888,-2.2888,-2.2888,-2.2888,-4.7287,-4.6981,-4.7069,-4.7297,-4.7553,-4.7027,-4.7401,-4.8202,-4.8179,-4.8278,-4.844,-4.9267,-4.97,-4.9898,-5.0231,-5.0133,-5.0132,-5.0152,-5.0153,-5.0195,-4.9935,-4.9589,-4.9376,-4.9132,-4.9005,-4.9725,-4.9887,-5.0183,-5.0597,-5.0875,-5.0773,-5.0488,-5.0329,-5.0505,-5.0604,-4.9986,-4.8996,-4.8172,-4.672,-4.5731,-4.5657,-4.5565,-4.5155,-4.4295,-4.4181,-4.3703,-4.2833,-4.2273,-4.1724,-4.1138,-4.0415,-3.9808,-3.9304,-3.9045,-3.8892,-3.8807,-3.8402,-3.8434,-3.8462,-3.8062,-3.7503,-3.7741,-3.7815,-3.8008,-3.8287,-3.8036,-3.795,-3.7736,-3.7505,-3.6934,-3.6167,-3.5829,-3.5226,-3.4146,-3.3652,-3.3599,-3.3369,-3.31,-3.289,-3.2921,-3.2104,-3.1025,-3.0294,-2.9615,-2.8406,-2.7282,-2.7133,-2.7216,-2.8155,-2.9055,-2.9526,-2.9837,-2.9734,-2.9633,-2.9257,-2.8953,-2.8679,-2.8469,-2.8212,-2.7532,-2.6823,-2.7108,-2.6904,-2.5827,-2.48,-2.4487,-2.4143,-2.3799,-2.3516,-2.3209,-2.2986,-2.2888,-2.2888,-2.2955,-2.3023,-4.696,-4.6968,-4.7057,-4.7292,-4.7506,-4.7198,-4.7686,-4.8603,-4.8545,-4.8644,-4.9296,-4.985,-4.9814,-4.9502,-4.9485,-4.9951,-4.9932,-4.9913,-5.0306,-5.035,-5.0234,-5.021,-5.0105,-4.9996,-4.9961,-5.0249,-5.0332,-5.0672,-5.1001,-5.1093,-5.1031,-5.0966,-5.097,-5.0949,-5.0549,-4.9544,-4.8601,-4.7981,-4.7301,-4.6045,-4.5902,-4.5907,-4.5603,-4.4797,-4.4491,-4.4318,-4.3593,-4.2957,-4.2192,-4.1646,-4.0981,-4.016,-3.9671,-3.9305,-3.9105,-3.9013,-3.8931,-3.8862,-3.8637,-3.8352,-3.8086,-3.8318,-3.8332,-3.8362,-3.8338,-3.8274,-3.8174,-3.8158,-3.8086,-3.7818,-3.6896,-3.6878,-3.6431,-3.5471,-3.5347,-3.5258,-3.4712,-3.4359,-3.4083,-3.3883,-3.3003,-3.2269,-3.1076,-3.0264,-2.8732,-2.7661,-2.7249,-2.7265,-2.7744,-2.859,-2.9284,-2.9533,-2.9615,-2.9492,-2.9364,-2.9078,-2.8861,-2.8877,-2.8642,-2.8444,-2.8113,-2.8252,-2.7652,-2.6167,-2.5358,-2.515,-2.4671,-2.4085,-2.3689,-2.3385,-2.3275,-2.3253,-2.3341,-2.3466,-2.34,-4.5982,-4.5924,-4.6012,-4.6625,-4.7537,-4.8386,-4.8718,-4.9052,-4.9657,-4.995,-4.9971,-5.0136,-5.0061,-4.9808,-4.9381,-4.9635,-4.9906,-4.95,-4.9657,-5.0264,-5.0288,-5.06,-5.0914,-5.0957,-5.0642,-5.1145,-5.1119,-5.1061,-5.1193,-5.1206,-5.1187,-5.1178,-5.1133,-5.1064,-5.0852,-5.0086,-4.922,-4.8435,-4.8195,-4.7047,-4.6293,-4.6345,-4.5945,-4.5458,-4.4853,-4.4737,-4.4376,-4.3302,-4.2586,-4.2274,-4.1132,-4.0383,-4.0017,-3.9713,-3.9537,-3.9433,-3.9227,-3.9129,-3.9069,-3.8796,-3.868,-3.8621,-3.8544,-3.8462,-3.8401,-3.8338,-3.8274,-3.8224,-3.8189,-3.8191,-3.8066,-3.7977,-3.733,-3.6829,-3.6651,-3.6349,-3.5768,-3.5633,-3.5363,-3.489,-3.4385,-3.3669,-3.2233,-3.0825,-2.9171,-2.8077,-2.7524,-2.745,-2.7632,-2.8124,-2.8854,-2.9146,-2.9275,-2.9277,-2.9173,-2.915,-2.9067,-2.9114,-2.9035,-2.8783,-2.8584,-2.8442,-2.7583,-2.6346,-2.5932,-2.5717,-2.5009,-2.4234,-2.4073,-2.3952,-2.3839,-2.3812,-2.3897,-2.3876,-2.3747,-4.5835,-4.5886,-4.6494,-4.6645,-4.6633,-4.7483,-4.8513,-4.9692,-5.0496,-5.0631,-5.0319,-5.0656,-5.019,-4.9604,-4.9664,-4.984,-4.9975,-5.0014,-5.0152,-5.0785,-5.0435,-5.0712,-5.1064,-5.1008,-5.0913,-5.1248,-5.1347,-5.1327,-5.1281,-5.1279,-5.1227,-5.1219,-5.1218,-5.1152,-5.0843,-5.0225,-4.944,-4.9046,-4.8211,-4.7137,-4.665,-4.6356,-4.6045,-4.5695,-4.5271,-4.5043,-4.4863,-4.3566,-4.297,-4.2473,-4.1213,-4.0701,-4.0263,-3.9931,-3.9769,-3.9667,-3.9495,-3.9464,-3.9337,-3.911,-3.8877,-3.8762,-3.8609,-3.851,-3.8481,-3.8401,-3.832,-3.8272,-3.8257,-3.8241,-3.8172,-3.8156,-3.7706,-3.7235,-3.6984,-3.6731,-3.6418,-3.6683,-3.6611,-3.5931,-3.5357,-3.4688,-3.3536,-3.1865,-3.0169,-2.8743,-2.8107,-2.7398,-2.7358,-2.7762,-2.8354,-2.8673,-2.8859,-2.8946,-2.8965,-2.9016,-2.9082,-2.9114,-2.9114,-2.9019,-2.883,-2.8593,-2.7898,-2.6856,-2.6556,-2.6251,-2.5311,-2.4605,-2.4686,-2.4609,-2.4364,-2.4172,-2.413,-2.4067,-2.3955,-4.5719,-4.5812,-4.6376,-4.6539,-4.649,-4.767,-4.9122,-5.0444,-5.1057,-5.085,-5.0414,-5.0965,-5.0653,-4.9794,-4.9811,-5.0397,-5.0475,-5.0202,-5.0575,-5.1229,-5.0876,-5.1016,-5.1058,-5.0885,-5.104,-5.1313,-5.1394,-5.1382,-5.1347,-5.1327,-5.1302,-5.1281,-5.1241,-5.1225,-5.0967,-5.0542,-5.0033,-4.9644,-4.8873,-4.8133,-4.7403,-4.6781,-4.6383,-4.5811,-4.5362,-4.5068,-4.4619,-4.394,-4.3124,-4.2217,-4.1505,-4.0908,-4.0385,-4.0158,-4.0002,-3.9989,-3.981,-3.9709,-3.9477,-3.9357,-3.9165,-3.9045,-3.8755,-3.8556,-3.851,-3.8446,-3.8387,-3.834,-3.8323,-3.8257,-3.8225,-3.8209,-3.8028,-3.7557,-3.7466,-3.7214,-3.722,-3.7487,-3.7417,-3.6755,-3.636,-3.5657,-3.4744,-3.2992,-3.1268,-2.9953,-2.8716,-2.7908,-2.7218,-2.7644,-2.7958,-2.8159,-2.8674,-2.9005,-2.9051,-2.9016,-2.9051,-2.9114,-2.9114,-2.9075,-2.8909,-2.8647,-2.7993,-2.733,-2.6672,-2.6025,-2.5372,-2.4966,-2.4906,-2.4826,-2.4686,-2.4503,-2.438,-2.4317,-2.4255,-4.5594,-4.5586,-4.5586,-4.6177,-4.7166,-4.8806,-5.0208,-5.1137,-5.118,-5.0807,-5.0232,-5.1069,-5.0869,-5.025,-5.0174,-5.0581,-5.1028,-5.0482,-5.0798,-5.1195,-5.1197,-5.1357,-5.1359,-5.1301,-5.1263,-5.132,-5.1398,-5.1387,-5.1391,-5.1379,-5.1364,-5.1367,-5.1334,-5.1301,-5.1185,-5.0996,-5.0567,-5.0206,-4.9873,-4.8909,-4.783,-4.7606,-4.6842,-4.607,-4.5264,-4.5109,-4.4556,-4.3607,-4.2852,-4.2104,-4.1442,-4.0827,-4.0492,-4.0487,-4.0491,-4.0379,-4.01,-3.9867,-3.966,-3.9592,-3.9526,-3.9389,-3.9031,-3.8773,-3.8664,-3.8707,-3.8631,-3.8528,-3.8449,-3.8322,-3.8242,-3.8225,-3.8209,-3.8082,-3.8082,-3.8011,-3.7994,-3.8002,-3.7898,-3.7613,-3.7417,-3.6789,-3.5825,-3.4233,-3.2213,-3.0855,-2.9471,-2.7997,-2.747,-2.7721,-2.7912,-2.7728,-2.829,-2.9113,-2.915,-2.8889,-2.9018,-2.9065,-2.9098,-2.9082,-2.8893,-2.8616,-2.7952,-2.7257,-2.6467,-2.5772,-2.5207,-2.5005,-2.4985,-2.4906,-2.4826,-2.4806,-2.4666,-2.4746,-2.4746,-4.5467,-4.5457,-4.5523,-4.6049,-4.7045,-4.8778,-5.0114,-5.0964,-5.1058,-5.0884,-5.0753,-5.1097,-5.1016,-5.0758,-5.0837,-5.0981,-5.1,-5.1008,-5.1053,-5.1226,-5.1327,-5.1367,-5.1392,-5.1371,-5.1392,-5.1394,-5.1394,-5.1396,-5.1402,-5.1385,-5.1393,-5.1383,-5.1387,-5.1366,-5.128,-5.1271,-5.0986,-5.0707,-5.0481,-4.9498,-4.8358,-4.7911,-4.706,-4.6132,-4.5561,-4.537,-4.4592,-4.3567,-4.2811,-4.2063,-4.1166,-4.0535,-4.0489,-4.05,-4.0495,-4.0432,-4.0271,-4.0139,-4.0049,-3.9892,-3.9804,-3.9758,-3.9464,-3.9318,-3.9227,-3.9132,-3.9004,-3.8763,-3.8554,-3.843,-3.8272,-3.8242,-3.8209,-3.8209,-3.8209,-3.8192,-3.8175,-3.8158,-3.8073,-3.8003,-3.7828,-3.747,-3.6559,-3.5012,-3.3055,-3.1707,-3.0262,-2.8708,-2.7721,-2.7927,-2.7858,-2.7632,-2.8033,-2.8874,-2.8778,-2.8517,-2.8828,-2.9039,-2.915,-2.9182,-2.9,-2.862,-2.7911,-2.7036,-2.6072,-2.5523,-2.5096,-2.5005,-2.5005,-2.5005,-2.4946,-2.4966,-2.5005,-2.5005,-2.4985,-4.541,-4.541,-4.5438,-4.6158,-4.7473,-4.9105,-5.0238,-5.077,-5.0905,-5.0985,-5.0996,-5.1079,-5.1069,-5.1,-5.1035,-5.1059,-5.0992,-5.1021,-5.1089,-5.1107,-5.1211,-5.1255,-5.1294,-5.1308,-5.1338,-5.1364,-5.1394,-5.1394,-5.1398,-5.1385,-5.1393,-5.1395,-5.1401,-5.1188,-5.1055,-5.109,-5.1097,-5.0811,-5.0462,-4.9893,-4.9064,-4.8163,-4.7354,-4.6518,-4.6147,-4.5537,-4.4957,-4.393,-4.2953,-4.2242,-4.133,-4.0516,-4.0496,-4.0489,-4.0503,-4.0449,-4.037,-4.0298,-4.0215,-4.0138,-4.0068,-4.0017,-3.9911,-3.9848,-3.9635,-3.9458,-3.9181,-3.8886,-3.87,-3.852,-3.8368,-3.8241,-3.8225,-3.8209,-3.8209,-3.8209,-3.8192,-3.8192,-3.8175,-3.8141,-3.7969,-3.7739,-3.6773,-3.5296,-3.397,-3.2687,-3.1251,-2.9682,-2.8534,-2.8066,-2.7876,-2.7595,-2.805,-2.8658,-2.8458,-2.8572,-2.9058,-2.9409,-2.9496,-2.9451,-2.9188,-2.837,-2.746,-2.6514,-2.5571,-2.5247,-2.51,-2.5005,-2.5005,-2.5005,-2.5005,-2.5005,-2.5005,-2.5005,-2.4985,-4.518,-4.518,-4.5429,-4.6474,-4.8103,-4.9724,-5.0483,-5.0542,-5.0763,-5.0898,-5.0919,-5.0979,-5.0966,-5.0932,-5.0966,-5.0979,-5.0953,-5.0966,-5.101,-5.0996,-5.1047,-5.1113,-5.1178,-5.1195,-5.1214,-5.1325,-5.1386,-5.1342,-5.1396,-5.1402,-5.1387,-5.1389,-5.1395,-5.1184,-5.0856,-5.0937,-5.0839,-5.0483,-5.0375,-5.0085,-4.9507,-4.887,-4.8135,-4.7196,-4.6508,-4.5901,-4.5505,-4.4569,-4.3309,-4.2737,-4.1859,-4.0826,-4.0516,-4.0496,-4.0503,-4.0491,-4.0441,-4.037,-4.0326,-4.0272,-4.0272,-4.0282,-4.032,-4.0215,-3.9994,-3.9781,-3.9489,-3.9236,-3.9077,-3.8886,-3.8715,-3.851,-3.8401,-3.8385,-3.8403,-3.8354,-3.8305,-3.8274,-3.8192,-3.8141,-3.8003,-3.7757,-3.7291,-3.5846,-3.4623,-3.3495,-3.2002,-3.039,-2.9647,-2.8797,-2.8132,-2.7777,-2.7877,-2.8395,-2.8906,-2.9101,-2.9549,-2.9827,-2.9923,-2.9935,-2.9832,-2.8554,-2.6909,-2.6455,-2.6092,-2.5499,-2.5229,-2.5182,-2.5107,-2.5005,-2.5005,-2.5005,-2.5005,-2.5005,-2.4985,-4.3407,-4.3617,-4.5494,-4.6989,-4.8161,-4.9771,-5.05,-5.0511,-5.0565,-5.0615,-5.0635,-5.0713,-5.0758,-5.0736,-5.0816,-5.0832,-5.0814,-5.0871,-5.092,-5.0925,-5.0953,-5.0997,-5.1042,-5.1053,-5.1093,-5.1123,-5.1195,-5.1274,-5.1335,-5.1369,-5.1398,-5.1398,-5.1387,-5.116,-5.0732,-5.0776,-5.0389,-4.9902,-4.9587,-4.9496,-4.9087,-4.823,-4.7379,-4.6762,-4.6159,-4.6092,-4.5682,-4.5033,-4.4446,-4.4045,-4.2546,-4.1422,-4.0589,-4.0523,-4.0492,-4.0491,-4.0482,-4.0422,-4.0353,-4.0308,-4.0309,-4.032,-4.031,-4.032,-4.0244,-4.0096,-3.9903,-3.9656,-3.9445,-3.9223,-3.9008,-3.8789,-3.8615,-3.86,-3.8603,-3.851,-3.8415,-3.8338,-3.8259,-3.8158,-3.8038,-3.7737,-3.7381,-3.6559,-3.5295,-3.3829,-3.2194,-3.0931,-3.0634,-2.9945,-2.8831,-2.8308,-2.7687,-2.8062,-2.8831,-2.9479,-2.9875,-3.0266,-3.0456,-3.0448,-3.0419,-2.9304,-2.8065,-2.7408,-2.6875,-2.6262,-2.574,-2.5457,-2.5346,-2.515,-2.5048,-2.5088,-2.5025,-2.5005,-2.5005,-4.2794,-4.308,-4.5118,-4.6985,-4.8509,-4.9505,-5.006,-5.0385,-5.0424,-5.0404,-5.0446,-5.0536,-5.0567,-5.0532,-5.0645,-5.0692,-5.0683,-5.0776,-5.0801,-5.0822,-5.0859,-5.0908,-5.0925,-5.094,-5.0984,-5.1014,-5.1063,-5.1155,-5.1108,-5.1291,-5.1319,-5.1249,-5.1267,-5.0972,-5.0508,-5.0049,-4.9701,-4.9,-4.8534,-4.8359,-4.832,-4.7731,-4.7375,-4.686,-4.6465,-4.6289,-4.5872,-4.5294,-4.4663,-4.3847,-4.2304,-4.1391,-4.0738,-4.0661,-4.061,-4.0579,-4.0527,-4.0492,-4.0394,-4.0334,-4.0326,-4.0318,-4.031,-4.031,-4.032,-4.0176,-4.0057,-3.9799,-3.9463,-3.9218,-3.9171,-3.8966,-3.8872,-3.8847,-3.8796,-3.8728,-3.8664,-3.8637,-3.8609,-3.8578,-3.8449,-3.8267,-3.7938,-3.7698,-3.6415,-3.5189,-3.3406,-3.2157,-3.1753,-3.119,-3.0031,-2.9072,-2.8561,-2.8516,-2.9297,-2.9781,-3.0053,-3.0462,-3.0819,-3.0586,-3.0308,-2.9937,-2.93,-2.8399,-2.7605,-2.7,-2.6535,-2.6014,-2.5594,-2.5368,-2.5269,-2.5208,-2.5127,-2.5088,-2.5088,-4.2679,-4.3023,-4.4475,-4.65,-4.8613,-4.8919,-4.9301,-4.9882,-5.0073,-5.0015,-4.9924,-5.012,-5.0312,-5.0438,-5.05,-5.0542,-5.0594,-5.0654,-5.0664,-5.0683,-5.0693,-5.0738,-5.0797,-5.0839,-5.0724,-5.0641,-5.0623,-5.0511,-5.0386,-5.0461,-5.0529,-5.0833,-5.066,-5.0269,-4.9421,-4.9116,-4.902,-4.8129,-4.7628,-4.7478,-4.744,-4.7441,-4.7285,-4.7031,-4.6777,-4.6348,-4.6016,-4.5558,-4.4662,-4.3558,-4.2338,-4.138,-4.0874,-4.0761,-4.0718,-4.0648,-4.0642,-4.0575,-4.0469,-4.0389,-4.0339,-4.0325,-4.0328,-4.032,-4.032,-4.0263,-4.0147,-3.9967,-3.9614,-3.9463,-3.9389,-3.9244,-3.9171,-3.9095,-3.9041,-3.895,-3.8935,-3.8906,-3.8877,-3.8877,-3.877,-3.8615,-3.8457,-3.8245,-3.7511,-3.6309,-3.5226,-3.4111,-3.3105,-3.238,-3.1462,-3.0538,-2.9865,-2.9941,-2.9928,-3.0142,-3.0387,-3.0473,-3.0738,-3.0485,-3.0374,-3.0539,-3.0181,-2.901,-2.8276,-2.7835,-2.7086,-2.6443,-2.6025,-2.5719,-2.5596,-2.5572,-2.5478,-2.5422,-2.5304,-4.2163,-4.2889,-4.3864,-4.5316,-4.6978,-4.7723,-4.8132,-4.8372,-4.8984,-4.8965,-4.8552,-4.9102,-4.966,-5.0344,-5.0404,-5.0438,-5.0521,-5.0542,-5.0542,-5.0542,-5.0582,-5.0565,-5.049,-5.0375,-5.0171,-5.0066,-4.9885,-4.9449,-4.9497,-4.925,-4.9035,-4.9197,-4.909,-4.8894,-4.8727,-4.8394,-4.792,-4.7231,-4.6829,-4.6627,-4.6537,-4.6543,-4.6543,-4.6445,-4.6406,-4.6308,-4.6211,-4.6133,-4.5525,-4.448,-4.2945,-4.1675,-4.1085,-4.0839,-4.08,-4.0772,-4.0752,-4.0701,-4.061,-4.0523,-4.0472,-4.0419,-4.0419,-4.0363,-4.0354,-4.0336,-4.0262,-4.0244,-4.001,-4.0019,-3.9927,-3.9671,-3.9536,-3.9477,-3.9414,-3.9251,-3.9142,-3.9064,-3.8979,-3.8979,-3.895,-3.8815,-3.8643,-3.8486,-3.8342,-3.7288,-3.6561,-3.5491,-3.4794,-3.3855,-3.2739,-3.197,-3.11,-3.0445,-3.0082,-3.0486,-3.0733,-3.075,-3.082,-3.0958,-3.1216,-3.1707,-3.1168,-3.0091,-2.9334,-2.8836,-2.8015,-2.7316,-2.6601,-2.6322,-2.6083,-2.5944,-2.5854,-2.5762,-2.5668]},{"header":{"parameterUnit":"m.s-1","parameterCategory":1,"la1":31.0,"la2":29.5877,"lo1":-88.7671,"lo2":-86.6584,"dy":0.0162,"dx":0.0185,"nx":115,"ny":88,"refTime":"2023-06-29T18:00:00:Z","depth":0,"parameterNumber":3,"parameterNumberName":"V-component_of_WINDS"},"data":[0.0,0.0,0.0,0.0,0.0,0.0,0.0,0.0,0.0,0.0,0.0,0.0,0.0,0.0,0.0,0.0,0.0,0.0,0.0,0.0,0.0,0.0,0.0,0.0,0.0,0.0,0.0,0.0,0.0,0.0,0.0,0.0,0.0,0.0,0.0,0.0,0.0,0.0,0.0,0.0,0.0,0.0,0.0,0.0,0.0,0.0,0.0,0.0,0.0,0.0,0.0,0.0,0.0,0.0,0.0,0.0,0.0,0.0,0.0,0.0,0.0,0.0,0.0,0.0,0.0,0.0,0.0,0.0,0.0,0.0,0.0,0.0,0.0,0.0,0.0,0.0,0.0,0.0,0.0,0.0,0.0,0.0,0.0,0.0,0.0,0.0,0.0,0.0,0.0,0.0,0.0,0.0,0.0,0.0,0.0,0.0,0.0,0.0,0.0,0.0,0.0,0.0,0.0,0.0,0.0,0.0,0.0,0.0,0.0,0.0,0.0,0.0,0.0,0.0,0.0,0.0,0.0,0.0,0.0,0.0,0.0,0.0,0.0,0.0,0.0,0.0,0.0,0.0,0.0,0.0,0.0,0.0,0.0,0.0,0.0,0.0,0.0,0.0,0.0,0.0,0.0,0.0,0.0,0.0,0.0,0.0,0.0,0.0,0.0,0.0,0.0,0.0,0.0,0.0,0.0,0.0,0.0,0.0,0.0,0.0,0.0,0.0,0.0,0.0,0.0,0.0,0.0,0.0,0.0,0.0,0.0,0.0,0.0,0.0,0.0,0.0,0.0,0.0,0.0,0.0,0.0,0.0,0.0,0.0,0.0,0.0,0.0,0.0,0.0,0.0,0.0,0.0,0.0,0.0,0.0,0.0,0.0,0.0,0.0,0.0,0.0,0.0,0.0,0.0,0.0,0.0,0.0,0.0,0.0,0.0,0.0,0.0,0.0,0.0,0.0,0.0,0.0,0.0,0.0,0.0,0.0,0.0,0.0,0.0,0.0,0.0,0.0,0.0,0.0,0.0,0.0,0.0,0.0,0.0,0.0,0.0,0.0,0.0,0.0,0.0,0.0,0.0,0.0,0.0,0.0,0.0,0.0,0.0,0.0,0.0,0.0,0.0,0.0,0.0,0.0,0.0,0.0,0.0,0.0,0.0,0.0,0.0,0.0,0.0,0.0,0.0,0.0,0.0,0.0,0.0,0.0,0.0,0.0,0.0,0.0,0.0,0.0,0.0,0.0,0.0,0.0,0.0,0.0,0.0,0.0,0.0,0.0,0.0,0.0,0.0,0.0,0.0,0.0,0.0,0.0,0.0,0.0,0.0,0.0,0.0,0.0,0.0,0.0,0.0,0.0,0.0,0.0,0.0,0.0,0.0,0.0,0.0,0.0,0.0,0.0,0.0,0.0,0.0,0.0,0.0,0.0,0.0,0.0,0.0,0.0,0.0,0.0,0.0,0.0,0.0,0.0,0.0,0.0,0.0,0.0,0.0,0.0,0.0,0.0,0.0,0.0,0.0,0.0,0.0,0.0,0.0,0.0,0.0,0.0,0.0,0.0,0.0,0.0,0.0,0.0,0.0,0.0,0.0,0.0,0.0,0.0,0.0,0.0,0.0,0.0,0.0,0.0,0.0,0.0,0.0,0.0,0.0,0.0,0.0,0.0,0.0,0.0,0.0,0.0,0.0,0.0,0.0,0.0,0.0,0.0,0.0,0.0,0.0,0.0,0.0,0.0,0.0,0.0,0.0,0.0,0.0,0.0,0.0,0.0,0.0,0.0,0.0,0.0,0.0,0.0,0.0,0.0,0.0,0.0,0.0,0.0,0.0,0.0,0.0,0.0,0.0,0.0,0.0,0.0,0.0,0.0,0.0,0.0,0.0,0.0,0.0,0.0,0.0,0.0,0.0,0.0,0.0,0.0,0.0,0.0,0.0,0.0,0.0,0.0,0.0,0.0,0.0,0.0,0.0,0.0,0.0,0.0,0.0,0.0,0.0,0.0,0.0,0.0,0.0,0.0,0.0,0.0,0.0,0.0,0.0,0.0,0.0,0.0,0.0,0.0,0.0,0.0,0.0,0.0,0.0,0.0,0.0,0.0,0.0,0.0,0.0,0.0,0.0,0.0,0.0,0.0,0.0,0.0,0.0,0.0,0.0,0.0,0.0,0.0,0.0,0.0,0.0,0.0,0.0,0.0,0.0,0.0,0.0,0.0,0.0,0.0,0.0,0.0,0.0,0.0,0.0,0.0,0.0,0.0,0.0,0.0,0.0,0.0,0.0,0.0,0.0,0.0,0.0,0.0,0.0,0.0,0.0,0.0,0.0,0.0,0.0,0.0,0.0,0.0,0.0,0.0,0.0,0.0,0.0,0.0,0.0,0.0,0.0,0.0,0.0,0.0,0.0,0.0,0.0,0.0,0.0,0.0,0.0,0.0,0.0,0.0,0.0,0.0,0.0,0.0,0.0,0.0,0.0,0.0,0.0,0.0,0.0,0.0,0.0,0.0,0.0,0.0,0.0,0.0,0.0,0.0,0.0,0.0,0.0,0.0,0.0,0.0,0.0,0.0,0.0,0.0,0.0,0.0,0.0,0.0,0.0,0.0,0.0,0.0,0.0,0.0,0.0,0.0,0.0,0.0,0.0,0.0,0.0,0.0,0.0,0.0,0.0,0.0,0.0,0.0,0.0,0.0,0.0,0.0,0.0,0.0,0.0,0.0,0.0,0.0,0.0,0.0,0.0,0.0,0.0,0.0,0.0,0.0,0.0,0.0,0.0,0.0,0.0,0.0,0.0,0.0,0.0,0.0,0.0,0.0,0.0,0.0,0.0,0.0,0.0,0.0,0.0,0.0,0.0,0.0,0.0,0.0,0.0,0.0,0.0,0.0,0.0,0.0,0.0,0.0,0.0,0.0,0.0,0.0,0.0,0.0,0.0,0.0,0.0,0.0,0.0,0.0,0.0,0.0,0.0,0.0,0.0,0.0,0.0,0.0,0.0,0.0,0.0,0.0,0.0,0.0,0.0,0.0,0.0,0.0,0.0,0.0,0.0,0.0,0.0,0.0,0.0,0.0,0.0,0.0,0.0,0.0,0.0,0.0,0.0,0.0,0.0,0.0,0.0,0.0,0.0,0.0,0.0,0.0,0.0,0.0,0.0,0.0,0.0,0.0,0.0,0.0,0.0,0.0,0.0,0.0,0.0,0.0,0.0,0.0,0.0,0.0,0.0,0.0,0.0,0.0,0.0,0.0,0.0,0.0,0.0,0.0,0.0,0.0,0.0,0.0,0.0,0.0,0.0,0.0,0.0,0.0,0.0,0.0,0.0,0.0,0.0,0.0,0.0,0.0,0.0,0.0,0.0,0.0,0.0,0.0,0.0,0.0,0.0,0.0,0.0,0.0,0.0,0.0,0.0,0.0,0.0,0.0,0.0,0.0,0.0,0.0,0.0,0.0,0.0,0.0,0.0,0.0,0.0,0.0,0.0,0.0,0.0,0.0,0.0,0.0,0.0,0.0,0.0,0.0,0.0,0.0,0.0,0.0,0.0,0.0,0.0,0.0,0.0,0.0,0.0,0.0,0.0,0.0,0.0,0.0,0.0,0.0,0.0,0.0,0.0,0.0,0.0,0.0,0.0,0.0,0.0,0.0,0.0,0.0,0.0,0.0,0.0,0.0,0.0,0.0,0.0,0.0,0.0,0.0,0.0,0.0,0.0,0.0,0.0,0.0,0.0,0.0,0.0,0.0,0.0,0.0,0.0,0.0,0.0,0.0,0.0,0.0,0.0,0.0,0.0,0.0,0.0,0.0,0.0,0.0,0.0,0.0,0.0,0.0,0.0,0.0,0.0,0.0,0.0,0.0,0.0,0.0,0.0,0.0,0.0,0.0,0.0,0.0,0.0,0.0,0.0,0.0,0.0,0.0,0.0,0.0,0.0,0.0,0.0,0.0,0.0,0.0,0.0,0.0,0.0,0.0,0.0,0.0,0.0,0.0,0.0,0.0,0.0,0.0,0.0,0.0,0.0,0.0,0.0,0.0,0.0,0.0,0.0,0.0,0.0,0.0,0.0,0.0,0.0,0.0,0.0,0.0,0.0,0.0,0.0,0.0,0.0,0.0,0.0,0.0,0.0,0.0,0.0,0.0,0.0,0.0,0.0,0.0,0.0,0.0,0.0,0.0,0.0,0.0,0.0,0.0,0.0,0.0,0.0,0.0,0.0,0.0,0.0,0.0,0.0,0.0,0.0,0.0,0.0,0.0,0.0,0.0,0.0,0.0,0.0,-0.6113,0.0,0.0,0.0,0.0,0.0,0.0,0.0,0.0,0.0,0.0,0.0,0.0,0.0,0.0,0.0,0.0,0.0,0.0,0.0,0.0,0.0,0.0,0.0,0.0,0.0,0.0,0.0,0.0,0.0,0.0,0.0,0.0,0.0,0.0,0.0,0.0,0.0,0.0,0.0,0.0,0.0,0.0,0.0,0.0,0.0,0.0,0.0,0.0,0.0,0.0,0.0,0.0,0.0,0.0,0.0,0.0,0.0,0.0,0.0,0.0,0.0,0.0,0.0,0.0,0.0,0.0,0.0,0.0,0.0,0.0,0.0,0.0,0.0,0.0,0.0,0.0,0.0,0.0,0.0,0.0,0.0,0.0,0.0,0.0,0.0,0.0,0.0,0.0,0.0,0.0,0.0,0.0,0.0,0.0,0.0,0.0,0.0,0.0,0.0,0.0,0.0,0.0,0.0,0.0,0.0,0.0,0.0,0.0,0.0,0.0,-0.6987,-0.6807,-0.6633,-0.653,-0.6516,0.0,0.0,0.0,0.0,0.0,0.0,0.0,0.0,0.0,0.0,0.0,0.0,0.0,0.0,0.0,0.0,0.0,0.0,0.0,0.0,0.0,0.0,0.0,0.0,0.0,0.0,0.0,0.0,0.0,0.0,0.0,0.0,0.0,0.0,0.0,0.0,0.0,0.0,0.0,0.0,0.0,0.0,0.0,0.0,0.0,0.0,0.0,0.0,0.0,0.0,0.0,0.0,0.0,0.0,0.0,0.0,0.0,0.0,0.0,0.0,0.0,0.0,0.0,0.0,0.0,0.0,0.0,0.0,0.0,0.0,0.0,0.0,0.0,0.0,0.0,0.0,0.0,0.0,0.0,0.0,0.0,0.0,0.0,0.0,0.0,0.0,0.0,0.0,0.0,0.0,0.0,0.0,0.0,0.0,0.0,0.0,0.0,0.0,0.0,0.0,0.0,0.0,0.0,0.0,0.0,0.0,0.0,0.0,0.0,0.0,0.0,0.0,-0.732,-0.7112,-0.6925,0.0,0.0,0.0,0.0,0.0,0.0,0.0,0.0,0.0,0.0,0.0,0.0,0.0,0.0,0.0,0.0,0.0,0.0,0.0,0.0,0.0,0.0,0.0,0.0,0.0,0.0,0.0,0.0,0.0,0.0,0.0,0.0,0.0,0.0,0.0,0.0,0.0,0.0,0.0,0.0,0.0,0.0,0.0,0.0,0.0,0.0,0.0,0.0,0.0,0.0,0.0,0.0,0.0,0.0,0.0,0.0,0.0,0.0,0.0,0.0,0.0,0.0,0.0,0.0,0.0,0.0,0.0,0.0,0.0,0.0,0.0,0.0,0.0,0.0,0.0,0.0,0.0,0.0,0.0,0.0,0.0,0.0,0.0,0.0,0.0,0.0,0.0,0.0,0.0,0.0,0.0,0.0,0.0,0.0,0.0,0.0,0.0,0.0,0.0,0.0,0.0,0.0,0.0,0.0,0.0,0.0,0.0,0.0,0.0,0.0,-0.8404,-0.8385,-0.8361,0.0,-0.7312,0.0,0.0,0.0,0.0,0.0,0.0,0.0,0.0,0.0,0.0,0.0,0.0,0.0,0.0,0.0,0.0,0.0,0.0,0.0,0.0,0.0,0.0,0.0,0.0,0.0,0.0,0.0,0.0,0.0,0.0,0.0,0.0,0.0,0.0,0.0,0.0,0.0,0.0,0.0,0.0,0.0,0.0,0.0,0.0,0.0,0.0,0.0,0.0,0.0,0.0,0.0,0.0,0.0,0.0,0.0,0.0,0.0,0.0,0.0,0.0,0.0,0.0,0.0,0.0,0.0,0.0,0.0,0.0,0.0,0.0,0.0,0.0,0.0,0.0,0.0,0.0,0.0,0.0,0.0,0.0,0.0,0.0,0.0,0.0,0.0,0.0,0.0,0.0,0.0,0.0,0.0,0.0,0.0,0.0,0.0,0.0,0.0,0.0,0.0,0.0,0.0,0.0,0.0,0.0,0.0,0.0,0.0,0.0,0.0,0.0,-0.8904,-0.9156,-0.8729,-0.8342,0.0,0.0,0.0,0.0,0.0,0.0,0.0,0.0,0.0,0.0,0.0,0.0,0.0,0.0,0.0,0.0,0.0,0.0,0.0,0.0,0.0,0.0,0.0,0.0,0.0,0.0,0.0,0.0,0.0,0.0,0.0,0.0,0.0,0.0,0.0,0.0,0.0,0.0,0.0,0.0,0.0,0.0,0.0,0.0,0.0,0.0,0.0,0.0,0.0,0.0,0.0,0.0,0.0,0.0,0.0,0.0,0.0,0.0,0.0,0.0,0.0,0.0,0.0,0.0,0.0,0.0,0.0,0.0,0.0,0.0,0.0,0.0,0.0,0.0,0.0,0.0,0.0,0.0,0.0,0.0,0.0,0.0,0.0,0.0,0.0,0.0,0.0,0.0,0.0,0.0,0.0,0.0,0.0,0.0,0.0,0.0,0.0,0.0,0.0,0.0,0.0,0.0,0.0,0.0,0.0,0.0,0.0,0.0,0.0,0.0,-0.9494,-0.95,-0.9833,-0.919,-0.8755,-0.8682,0.0,0.0,0.0,0.0,0.0,0.0,0.0,0.0,0.0,0.0,0.0,0.0,0.0,0.0,0.0,0.0,0.0,0.0,0.0,0.0,0.0,0.0,0.0,0.0,0.0,0.0,0.0,0.0,0.0,0.0,0.0,0.0,0.0,0.0,0.0,0.0,0.0,0.0,0.0,0.0,0.0,0.0,0.0,0.0,0.0,0.0,0.0,0.0,0.0,0.0,0.0,0.0,0.0,0.0,0.0,0.0,0.0,0.0,0.0,0.0,0.0,0.0,0.0,0.0,0.0,0.0,0.0,0.0,0.0,0.0,0.0,0.0,0.0,0.0,0.0,0.0,0.0,0.0,0.0,0.0,0.0,0.0,0.0,0.0,0.0,0.0,0.0,0.0,0.0,0.0,0.0,0.0,0.0,0.0,0.0,0.0,0.0,0.0,0.0,0.0,0.0,0.0,0.0,0.0,0.0,0.0,0.0,0.0,-0.988,-1.0003,-1.0251,-1.0619,-0.9949,-0.9426,0.0,0.0,0.0,0.0,0.0,0.0,0.0,0.0,0.0,0.0,0.0,0.0,0.0,0.0,0.0,0.0,0.0,0.0,0.0,0.0,0.0,0.0,0.0,0.0,0.0,0.0,0.0,0.0,0.0,0.0,0.0,0.0,0.0,0.0,0.0,0.0,0.0,0.0,0.0,0.0,0.0,0.0,0.0,0.0,0.0,0.0,0.0,0.0,0.0,0.0,0.0,0.0,0.0,0.0,0.0,0.0,0.0,0.0,0.0,0.0,0.0,0.0,0.0,0.0,0.0,0.0,0.0,0.0,0.0,0.0,0.0,0.0,0.0,0.0,0.0,0.0,0.0,0.0,0.0,0.0,0.0,0.0,0.0,0.0,0.0,0.0,0.0,0.0,0.0,0.0,0.0,0.0,0.0,0.0,0.0,0.0,0.0,0.0,0.0,0.0,0.0,0.0,0.0,0.0,0.0,0.0,0.0,0.0,0.0,-1.0264,-1.0666,-1.0925,-1.1045,-1.0328,-0.9925,0.0,0.0,0.0,0.0,0.0,0.0,0.0,0.0,0.0,0.0,0.0,0.0,0.0,0.0,0.0,0.0,0.0,0.0,0.0,0.0,0.0,0.0,0.0,0.0,0.0,0.0,0.0,0.0,0.0,0.0,0.0,0.0,0.0,0.0,0.0,0.0,0.0,0.0,0.0,0.0,0.0,0.0,0.0,0.0,0.0,0.0,0.0,0.0,0.0,0.0,0.0,0.0,0.0,0.0,0.0,0.0,0.0,0.0,0.0,0.0,0.0,0.0,0.0,0.0,0.0,0.0,0.0,0.0,0.0,0.0,0.0,0.0,0.0,0.0,0.0,0.0,0.0,0.0,0.0,0.0,0.0,0.0,0.0,0.0,0.0,0.0,0.0,0.0,0.0,0.0,0.0,0.0,0.0,0.0,0.0,0.0,0.0,0.0,0.0,0.0,0.0,0.0,0.0,0.0,0.0,0.0,0.0,0.0,0.0,-1.0561,0.0,-1.1456,-1.1439,-1.0752,-1.0357,0.0,0.0,0.0,0.0,0.0,0.0,0.0,0.0,0.0,0.0,0.0,0.0,0.0,0.0,0.0,0.0,0.0,0.0,0.0,0.0,0.0,0.0,0.0,0.0,0.0,0.0,0.0,0.0,0.0,0.0,0.0,0.0,0.0,0.0,0.0,0.0,0.0,0.0,0.0,0.0,0.0,0.0,0.0,0.0,0.0,0.0,0.0,0.0,0.0,0.0,0.0,0.0,0.0,0.0,0.0,0.0,0.0,0.0,0.0,0.0,0.0,0.0,0.0,0.0,0.0,0.0,0.0,0.0,0.0,0.0,0.0,0.0,0.0,0.0,0.0,0.0,0.0,0.0,0.0,0.0,0.0,0.0,0.0,0.0,0.0,0.0,0.0,0.0,0.0,0.0,0.0,0.0,0.0,0.0,0.0,0.0,0.0,0.0,0.0,0.0,0.0,0.0,0.0,0.0,0.0,0.0,0.0,0.0,-0.9782,-1.067,-1.1439,-1.184,-1.1798,-1.123,-1.0784,0.0,0.0,0.0,0.0,0.0,0.0,0.0,0.0,0.0,0.0,0.0,0.0,0.0,0.0,0.0,0.0,0.0,0.0,0.0,0.0,0.0,0.0,0.0,0.0,0.0,0.0,0.0,0.0,0.0,0.0,0.0,0.0,0.0,0.0,0.0,0.0,0.0,0.0,0.0,0.0,0.0,0.0,0.0,0.0,0.0,0.0,0.0,0.0,0.0,0.0,0.0,0.0,0.0,0.0,0.0,0.0,0.0,0.0,0.0,0.0,0.0,0.0,0.0,0.0,0.0,0.0,0.0,0.0,0.0,0.0,0.0,0.0,0.0,0.0,0.0,0.0,0.0,0.0,0.0,0.0,0.0,0.0,0.0,0.0,0.0,0.0,0.0,0.0,0.0,0.0,0.0,0.0,0.0,0.0,0.0,0.0,0.0,0.0,0.0,0.0,0.0,0.0,0.0,0.0,0.0,0.0,0.0,0.0,0.0,-1.113,-1.2098,-1.25,-1.2218,-1.1852,-1.1415,0.0,0.0,0.0,0.0,0.0,0.0,0.0,0.0,0.0,0.0,0.0,0.0,0.0,0.0,0.0,0.0,0.0,0.0,0.0,0.0,0.0,0.0,0.0,0.0,0.0,0.0,0.0,0.0,0.0,0.0,0.0,0.0,0.0,0.0,0.0,0.0,0.0,0.0,0.0,0.0,0.0,0.0,0.0,0.0,0.0,0.0,0.0,0.0,0.0,0.0,0.0,0.0,0.0,0.0,0.0,0.0,0.0,0.0,0.0,0.0,0.0,0.0,0.0,0.0,0.0,0.0,0.0,0.0,0.0,0.0,0.0,0.0,0.0,0.0,0.0,0.0,0.0,0.0,0.0,0.0,0.0,0.0,0.0,0.0,0.0,0.0,0.0,0.0,0.0,0.0,0.0,0.0,0.0,0.0,0.0,0.0,0.0,0.0,0.0,0.0,0.0,0.0,0.0,0.0,0.0,0.0,0.0,0.0,0.0,-1.2854,-1.3472,-1.3699,-1.3451,-1.296,-1.2254,-1.135,0.0,0.0,0.0,0.0,0.0,0.0,0.0,0.0,0.0,0.0,0.0,0.0,0.0,0.0,0.0,0.0,0.0,0.0,0.0,0.0,0.0,0.0,0.0,0.0,0.0,0.0,0.0,0.0,0.0,0.0,0.0,0.0,0.0,0.0,0.0,0.0,0.0,0.0,0.0,0.0,0.0,0.0,0.0,0.0,0.0,0.0,0.0,0.0,0.0,0.0,0.0,0.0,0.0,0.0,0.0,0.0,0.0,0.0,0.0,0.0,0.0,0.0,0.0,0.0,0.0,0.0,0.0,0.0,0.0,0.0,0.0,0.0,0.0,0.0,0.0,0.0,0.0,0.0,0.0,0.0,0.0,0.0,0.0,0.0,0.0,0.0,0.0,0.0,0.0,0.0,0.0,0.0,0.0,0.0,0.0,0.0,0.0,0.0,0.0,0.0,0.0,0.0,0.0,0.0,0.0,0.0,0.0,0.0,-1.5626,-1.5541,-1.5394,-1.5249,-1.4461,-1.3358,0.0,0.0,0.0,0.0,0.0,0.0,0.0,0.0,0.0,0.0,0.0,0.0,0.0,0.0,0.0,0.0,0.0,0.0,0.0,0.0,0.0,0.0,0.0,0.0,0.0,0.0,0.0,0.0,0.0,0.0,0.0,0.0,0.0,0.0,0.0,0.0,0.0,0.0,0.0,0.0,0.0,0.0,0.0,0.0,0.0,0.0,0.0,0.0,0.0,0.0,0.0,0.0,0.0,0.0,0.0,0.0,0.0,0.0,0.0,0.0,0.0,0.0,0.0,0.0,0.0,0.0,0.0,0.0,0.0,0.0,0.0,0.0,0.0,0.0,0.0,0.0,0.0,0.0,0.0,0.0,0.0,0.0,0.0,0.0,0.0,0.0,0.0,0.0,0.0,0.0,0.0,0.0,0.0,0.0,0.0,0.0,0.0,0.0,0.0,0.0,0.0,0.0,0.0,0.0,0.0,0.0,0.0,0.0,0.0,-1.767,-1.8288,-1.7854,-1.6524,-1.5887,-1.4797,0.0,0.0,0.0,0.0,0.0,0.0,0.0,0.0,0.0,0.0,0.0,0.0,0.0,0.0,0.0,0.0,0.0,0.0,0.0,0.0,0.0,0.0,0.0,0.0,0.0,0.0,0.0,0.0,0.0,0.0,0.0,0.0,0.0,0.0,0.0,0.0,0.0,0.0,0.0,0.0,0.0,0.0,0.0,0.0,0.0,0.0,0.0,0.0,0.0,0.0,0.0,0.0,0.0,0.0,0.0,0.0,0.0,0.0,0.0,0.0,0.0,0.0,0.0,0.0,0.0,0.0,0.0,0.0,0.0,0.0,0.0,0.0,0.0,0.0,0.0,0.0,0.0,0.0,0.0,0.0,0.0,0.0,0.0,0.0,0.0,0.0,0.0,0.0,0.0,0.0,0.0,0.0,0.0,0.0,0.0,0.0,0.0,0.0,0.0,0.0,0.0,0.0,0.0,0.0,0.0,0.0,0.0,0.0,-1.6228,-1.8756,-1.9566,-1.9565,-1.873,-1.7564,-1.603,0.0,0.0,0.0,0.0,0.0,0.0,0.0,0.0,0.0,0.0,0.0,0.0,0.0,0.0,0.0,0.0,0.0,0.0,0.0,0.0,0.0,0.0,0.0,0.0,0.0,0.0,0.0,0.0,0.0,0.0,0.0,0.0,0.0,0.0,0.0,0.0,0.0,0.0,0.0,0.0,0.0,0.0,0.0,0.0,0.0,0.0,0.0,0.0,0.0,0.0,0.0,0.0,0.0,0.0,0.0,0.0,0.0,0.0,0.0,0.0,0.0,0.0,0.0,0.0,0.0,0.0,0.0,0.0,0.0,0.0,0.0,0.0,0.0,0.0,0.0,0.0,0.0,0.0,0.0,0.0,0.0,0.0,0.0,0.0,0.0,0.0,0.0,0.0,0.0,0.0,0.0,0.0,0.0,0.0,0.0,0.0,0.0,0.0,0.0,0.0,0.0,0.0,0.0,0.0,0.0,0.0,0.0,0.0,-1.6862,-1.9141,-1.9964,-2.068,-2.1182,-1.9223,-1.7063,0.0,0.0,0.0,0.0,0.0,0.0,0.0,0.0,0.0,0.0,0.0,0.0,0.0,0.0,0.0,0.0,0.0,0.0,0.0,0.0,0.0,0.0,0.0,0.0,0.0,0.0,0.0,0.0,0.0,0.0,0.0,0.0,0.0,0.0,0.0,0.0,0.0,0.0,0.0,0.0,0.0,0.0,0.0,0.0,0.0,0.0,0.0,0.0,0.0,0.0,0.0,0.0,0.0,0.0,0.0,0.0,0.0,0.0,0.0,0.0,0.0,0.0,0.0,0.0,0.0,0.0,0.0,0.0,0.0,0.0,0.0,0.0,0.0,0.0,0.0,0.0,0.0,0.0,0.0,0.0,0.0,0.0,0.0,0.0,0.0,0.0,0.0,0.0,0.0,0.0,0.0,0.0,0.0,0.0,0.0,0.0,0.0,0.0,0.0,0.0,0.0,0.0,0.0,0.0,0.0,0.0,0.0,0.0,-1.7783,-1.9888,-2.05,-2.1094,-2.1806,-1.9754,-1.7828,0.0,0.0,0.0,0.0,0.0,0.0,0.0,0.0,0.0,0.0,0.0,0.0,0.0,0.0,0.0,0.0,0.0,0.0,0.0,0.0,0.0,0.0,0.0,0.0,0.0,0.0,0.0,0.0,0.0,0.0,0.0,0.0,0.0,0.0,0.0,0.0,0.0,0.0,0.0,0.0,0.0,0.0,0.0,0.0,0.0,0.0,0.0,0.0,-1.3544,0.0,0.0,0.0,0.0,0.0,0.0,0.0,0.0,0.0,0.0,0.0,0.0,0.0,0.0,0.0,0.0,0.0,0.0,0.0,0.0,0.0,0.0,0.0,0.0,0.0,0.0,0.0,0.0,0.0,0.0,0.0,0.0,0.0,0.0,0.0,0.0,0.0,0.0,0.0,0.0,0.0,0.0,0.0,0.0,0.0,0.0,0.0,0.0,0.0,0.0,0.0,0.0,0.0,0.0,0.0,0.0,0.0,0.0,0.0,-1.8938,-2.0497,-2.1034,-2.1392,-2.1454,-1.9683,-1.8106,0.0,0.0,0.0,0.0,0.0,0.0,0.0,0.0,0.0,0.0,0.0,0.0,0.0,0.0,0.0,0.0,0.0,0.0,0.0,0.0,0.0,0.0,0.0,0.0,0.0,0.0,0.0,0.0,0.0,0.0,0.0,0.0,0.0,0.0,0.0,0.0,0.0,0.0,0.0,0.0,0.0,0.0,0.0,0.0,0.0,0.0,0.0,0.0,0.0,0.0,0.0,0.0,0.0,0.0,0.0,0.0,0.0,0.0,0.0,0.0,0.0,0.0,0.0,0.0,0.0,0.0,0.0,0.0,0.0,0.0,0.0,0.0,0.0,0.0,0.0,0.0,0.0,0.0,0.0,0.0,0.0,0.0,0.0,0.0,0.0,0.0,0.0,0.0,0.0,0.0,0.0,0.0,0.0,0.0,0.0,0.0,0.0,0.0,0.0,0.0,0.0,0.0,0.0,0.0,0.0,0.0,0.0,-1.8009,-1.9819,-2.0712,-2.1358,-2.1475,-2.1024,-1.9335,-1.8073,-1.7323,0.0,0.0,0.0,0.0,0.0,0.0,0.0,0.0,0.0,0.0,0.0,0.0,0.0,0.0,0.0,0.0,0.0,0.0,0.0,0.0,0.0,0.0,0.0,0.0,0.0,0.0,0.0,0.0,0.0,0.0,0.0,0.0,0.0,0.0,0.0,0.0,0.0,0.0,-1.5172,-1.6095,0.0,0.0,0.0,0.0,0.0,0.0,0.0,0.0,-1.5307,0.0,0.0,0.0,0.0,0.0,0.0,0.0,0.0,0.0,0.0,0.0,0.0,0.0,0.0,0.0,0.0,0.0,0.0,0.0,0.0,0.0,0.0,0.0,0.0,0.0,0.0,0.0,0.0,0.0,0.0,0.0,0.0,0.0,0.0,0.0,0.0,0.0,0.0,0.0,0.0,0.0,0.0,0.0,0.0,0.0,0.0,0.0,0.0,0.0,0.0,0.0,0.0,0.0,0.0,0.0,0.0,-1.4608,-1.7589,-1.9328,-1.9678,-2.0639,-2.116,-2.1081,-1.8837,-1.7557,-1.741,0.0,0.0,0.0,0.0,0.0,0.0,0.0,0.0,0.0,0.0,0.0,0.0,0.0,0.0,0.0,0.0,0.0,0.0,0.0,0.0,0.0,0.0,0.0,0.0,0.0,0.0,0.0,0.0,0.0,0.0,0.0,0.0,0.0,0.0,0.0,0.0,0.0,0.0,0.0,-1.7331,-1.7539,0.0,0.0,0.0,0.0,0.0,0.0,0.0,0.0,-1.6751,0.0,0.0,0.0,0.0,0.0,0.0,0.0,0.0,0.0,0.0,0.0,0.0,0.0,0.0,0.0,0.0,0.0,0.0,0.0,0.0,0.0,0.0,0.0,0.0,0.0,0.0,0.0,0.0,0.0,0.0,0.0,0.0,0.0,0.0,0.0,0.0,0.0,0.0,0.0,0.0,0.0,0.0,0.0,0.0,0.0,0.0,0.0,0.0,0.0,0.0,0.0,0.0,0.0,0.0,0.0,-1.6014,-1.8066,-1.9596,-2.0535,-2.0556,-2.035,-1.9934,-1.8174,-1.6912,0.0,0.0,0.0,0.0,0.0,0.0,0.0,0.0,0.0,0.0,0.0,0.0,0.0,0.0,0.0,0.0,0.0,0.0,0.0,0.0,0.0,0.0,0.0,0.0,0.0,0.0,0.0,0.0,0.0,0.0,0.0,0.0,0.0,0.0,0.0,0.0,0.0,0.0,0.0,0.0,-1.8059,-1.8565,-1.838,0.0,0.0,0.0,0.0,0.0,0.0,-1.7008,-1.7384,0.0,0.0,0.0,0.0,0.0,0.0,0.0,0.0,0.0,0.0,0.0,0.0,0.0,0.0,0.0,0.0,0.0,0.0,0.0,0.0,0.0,0.0,0.0,0.0,0.0,0.0,0.0,0.0,0.0,0.0,0.0,0.0,0.0,0.0,0.0,0.0,0.0,0.0,0.0,0.0,0.0,0.0,0.0,0.0,0.0,0.0,0.0,0.0,0.0,0.0,0.0,0.0,0.0,0.0,0.0,-1.7342,-1.8648,-1.9941,-2.1174,-2.0693,-1.9882,-1.8805,-1.7745,-1.65,0.0,0.0,0.0,0.0,0.0,0.0,0.0,0.0,0.0,0.0,0.0,0.0,0.0,0.0,0.0,0.0,0.0,0.0,0.0,0.0,0.0,0.0,0.0,0.0,0.0,0.0,0.0,0.0,0.0,0.0,0.0,0.0,0.0,0.0,0.0,0.0,0.0,0.0,0.0,0.0,0.0,-1.9664,-1.9176,-1.8951,0.0,0.0,0.0,0.0,-1.7115,-1.7726,0.0,0.0,0.0,0.0,0.0,0.0,0.0,0.0,0.0,0.0,0.0,0.0,0.0,0.0,0.0,0.0,0.0,0.0,0.0,0.0,0.0,0.0,0.0,0.0,0.0,0.0,0.0,0.0,0.0,0.0,0.0,0.0,0.0,0.0,0.0,0.0,0.0,0.0,0.0,0.0,0.0,0.0,0.0,0.0,0.0,0.0,0.0,0.0,0.0,0.0,0.0,0.0,0.0,0.0,0.0,0.0,-1.7036,-1.892,-1.9879,-1.99,-2.0828,-2.0488,-1.8676,-1.8054,-1.6748,0.0,0.0,0.0,0.0,0.0,0.0,0.0,0.0,0.0,0.0,0.0,0.0,0.0,0.0,0.0,0.0,0.0,0.0,0.0,0.0,0.0,0.0,0.0,0.0,0.0,0.0,0.0,0.0,0.0,0.0,0.0,0.0,0.0,0.0,0.0,0.0,0.0,0.0,0.0,0.0,0.0,-2.0713,-2.1111,-2.1036,-2.0614,0.0,0.0,0.0,-1.9261,-1.9864,0.0,0.0,0.0,0.0,0.0,0.0,0.0,0.0,0.0,0.0,0.0,0.0,0.0,0.0,0.0,0.0,0.0,0.0,0.0,0.0,0.0,0.0,0.0,0.0,0.0,0.0,0.0,0.0,0.0,0.0,0.0,0.0,0.0,0.0,0.0,0.0,0.0,0.0,0.0,0.0,0.0,0.0,0.0,0.0,0.0,0.0,0.0,0.0,0.0,0.0,0.0,0.0,0.0,0.0,0.0,-1.494,-1.6638,-1.8234,-1.903,-1.9094,-1.9465,-1.9074,-1.7769,-1.7312,-1.5969,0.0,0.0,0.0,0.0,0.0,0.0,0.0,0.0,0.0,0.0,0.0,0.0,0.0,0.0,0.0,0.0,0.0,0.0,0.0,0.0,0.0,0.0,0.0,0.0,0.0,0.0,0.0,0.0,0.0,0.0,0.0,0.0,0.0,0.0,0.0,0.0,0.0,0.0,0.0,0.0,0.0,0.0,-2.1191,-2.1668,0.0,0.0,0.0,-2.0491,-2.0164,0.0,0.0,0.0,0.0,0.0,0.0,0.0,0.0,0.0,0.0,0.0,0.0,0.0,0.0,0.0,0.0,0.0,0.0,0.0,0.0,0.0,0.0,0.0,0.0,0.0,0.0,0.0,0.0,0.0,0.0,0.0,0.0,0.0,0.0,0.0,0.0,0.0,0.0,0.0,0.0,0.0,0.0,0.0,0.0,0.0,0.0,0.0,0.0,0.0,0.0,0.0,0.0,0.0,0.0,0.0,0.0,0.0,-1.635,-1.7676,-1.8478,-1.8695,-1.8664,-1.8215,-1.7353,-1.6907,0.0,0.0,0.0,0.0,0.0,0.0,0.0,0.0,0.0,0.0,0.0,0.0,0.0,0.0,0.0,0.0,0.0,0.0,0.0,0.0,0.0,0.0,0.0,0.0,0.0,0.0,0.0,-1.3172,0.0,0.0,0.0,0.0,0.0,0.0,0.0,0.0,0.0,0.0,0.0,0.0,0.0,0.0,-2.1802,-2.1665,-2.2499,-2.2721,0.0,0.0,-2.1727,-2.1207,-2.1783,-2.1967,0.0,0.0,0.0,0.0,0.0,0.0,0.0,0.0,0.0,0.0,0.0,0.0,0.0,0.0,0.0,0.0,0.0,0.0,0.0,0.0,0.0,0.0,0.0,0.0,0.0,0.0,0.0,0.0,0.0,0.0,0.0,0.0,0.0,0.0,0.0,0.0,0.0,0.0,0.0,0.0,0.0,0.0,0.0,0.0,0.0,0.0,0.0,0.0,0.0,0.0,0.0,0.0,0.0,0.0,0.0,-1.6216,-1.7781,-1.8596,-1.8704,-1.9302,-1.9077,-1.7977,-1.7507,-1.6123,0.0,0.0,0.0,0.0,0.0,0.0,0.0,0.0,0.0,0.0,0.0,0.0,0.0,0.0,0.0,0.0,0.0,0.0,0.0,0.0,0.0,0.0,0.0,0.0,0.0,0.0,0.0,0.0,0.0,0.0,0.0,0.0,0.0,0.0,0.0,0.0,0.0,0.0,0.0,0.0,0.0,-2.241,-2.3543,-2.4178,-2.4509,0.0,0.0,-2.3525,-2.3013,-2.3123,-2.2699,-2.0925,0.0,0.0,0.0,0.0,0.0,0.0,0.0,0.0,0.0,0.0,0.0,0.0,0.0,0.0,0.0,0.0,0.0,0.0,0.0,0.0,0.0,0.0,0.0,0.0,0.0,0.0,0.0,0.0,0.0,0.0,0.0,0.0,0.0,0.0,0.0,0.0,0.0,0.0,0.0,0.0,0.0,0.0,0.0,0.0,0.0,0.0,0.0,0.0,0.0,0.0,0.0,0.0,0.0,-1.4503,-1.5584,-1.7867,-1.8574,-1.7694,-1.8963,-1.8985,-1.7547,-1.7129,-1.6095,0.0,0.0,0.0,0.0,0.0,0.0,0.0,0.0,0.0,0.0,0.0,0.0,0.0,0.0,0.0,0.0,0.0,0.0,0.0,0.0,0.0,0.0,0.0,0.0,0.0,0.0,0.0,0.0,-1.4891,-1.5079,-1.5541,0.0,0.0,0.0,0.0,0.0,0.0,0.0,0.0,0.0,0.0,-2.3209,-2.3287,-2.4124,0.0,0.0,-2.3845,-2.3803,-2.3178,-2.3611,-2.3614,-2.2447,-2.1146,0.0,0.0,0.0,0.0,0.0,0.0,0.0,0.0,0.0,0.0,0.0,0.0,0.0,0.0,0.0,0.0,0.0,0.0,0.0,0.0,0.0,0.0,0.0,0.0,0.0,0.0,0.0,0.0,0.0,0.0,0.0,0.0,0.0,0.0,0.0,0.0,0.0,0.0,0.0,0.0,0.0,0.0,0.0,0.0,0.0,0.0,0.0,0.0,0.0,0.0,0.0,0.0,-1.451,-1.5225,-1.7912,-1.864,-1.7271,-1.8688,-1.8822,-1.7523,-1.6927,-1.6142,0.0,0.0,0.0,0.0,0.0,0.0,0.0,0.0,0.0,0.0,0.0,0.0,0.0,0.0,0.0,0.0,0.0,0.0,0.0,0.0,0.0,0.0,0.0,0.0,0.0,0.0,0.0,0.0,-1.5487,-1.5486,-1.5327,0.0,0.0,0.0,0.0,0.0,0.0,0.0,0.0,0.0,0.0,-2.3296,-2.3229,-2.3969,-2.4297,-2.3664,-2.3888,-2.3986,-2.3606,-2.3889,-2.3948,-2.3229,0.0,0.0,0.0,0.0,0.0,0.0,0.0,0.0,0.0,0.0,0.0,0.0,0.0,0.0,0.0,0.0,0.0,0.0,0.0,0.0,0.0,0.0,0.0,0.0,0.0,0.0,0.0,0.0,0.0,0.0,0.0,0.0,0.0,0.0,0.0,0.0,0.0,0.0,0.0,0.0,0.0,0.0,0.0,0.0,0.0,0.0,0.0,0.0,0.0,0.0,0.0,0.0,0.0,0.0,-1.534,-1.7935,-1.8855,-1.801,-1.8583,-1.8667,-1.8068,-1.7035,-1.6468,-1.6425,0.0,0.0,0.0,0.0,0.0,0.0,0.0,0.0,0.0,0.0,0.0,0.0,0.0,0.0,0.0,0.0,0.0,0.0,0.0,0.0,0.0,0.0,0.0,0.0,0.0,0.0,-1.5312,-1.582,-1.5921,0.0,0.0,0.0,0.0,0.0,0.0,0.0,0.0,0.0,0.0,-2.1583,-2.2497,-2.3673,-2.3891,-2.4203,-2.4967,-2.4564,-2.4264,-2.4462,-2.4022,-2.3415,0.0,0.0,0.0,0.0,0.0,0.0,0.0,0.0,0.0,0.0,0.0,0.0,0.0,0.0,0.0,0.0,0.0,0.0,0.0,0.0,0.0,0.0,0.0,0.0,0.0,0.0,0.0,0.0,-0.8336,0.0,0.0,0.0,0.0,0.0,0.0,0.0,0.0,0.0,0.0,0.0,-1.389,-1.4105,0.0,0.0,0.0,0.0,0.0,0.0,0.0,0.0,0.0,0.0,0.0,0.0,-1.4527,-1.5729,-1.7656,-1.8573,-1.8406,-1.8712,-1.8655,-1.8096,-1.7103,-1.6251,-1.5565,0.0,0.0,0.0,0.0,0.0,0.0,0.0,0.0,0.0,0.0,0.0,0.0,0.0,0.0,0.0,0.0,0.0,0.0,0.0,0.0,0.0,0.0,0.0,0.0,0.0,-1.6401,0.0,0.0,0.0,0.0,0.0,0.0,0.0,0.0,0.0,0.0,0.0,-2.0683,-2.154,-2.2585,-2.3252,-2.3244,-2.3615,-2.3912,0.0,0.0,0.0,0.0,0.0,0.0,0.0,0.0,0.0,0.0,0.0,0.0,0.0,0.0,-2.2052,-2.1409,-2.1673,-2.1843,-2.1381,0.0,0.0,0.0,0.0,0.0,0.0,0.0,0.0,0.0,0.0,0.0,0.0,0.0,0.0,0.0,0.0,-0.9028,0.0,0.0,0.0,0.0,0.0,0.0,0.0,0.0,-1.3565,-1.4684,-1.5792,-1.6148,-1.6277,0.0,-1.5336,-1.3952,0.0,0.0,0.0,0.0,0.0,0.0,0.0,0.0,-1.4701,-1.5652,-1.748,-1.8434,-1.8406,-1.8527,-1.8419,-1.8096,-1.7481,-1.6564,-1.5418,-1.5154,-1.489,0.0,0.0,0.0,0.0,0.0,0.0,0.0,0.0,0.0,0.0,0.0,0.0,0.0,0.0,0.0,0.0,0.0,0.0,0.0,0.0,0.0,0.0,0.0,-1.6779,0.0,0.0,0.0,0.0,0.0,0.0,0.0,0.0,0.0,-1.884,-2.0306,-2.1598,-2.2214,-2.3223,-2.3659,-2.2989,0.0,0.0,0.0,0.0,0.0,0.0,0.0,-2.3864,-2.364,-2.3482,-2.3302,-2.3104,-2.2899,-2.2812,-2.295,0.0,0.0,-2.3055,-2.3179,-2.3409,-2.3671,-2.3517,-2.3407,-2.3534,-2.3441,-2.3557,0.0,0.0,0.0,0.0,0.0,0.0,0.0,0.0,-0.9426,-0.9448,0.0,-0.9802,0.0,0.0,0.0,0.0,0.0,0.0,0.0,0.0,-1.4706,-1.591,-1.7169,-1.7882,-1.8041,-1.7569,-1.7156,-1.6154,-1.4658,-1.2851,0.0,0.0,0.0,0.0,0.0,0.0,-1.5268,-1.5222,-1.7456,-1.8425,-1.8017,-1.8031,-1.8018,-1.8073,-1.8066,-1.7392,-1.604,-1.6313,-1.6348,-1.5913,-1.5002,0.0,0.0,0.0,0.0,0.0,0.0,0.0,0.0,0.0,0.0,0.0,0.0,0.0,0.0,0.0,0.0,0.0,0.0,0.0,0.0,-1.6314,0.0,0.0,0.0,0.0,0.0,0.0,0.0,0.0,0.0,0.0,-2.0016,-2.122,-2.2236,-2.2794,0.0,0.0,0.0,0.0,-2.3846,-2.3364,-2.3422,-2.3546,-2.3588,-2.4141,-2.435,-2.3714,0.0,0.0,-2.3881,-2.4019,-2.4181,-2.4187,-2.4255,-2.4333,-2.4317,-2.4841,-2.5487,-2.6118,-2.578,-2.5577,-2.5921,-2.5634,-2.5675,-0.8344,0.0,0.0,0.0,0.0,-1.0057,-1.0503,-1.1309,-1.1152,-1.1057,-1.0985,-1.0761,0.0,0.0,0.0,0.0,0.0,0.0,-1.3579,-1.507,-1.6695,-1.7886,-1.8603,-1.9297,-1.9537,-1.9389,-1.8448,-1.7623,-1.6883,-1.5269,-1.3675,-1.2228,0.0,0.0,0.0,0.0,-1.4993,-1.5657,-1.709,-1.7885,-1.7995,-1.8053,-1.7925,-1.7611,-1.7588,-1.7246,-1.6428,-1.6197,-1.6014,-1.5889,-1.528,0.0,0.0,0.0,0.0,0.0,0.0,0.0,0.0,0.0,0.0,0.0,0.0,0.0,0.0,0.0,0.0,0.0,0.0,0.0,-1.8898,-1.855,-1.8172,0.0,0.0,0.0,0.0,0.0,0.0,0.0,0.0,0.0,-2.0669,-2.1852,-2.2548,0.0,0.0,-2.2491,-2.2418,-2.2593,-2.2908,-2.3363,0.0,0.0,0.0,-2.4178,-2.4365,-2.3699,-2.3774,-2.3863,-2.3812,-2.4247,-2.4537,-2.4267,-2.4575,-2.4903,-2.505,-2.5595,-2.6118,-2.638,-2.6965,-2.7535,-2.7651,-2.7565,-2.7677,-0.9066,-0.9829,-0.9932,-1.0521,-1.1387,-1.1377,-1.1691,-1.2234,-1.2234,-1.1988,-1.1703,-1.182,-1.1312,-1.0276,-1.0004,0.0,0.0,0.0,-1.4592,-1.6597,-1.7899,-1.8846,-1.9474,-2.0034,-2.0137,-1.9805,-1.9034,-1.8476,-1.8186,-1.699,-1.5761,-1.4472,0.0,0.0,-1.3277,-1.4364,-1.5108,-1.5555,-1.6446,-1.7123,-1.7565,-1.7907,-1.7871,-1.7419,-1.7396,-1.7166,-1.6708,-1.6408,-1.6376,-1.6647,-1.6136,-1.5718,0.0,0.0,0.0,0.0,0.0,0.0,0.0,0.0,0.0,0.0,0.0,-1.4891,0.0,0.0,0.0,0.0,-1.6843,-1.8724,-1.9986,-1.929,0.0,0.0,0.0,0.0,0.0,0.0,0.0,-1.9595,-2.0146,-2.0799,-2.1634,-2.2432,-2.2757,-2.2388,-2.2585,-2.2702,-2.2564,0.0,-2.312,-2.3451,-2.3874,-2.4022,-2.367,-2.4156,-2.4455,-2.4051,-2.3999,-2.3916,-2.3756,-2.4521,-2.4896,-2.4426,-2.4878,-2.5472,-2.5321,-2.6103,-2.678,-2.6811,-2.7642,-2.8414,-2.8645,-2.8677,-2.8818,-0.9429,-1.0722,-1.0986,-1.1514,-1.2151,-1.2391,-1.2644,-1.2825,-1.2862,-1.2554,-1.2113,-1.2764,-1.2343,-1.1135,-1.1155,0.0,0.0,-1.3711,-1.5272,-1.7961,-1.8439,-1.9033,-1.9752,-2.0226,-2.0047,-1.93,-1.9138,-1.8949,-1.8691,-1.8141,-1.7669,-1.7325,-1.5468,-1.4444,-1.4378,-1.5296,-1.5566,-1.5179,-1.5747,-1.6317,-1.6853,-1.7566,-1.7752,-1.734,-1.7355,-1.7166,-1.6844,-1.6774,-1.7082,-1.7737,-1.7302,-1.6833,-1.6527,0.0,0.0,0.0,0.0,0.0,0.0,0.0,0.0,0.0,0.0,0.0,0.0,0.0,0.0,0.0,-1.7655,0.0,-1.9972,-1.9087,0.0,0.0,0.0,-1.7969,-1.913,-1.8811,-1.9391,-2.1656,0.0,0.0,0.0,0.0,-2.283,-2.2888,-2.3397,-2.3574,-2.3105,-2.3554,-2.3925,-2.3569,-2.3604,-2.3684,-2.364,-2.4081,-2.444,-2.4395,-2.4515,-2.4246,-2.3804,-2.4702,-2.513,-2.421,-2.5155,-2.5892,-2.5305,-2.6287,-2.7319,-2.7242,-2.7873,-2.8525,-2.8873,-2.8974,-2.9035,-0.9676,-1.0735,-1.0965,-1.2253,-1.4063,-1.4322,-1.4244,-1.3948,-1.4141,-1.3821,-1.3145,-1.3127,-1.2451,-1.1381,-1.1216,-1.1946,-1.3411,-1.378,-1.5249,-1.7524,-1.7971,-1.8586,-1.935,-1.9788,-1.9696,-1.9268,-1.9366,-1.9362,-1.9125,-1.8381,-1.8062,-1.8076,-1.6928,-1.6023,-1.5399,-1.609,-1.6156,-1.5551,-1.6176,-1.6465,-1.6469,-1.662,-1.6774,-1.6866,-1.6881,-1.6907,-1.6945,-1.6536,-1.6782,-1.7725,-1.729,-1.7199,-1.7572,-1.6253,0.0,0.0,0.0,0.0,0.0,0.0,0.0,0.0,0.0,-1.5491,-1.5991,0.0,-1.6399,0.0,-1.6646,-1.8172,-1.9914,-2.0233,0.0,0.0,-2.0001,-2.0204,-2.0509,-2.0872,-2.1133,-2.1227,-2.154,-2.1873,-2.2193,-2.2222,-2.2374,-2.2815,-2.2724,-2.2571,-2.2503,-2.2714,-2.3079,-2.35,-2.3962,-2.4171,-2.367,-2.3729,-2.3827,-2.3834,-2.3849,-2.3789,-2.3625,-2.4387,-2.4799,-2.4188,-2.4706,-2.509,-2.4697,-2.5687,-2.6549,-2.6672,-2.7541,-2.8436,-2.8565,-2.8573,-2.8466,-0.9223,-0.9814,-1.0688,-1.1764,-1.2982,-1.3922,-1.4422,-1.4666,-1.4702,-1.4395,-1.3845,-1.3586,-1.3145,-1.2536,-1.23,-1.2798,-1.3837,-1.4136,-1.5175,-1.6757,-1.7529,-1.8056,-1.8404,-1.8989,-1.9042,-1.8676,-1.9034,-1.9228,-1.9277,-1.8849,-1.871,-1.8933,-1.8127,-1.7396,-1.6687,-1.6649,-1.6533,-1.6239,-1.6487,-1.6371,-1.5933,-1.6169,-1.6357,-1.6412,-1.6238,-1.621,-1.6326,-1.595,-1.6161,-1.7068,-1.6869,-1.693,-1.7325,-1.63,-1.5487,0.0,0.0,0.0,0.0,0.0,0.0,0.0,0.0,0.0,0.0,0.0,-1.7036,0.0,-1.7664,0.0,-2.0378,-2.0567,-2.0683,-2.0915,-2.0727,-2.0814,-2.1365,-2.1532,-2.1627,-2.1808,-2.1946,-2.2091,-2.2345,-2.2164,-2.212,-2.2498,-2.2359,-2.2371,-2.2656,-2.263,-2.2661,-2.3146,-2.3251,-2.3184,-2.2787,-2.3032,-2.3176,-2.3236,-2.3684,-2.3969,-2.3699,-2.4522,-2.498,-2.4249,-2.4865,-2.5396,-2.4943,-2.561,-2.6349,-2.6419,-2.6911,-2.7618,-2.8258,-2.8141,-2.7811,-0.8384,-0.8482,-0.9826,-1.0444,-1.0637,-1.2116,-1.3554,-1.4829,-1.4766,-1.4588,-1.428,-1.402,-1.39,-1.3888,-1.3634,-1.3778,-1.4274,-1.4375,-1.4934,-1.5842,-1.6894,-1.7294,-1.7154,-1.7987,-1.8216,-1.7919,-1.8451,-1.8909,-1.9261,-1.9276,-1.9356,-1.9534,-1.8964,-1.8428,-1.7831,-1.7099,-1.6744,-1.6826,-1.6656,-1.6181,-1.54,-1.5886,-1.6051,-1.5896,-1.5568,-1.5412,-1.5493,-1.5233,-1.551,-1.6338,-1.6409,-1.6538,-1.6775,-1.6247,-1.572,0.0,-1.4778,0.0,0.0,0.0,0.0,0.0,0.0,0.0,0.0,-1.8408,-1.7899,-1.8412,-1.9377,-2.019,-2.0712,-2.0364,-2.0582,-2.1685,-2.0886,-2.0683,-2.1801,-2.1409,-2.1438,-2.2511,-2.2258,-2.2207,-2.249,-2.2309,-2.2171,-2.2162,-2.24,-2.2648,-2.2994,-2.2702,-2.242,-2.2568,-2.2089,-2.1904,-2.1889,-2.2313,-2.2733,-2.2853,-2.3625,-2.4246,-2.3684,-2.4597,-2.5161,-2.4355,-2.4935,-2.5625,-2.5207,-2.5689,-2.6188,-2.612,-2.6296,-2.6757,-2.7703,-2.7642,-2.7257,-0.7209,-0.717,-0.7455,-0.8302,-0.9503,-0.98,-1.1344,-1.3529,-1.4579,-1.4757,-1.428,-1.402,-1.39,-1.3888,-1.3634,-1.3574,-1.366,-1.3705,-1.4231,-1.5192,-1.5081,-1.5476,-1.6174,-1.6929,-1.727,-1.7294,-1.8385,-1.8998,-1.907,-1.9228,-1.9298,-1.9363,-1.8896,-1.8484,-1.8044,0.0,0.0,0.0,-1.6376,-1.5961,-1.5204,-1.5249,-1.5138,-1.4754,-1.4751,0.0,-1.546,-1.5245,-1.5661,-1.6869,-1.6587,0.0,0.0,0.0,0.0,0.0,0.0,0.0,0.0,0.0,0.0,0.0,-1.8897,-1.9241,-2.0098,-1.9737,-1.9507,-1.9706,-1.9478,-1.9333,-1.9449,-1.9856,-2.0393,-2.1061,-2.0973,-2.1133,-2.1859,-2.1394,-2.1119,-2.1322,-2.1728,-2.183,-2.1496,-2.2214,-2.2659,-2.2235,-2.281,-2.3058,-2.2657,-2.2191,-2.1884,-2.1859,-2.168,-2.1665,-2.1695,-2.2239,-2.2643,-2.2808,-2.3266,-2.3714,-2.367,-2.3861,-2.4204,-2.3839,-2.4143,-2.442,-2.431,-2.4863,-2.5424,-2.5402,-2.5935,-2.6441,-2.665,-2.6641,-2.6411,-0.6858,0.0,-0.6804,-0.7258,0.0,-0.8899,-0.9996,-1.1294,-1.3178,-1.414,-1.4286,-1.4159,-1.4026,-1.39,-1.3767,-1.3568,-1.3276,-1.3326,-1.3508,-1.3879,-1.4077,-1.4469,-1.4972,-1.5827,-1.6419,-1.6862,-1.7651,-1.8264,-1.8714,-1.8993,-1.9152,-1.9143,-1.883,-1.8614,-1.8403,-1.7798,-1.711,-1.6288,-1.6111,-1.5716,-1.5139,-1.5111,-1.4846,-1.4374,0.0,0.0,0.0,0.0,0.0,0.0,0.0,0.0,0.0,0.0,0.0,-1.7363,-1.6895,-1.6846,-1.746,-1.7845,-1.8546,-1.9608,-2.0134,-2.047,-2.0649,-2.0795,-2.0715,-2.0161,-1.9783,-1.9711,-2.0001,-2.0074,-2.0465,-2.1322,-2.0944,-2.0712,-2.0959,-2.077,-2.0422,-2.0175,-2.064,-2.1017,-2.1003,-2.1303,-2.1708,-2.1771,-2.2173,-2.2313,-2.1759,-2.167,-2.1515,-2.0861,-2.0707,-2.0846,-2.1201,-2.1754,-2.2358,-2.2658,-2.3212,-2.355,-2.3595,-2.3717,-2.3818,-2.3818,-2.3903,-2.3982,-2.4034,-2.4393,-2.4707,-2.4722,-2.5069,-2.5349,-2.5327,-2.561,-2.5764,-0.6823,-0.6804,-0.6804,-0.6812,-0.6956,-0.8336,-0.9124,-0.964,0.0,0.0,0.0,-1.4274,-1.4094,-1.3878,-1.3835,-1.3604,-1.3155,-1.3139,-1.2976,-1.2753,-1.3415,-1.3753,-1.3837,-1.472,-1.5553,-1.6239,-1.6576,-1.7164,-1.7942,-1.8465,-1.8745,-1.8758,-1.8737,-1.874,-1.8669,-1.7908,-1.7174,-1.6541,-1.6111,-1.567,-1.523,-1.5203,-1.4902,-1.4279,-1.4926,-1.5059,-1.4583,-1.5431,-1.584,-1.5691,-1.6528,-1.7002,-1.6895,-1.7315,-1.7544,-1.7556,-1.764,-1.7869,-1.8181,-1.8859,-1.9534,-2.0181,-2.0942,-2.1273,-2.0983,-2.1413,-2.1267,-2.019,-2.0001,-2.0117,-2.0596,-2.0219,-2.0378,-2.1525,-2.0611,-1.9957,-2.0074,-1.9986,-1.9711,-1.9275,-1.974,-2.0239,-2.0593,-2.06,-2.0626,-2.1221,-2.1687,-2.1575,-2.1192,-2.1346,-2.1066,-2.0067,-1.9902,-1.9992,-2.0617,-2.1306,-2.1894,-2.2403,-2.3107,-2.355,-2.3496,-2.3621,-2.3739,-2.376,-2.3861,-2.3882,-2.3925,-2.4055,-2.4145,-2.4145,-2.4234,-2.4281,-2.4327,-2.4727,-2.5118,-0.6896,-0.6804,-0.6804,-0.6864,-0.7015,-0.7211,-0.8497,-1.0588,-1.2185,-1.3444,-1.4274,-1.407,-1.3933,-1.3897,-1.364,-1.3532,-1.3447,-1.323,-1.297,0.0,-1.2826,-1.2869,-1.2912,-1.3795,-1.4252,-1.4461,-1.5413,-1.5951,-1.6198,-1.7139,-1.7715,-1.7948,-1.8603,-1.8858,-1.8678,-1.7908,-1.744,-1.7321,-1.6936,-1.6367,-1.5634,-1.5606,-1.5139,-1.4241,-1.4849,-1.51,-1.4846,-1.5338,-1.5892,-1.6569,-1.6494,-1.6888,-1.7903,-1.8049,-1.8097,-1.8121,-1.8633,-1.8756,-1.8241,-1.8937,-1.9658,-2.0334,-2.1017,-2.1344,-2.1159,-2.0789,-2.0422,-2.0101,-1.959,-1.9242,-1.9348,-1.9314,-1.958,-2.0219,-1.9711,-1.9464,-1.9986,-1.9595,-1.9246,-1.9145,-1.9662,-1.9909,-1.9816,-2.0499,-2.1108,-2.1475,-2.1873,-2.2428,-2.2188,-2.15,-2.0602,-1.9899,-1.9723,-1.9974,-2.0662,-2.1261,-2.1695,-2.1799,-2.2838,-2.331,-2.2897,-2.3203,-2.3473,-2.3571,-2.3524,-2.3569,-2.3636,-2.3861,-2.3973,-2.4015,-2.4172,-2.4281,-2.4281,-2.4441,-2.4487,-0.6989,-0.6983,-0.6926,-0.697,-0.7076,-0.713,-0.8156,-0.9911,-1.0447,-1.1977,-1.3998,-1.4255,-1.4028,-1.3491,-1.3485,-1.335,-1.3067,-1.2952,-1.2825,-1.2705,-1.2705,-1.2705,-1.2759,-1.3237,-1.3774,-1.4233,-1.4745,-1.5255,-1.5782,-1.6114,-1.6629,-1.7334,-1.8425,-1.8882,-1.8658,-1.8128,-1.7724,-1.7486,-1.6899,-1.6413,-1.6037,-1.5808,-1.5353,-1.466,-1.5157,-1.5366,-1.5312,-1.5953,-1.6488,-1.6761,-1.7373,-1.7794,-1.8078,-1.8444,-1.8638,-1.8638,-1.8907,-1.897,-1.8766,-1.9221,-1.9656,-2.0067,-2.0371,-2.0496,-2.0388,-2.0329,-2.0056,-1.9459,-1.9018,-1.8765,-1.8765,-1.8784,-1.8989,-1.9503,-1.9275,-1.9232,-1.9464,-1.9319,-1.9116,-1.913,-1.9362,-1.9599,-1.9715,-2.005,-2.045,-2.0843,-2.1625,-2.2263,-2.2658,-2.2188,-2.141,-2.0483,-2.024,-2.0509,-2.1062,-2.1156,-2.147,-2.2089,-2.2398,-2.2458,-2.2188,-2.2443,-2.2568,-2.2562,-2.2592,-2.2727,-2.3002,-2.3311,-2.3552,-2.3979,-2.4156,-2.4281,-2.4281,-2.4281,-2.4281,-0.7073,-0.7199,-0.7059,-0.7117,-0.7169,-0.7172,-0.7917,-0.9106,-0.898,-1.0433,-1.2899,-1.3741,-1.373,-1.3246,-1.3377,-1.323,-1.2904,-1.2759,-1.2705,-1.2705,-1.2705,-1.2735,-1.2813,-1.3031,-1.3492,-1.4132,-1.413,-1.4482,-1.5112,-1.5078,-1.5582,-1.6644,-1.788,-1.8458,-1.8389,-1.8207,-1.8009,-1.7743,-1.7047,-1.6597,-1.6288,-1.5909,-1.5505,-1.516,-1.5401,-1.5576,-1.5647,-1.6317,-1.6808,-1.7009,-1.789,-1.8329,-1.8201,-1.867,-1.8914,-1.884,-1.8871,-1.8988,-1.9157,-1.9425,-1.9656,-1.9798,-1.9798,-1.9674,-1.9427,-1.9709,-1.9649,-1.8891,-1.8547,-1.8358,-1.8358,-1.8344,-1.8461,-1.8765,-1.8803,-1.8836,-1.895,-1.8969,-1.8955,-1.8969,-1.903,-1.9319,-1.9619,-1.953,-1.97,-2.0453,-2.1302,-2.2113,-2.2598,-2.2793,-2.2368,-2.15,-2.0912,-2.0838,-2.1365,-2.1226,-2.135,-2.2203,-2.2149,-2.1994,-2.1859,-2.1724,-2.1849,-2.1964,-2.1859,-2.1999,-2.2414,-2.2647,-2.2935,-2.3361,-2.355,-2.3825,-2.3979,-2.4005,-2.4128,-0.7196,-0.7207,-0.7191,-0.7084,-0.7008,-0.6999,-0.7633,-0.8576,-0.8839,-0.9463,-1.0503,-1.1618,-1.265,-1.3362,-1.3223,-1.3227,-1.3363,-1.2928,-1.2711,-1.2711,-1.2705,-1.2837,-1.2999,-1.3065,-1.3248,-1.354,-1.3401,-1.3379,-1.3536,-1.3943,-1.462,-1.5456,-1.6417,-1.7145,-1.745,-1.7859,-1.8228,-1.8548,-1.8145,-1.7395,-1.6367,-1.59,-1.5505,-1.512,-1.53,-1.5494,-1.5605,-1.579,-1.6403,-1.738,-1.7302,-1.7639,-1.8555,-1.877,-1.8627,-1.8322,-1.8505,-1.8746,-1.9021,-1.9369,-1.9656,-1.9773,-1.9786,-1.9397,-1.8538,-1.8719,-1.8874,-1.8607,-1.816,-1.7861,-1.7882,-1.7882,-1.7922,-1.8008,-1.8008,-1.8082,-1.8461,-1.8539,-1.8539,-1.8539,-1.8803,-1.9069,-1.897,-1.914,-1.9674,-2.0446,-2.1461,-2.2332,-2.2673,-2.2951,-2.3107,-2.2388,-2.1545,-2.0838,-2.0961,-2.1291,-2.1261,-2.1126,-2.1864,-2.1949,-2.162,-2.1545,-2.1784,-2.1699,-2.1879,-2.1614,-2.1813,-2.1991,-2.2169,-2.2609,-2.2773,-2.2763,-2.3209,-2.344,-2.362,-0.715,-0.7202,-0.7139,-0.7027,-0.6978,-0.691,-0.7163,-0.7527,-0.755,-0.8094,-0.8936,-0.9596,-1.0778,-1.2374,-1.302,-1.3425,-1.3483,-1.3121,-1.2952,-1.294,-1.2783,-1.2765,-1.288,-1.3055,-1.3137,-1.3272,-1.3131,-1.3083,-1.3204,-1.369,-1.4179,-1.461,-1.5696,-1.67,-1.7428,-1.7299,-1.7546,-1.8301,-1.7615,-1.7006,-1.6663,-1.6276,-1.5982,-1.5771,-1.5297,-1.531,-1.5851,-1.5882,-1.6208,-1.6995,-1.7012,-1.7242,-1.7719,-1.7831,-1.7956,-1.8148,-1.874,-1.914,-1.9332,-1.957,-1.9734,-1.9798,-1.951,-1.9121,-1.8694,-1.8268,-1.7952,-1.7895,-1.7644,-1.7434,-1.7447,-1.7455,-1.7523,-1.7727,-1.7787,-1.7882,-1.8048,-1.8088,-1.8088,-1.8088,-1.8226,-1.8344,-1.8364,-1.8558,-1.9152,-1.9992,-2.0857,-2.1514,-2.2431,-2.2577,-2.2532,-2.2553,-2.1874,-2.138,-2.1246,-2.0737,-2.0647,-2.0707,-2.0782,-2.0741,-2.0741,-2.0546,-2.0636,-2.0966,-2.0816,-2.0835,-2.1136,-2.1371,-2.1576,-2.2099,-2.2762,-2.2994,-2.324,-2.3227,-2.3498,-0.7111,-0.7141,-0.6983,-0.6915,-0.6877,-0.679,-0.6733,-0.6695,-0.6608,-0.7023,-0.7721,-0.8118,-0.9184,-1.0804,-1.2362,-1.3037,-1.3077,-1.3094,-1.3083,-1.3103,-1.291,-1.2819,-1.2843,-1.3103,-1.323,-1.3173,-1.3157,-1.3041,-1.3032,-1.3319,-1.3557,-1.3795,-1.4805,-1.593,-1.6847,-1.6692,-1.7141,-1.7956,-1.7514,-1.7288,-1.726,-1.6864,-1.6508,-1.6248,-1.5324,-1.5172,-1.5911,-1.5685,-1.5859,-1.643,-1.6648,-1.6816,-1.7014,-1.7069,-1.7401,-1.8001,-1.8744,-1.9251,-1.9431,-1.9822,-1.9899,-1.961,-1.9309,-1.902,-1.8568,-1.7978,-1.7488,-1.7191,-1.7217,-1.7217,-1.701,-1.701,-1.7209,-1.7612,-1.7693,-1.7754,-1.8024,-1.7973,-1.7873,-1.7846,-1.7902,-1.7868,-1.8028,-1.8279,-1.8722,-1.936,-1.9884,-2.043,-2.1658,-2.1794,-2.1904,-2.2313,-2.1849,-2.144,-2.1365,-2.1006,-2.0483,-2.0213,-2.0183,-2.0247,-1.9914,-1.9884,-1.9929,-2.0591,-2.0007,-1.9897,-2.0458,-2.0761,-2.099,-2.1953,-2.2536,-2.2682,-2.2509,-2.2784,-2.3264,-0.7141,-0.6978,-0.6864,-0.6752,-0.6638,-0.6632,-0.6514,-0.6427,-0.6453,-0.6448,-0.6703,-0.7534,-0.8212,-0.8727,-1.0857,-1.1952,-1.2119,-1.2744,-1.3025,-1.3101,-1.3059,-1.3059,-1.3083,-1.3369,-1.3471,-1.3375,-1.3181,-1.2982,-1.2753,-1.2541,-1.2499,-1.2845,-1.3682,-1.4395,-1.5385,-1.6402,-1.7368,-1.7869,-1.8344,-1.8593,-1.8244,-1.767,-1.7046,-1.6352,-1.5515,-1.5204,-1.5365,-1.5155,-1.5316,-1.5819,-1.6084,-1.6407,-1.6906,-1.7004,-1.722,-1.7719,-1.8328,-1.8771,-1.9146,-1.9936,-2.0112,-1.9296,-1.9397,-1.9083,-1.7825,-1.7865,-1.7626,-1.6697,-1.7141,-1.7163,-1.68,-1.6768,-1.6885,-1.7346,-1.746,-1.7846,-1.8601,-1.8183,-1.8026,-1.7948,-1.7815,-1.7869,-1.8062,-1.833,-1.8439,-1.8793,-1.9448,-2.0122,-2.0371,-2.1065,-2.1456,-2.152,-2.1212,-2.0729,-2.0789,-2.0737,-2.0617,-2.0423,-2.0329,-2.0557,-2.0408,-2.0288,-2.0303,-2.0228,-1.9966,-1.9858,-2.0,-2.015,-2.0327,-2.0888,-2.1381,-2.1538,-2.1739,-2.2485,-2.2995,-0.7029,-0.6864,-0.6823,-0.673,-0.6613,-0.6484,-0.6425,-0.6389,-0.6387,-0.6387,-0.6487,-0.6833,-0.703,-0.7223,-0.889,-1.0519,-1.19,-1.2088,-1.2471,-1.3009,-1.2928,-1.285,-1.288,-1.2958,-1.2994,-1.2982,-1.2898,-1.2904,-1.2933,-1.2874,-1.2964,-1.3214,-1.3655,-1.4289,-1.5076,-1.5383,-1.5958,-1.6818,-1.7282,-1.7451,-1.7501,-1.7465,-1.7348,-1.7046,-1.6028,-1.5661,-1.6072,-1.588,-1.5802,-1.581,-1.6013,-1.6186,-1.6447,-1.6786,-1.7153,-1.7533,-1.8163,-1.866,-1.8996,-1.9356,-1.9447,-1.907,-1.882,-1.848,-1.7639,-1.7574,-1.7488,-1.7212,-1.7247,-1.7375,-1.7539,-1.7287,-1.7149,-1.7385,-1.7725,-1.8061,-1.8215,-1.7944,-1.7623,-1.7565,-1.7394,-1.7545,-1.819,-1.8059,-1.7943,-1.8488,-1.865,-1.8941,-1.947,-1.974,-1.9995,-2.0546,-2.0339,-1.9866,-1.9866,-2.0125,-2.0243,-2.0318,-2.0344,-2.0374,-2.0299,-2.0049,-1.9974,-1.9992,-1.9819,-1.9825,-1.995,-2.0294,-2.0337,-2.0233,-2.0681,-2.1063,-2.1063,-2.1972,-2.253,-0.6853,-0.6744,-0.6698,-0.6638,-0.6554,-0.6422,-0.6387,-0.6387,-0.6387,-0.6387,-0.6387,-0.6387,-0.6387,-0.6537,-0.7378,-0.8806,-1.0649,-1.0948,-1.1594,-1.2398,-1.2361,-1.2468,-1.2713,-1.2879,-1.2916,-1.2837,-1.2741,-1.285,-1.3053,-1.3083,-1.326,-1.3495,-1.378,-1.4268,-1.4879,-1.4867,-1.5196,-1.5828,-1.6298,-1.6702,-1.7056,-1.7316,-1.756,-1.7542,-1.6771,-1.6324,-1.6437,-1.6225,-1.6047,-1.5957,-1.6085,-1.618,-1.6145,-1.6617,-1.7044,-1.7366,-1.7918,-1.8471,-1.8873,-1.9337,-1.9433,-1.898,-1.9008,-1.8668,-1.7745,-1.7629,-1.7576,-1.7463,-1.7589,-1.784,-1.8066,-1.8016,-1.7915,-1.794,-1.8254,-1.8555,-1.8656,-1.8254,-1.7926,-1.7745,-1.7658,-1.7942,-1.8435,-1.7935,-1.7924,-1.8454,-1.8077,-1.8167,-1.863,-1.8759,-1.8725,-1.9569,-1.9405,-1.9165,-1.9149,-1.932,-1.9589,-1.9685,-1.9819,-1.9934,-2.0143,-1.9863,-1.975,-1.9723,-1.9759,-1.9795,-2.0002,-2.0376,-2.0337,-2.0079,-2.0464,-2.0938,-2.1182,-2.1549,-2.2108,-0.6686,-0.6622,-0.6443,-0.6414,-0.6403,-0.6392,-0.6387,-0.6387,-0.6387,-0.6387,-0.6387,-0.6387,-0.6387,-0.6437,-0.6584,-0.7129,-0.8238,-0.9328,-1.0292,-1.118,-1.1375,-1.1852,-1.252,-1.2968,-1.3225,-1.3071,-1.285,-1.2892,-1.3173,-1.3236,-1.3344,-1.3574,-1.3821,-1.4213,-1.4701,-1.4917,-1.5116,-1.5333,-1.5885,-1.664,-1.7277,-1.7254,-1.7491,-1.785,-1.7488,-1.6958,-1.6376,-1.6137,-1.6085,-1.6211,-1.6351,-1.6316,-1.6292,-1.6648,-1.6948,-1.7268,-1.7675,-1.8078,-1.8599,-1.9826,-1.9814,-1.908,-1.9785,-1.9489,-1.8203,-1.8041,-1.8047,-1.7929,-1.8003,-1.8267,-1.843,-1.8694,-1.8882,-1.8983,-1.8945,-1.9171,-1.9472,-1.9271,-1.8782,-1.8341,-1.8325,-1.8556,-1.8562,-1.8358,-1.8223,-1.8205,-1.8036,-1.7835,-1.797,-1.8143,-1.8411,-1.8487,-1.848,-1.8416,-1.845,-1.85,-1.876,-1.8979,-1.9117,-1.9288,-1.976,-1.9753,-1.9811,-1.9815,-2.0022,-2.0062,-1.9797,-2.0125,-2.0098,-2.0025,-2.0482,-2.0661,-2.0756,-2.1016,-2.1773,-0.6595,-0.657,-0.653,-0.6462,-0.6392,-0.6387,-0.6387,-0.6387,-0.6387,-0.6387,-0.6387,-0.6387,-0.6387,-0.6387,-0.6387,-0.6587,-0.6927,-0.7421,-0.8441,-0.9875,-1.018,-1.045,-1.0999,-1.1756,-1.2581,-1.3222,-1.3077,-1.3326,-1.3797,-1.3743,-1.3888,-1.425,-1.422,-1.423,-1.4403,-1.4543,-1.4524,-1.443,-1.5273,-1.5814,-1.5883,-1.6266,-1.6727,-1.7099,-1.682,-1.659,-1.6718,-1.6757,-1.6687,-1.6449,-1.6683,-1.6896,-1.6982,-1.7123,-1.7304,-1.7486,-1.7687,-1.7945,-1.8213,-1.8696,-1.8905,-1.8459,-1.873,-1.8685,-1.8301,-1.8331,-1.8712,-1.9131,-1.9083,-1.9007,-1.9673,-1.966,-1.9409,-1.9045,-1.9321,-1.9585,-1.9672,-1.9359,-1.9032,-1.8891,-1.8705,-1.8962,-1.9507,-1.9261,-1.8675,-1.861,-1.8297,-1.7935,-1.7567,-1.7644,-1.7585,-1.7605,-1.7618,-1.7794,-1.7957,-1.8024,-1.8097,-1.8422,-1.8618,-1.8874,-1.9328,-1.9545,-1.9653,-1.9842,-2.0102,-2.0083,-1.9854,-1.9708,-1.9672,-1.9744,-1.9969,-2.0014,-1.9936,-2.0569,-2.1549,-0.5782,-0.5841,-0.6294,-0.6457,-0.6389,-0.6387,-0.6387,-0.6387,-0.6387,-0.6387,-0.6387,-0.6387,-0.6387,-0.6387,-0.6387,-0.6387,-0.6387,-0.6387,-0.7134,-0.8355,-0.8864,-0.931,-1.0075,-1.135,-1.2451,-1.3284,-1.35,-1.387,-1.4413,-1.4304,-1.4328,-1.4491,-1.4485,-1.4389,-1.4316,-1.4292,-1.4165,-1.4046,-1.454,-1.496,-1.5126,-1.546,-1.5967,-1.6401,-1.6299,-1.6334,-1.6643,-1.6758,-1.6813,-1.6825,-1.7111,-1.733,-1.7422,-1.7533,-1.7605,-1.755,-1.7722,-1.785,-1.7781,-1.8295,-1.8265,-1.8009,-1.8346,-1.8438,-1.8157,-1.8108,-1.8561,-1.8827,-1.8528,-1.8633,-1.9378,-1.9643,-1.9326,-1.9068,-1.947,-1.9786,-1.9748,-1.9497,-1.9346,-1.9371,-1.9316,-1.9745,-2.0204,-1.9911,-1.9266,-1.9172,-1.8754,-1.8192,-1.7721,-1.7586,-1.7525,-1.7442,-1.7408,-1.7542,-1.7589,-1.7566,-1.751,-1.782,-1.816,-1.8531,-1.8984,-1.8989,-1.9037,-1.9392,-1.9638,-1.9561,-1.9372,-1.9216,-1.9128,-1.9295,-1.9493,-1.9574,-1.9786,-2.0842,-2.1734,-0.4464,-0.4541,-0.5744,-0.6303,-0.6387,-0.6387,-0.6387,-0.6387,-0.6387,-0.6387,-0.6387,-0.6387,-0.6387,-0.6387,-0.6387,-0.6387,-0.6387,-0.6387,-0.6431,-0.6895,-0.7521,-0.8579,-0.9895,-1.125,-1.2271,-1.3145,-1.3757,-1.4194,-1.4477,-1.4622,-1.4606,-1.4473,-1.4612,-1.457,-1.4352,-1.4298,-1.4171,-1.3952,-1.3973,-1.4352,-1.4865,-1.4895,-1.5245,-1.5904,-1.5953,-1.6055,-1.626,-1.6371,-1.6634,-1.7169,-1.7463,-1.7581,-1.7545,-1.7803,-1.7803,-1.7543,-1.7793,-1.7685,-1.7556,-1.825,-1.8573,-1.7726,-1.8533,-1.9113,-1.7884,-1.765,-1.7629,-1.7612,-1.7444,-1.7527,-1.8182,-1.8627,-1.8902,-1.9013,-1.9423,-1.9773,-1.9798,-1.9773,-1.971,-1.9787,-2.0029,-2.0386,-2.0836,-2.0239,-1.9932,-1.9656,-1.9264,-1.8754,-1.8166,-1.7944,-1.8048,-1.7852,-1.7499,-1.7539,-1.7669,-1.7429,-1.7353,-1.7483,-1.7786,-1.8098,-1.8607,-1.8663,-1.8682,-1.9013,-1.9287,-1.9142,-1.9004,-1.8935,-1.8865,-1.8974,-1.9157,-1.9306,-1.9849,-2.0718,-2.151,-0.3379,-0.4415,-0.4769,-0.5496,-0.6342,-0.6387,-0.6387,-0.6387,-0.6389,-0.6395,-0.6387,-0.6387,-0.6392,-0.6387,-0.6387,-0.6387,-0.6387,-0.6387,-0.6387,-0.6448,-0.676,-0.7824,-0.9015,-0.9648,-1.0704,-1.1967,-1.2835,-1.3441,-1.4082,-1.4644,-1.4873,-1.489,-1.4713,-1.4588,-1.434,-1.4304,-1.4159,-1.3906,-1.3881,-1.388,-1.3949,-1.4045,-1.4289,-1.4779,-1.5047,-1.5498,-1.615,-1.6519,-1.6923,-1.7376,-1.7505,-1.7662,-1.7808,-1.7939,-1.7949,-1.7871,-1.79,-1.7939,-1.7854,-1.8111,-1.8151,-1.7869,-1.8027,-1.8067,-1.8175,-1.758,-1.769,-1.8063,-1.8181,-1.7963,-1.8261,-1.8469,-1.8527,-1.8499,-1.9135,-1.9695,-1.9721,-1.9798,-1.9798,-1.9824,-2.0029,-2.0297,-2.045,-2.0473,-2.0268,-1.9917,-1.9643,-1.9211,-1.8532,-1.8192,-1.8231,-1.7944,-1.7695,-1.7748,-1.7695,-1.7408,-1.7264,-1.7285,-1.7431,-1.7556,-1.8133,-1.8601,-1.8663,-1.8829,-1.9252,-1.928,-1.9028,-1.8866,-1.8837,-1.8671,-1.8836,-1.9007,-1.9422,-2.0135,-2.096,-0.1995,-0.2962,-0.3474,-0.447,-0.5636,-0.5734,-0.5984,-0.6348,-0.6441,-0.643,-0.6408,-0.6446,-0.6433,-0.6392,-0.6387,-0.6387,-0.6387,-0.6387,-0.6416,-0.6526,-0.6581,-0.725,-0.817,-0.8797,-0.9839,-1.0806,-1.1938,-1.2643,-1.3257,-1.4179,-1.4602,-1.4601,-1.4752,-1.4751,-1.4497,-1.4334,-1.4232,-1.4032,-1.3863,-1.3699,-1.3672,-1.3509,-1.3685,-1.4035,-1.4296,-1.4772,-1.5556,-1.622,-1.6837,-1.7232,-1.7392,-1.7529,-1.7818,-1.7896,-1.7896,-1.7974,-1.8008,-1.7949,-1.7822,-1.7891,-1.7822,-1.7598,-1.748,-1.7629,-1.7594,-1.7194,-1.7399,-1.7534,-1.7435,-1.7319,-1.7449,-1.7724,-1.7963,-1.8177,-1.8712,-1.9083,-1.9095,-1.9267,-1.9436,-1.9552,-1.9875,-2.0322,-2.0502,-2.0679,-2.0518,-2.0294,-2.0229,-1.9536,-1.8767,-1.8558,-1.8323,-1.8087,-1.7761,-1.7682,-1.7761,-1.7565,-1.7604,-1.7591,-1.7507,-1.7542,-1.783,-1.8398,-1.8351,-1.8522,-1.9062,-1.9275,-1.8838,-1.8529,-1.8433,-1.8377,-1.8543,-1.874,-1.9075,-1.9517,-2.0357,-0.0412,-0.091,-0.2122,-0.3379,-0.4535,-0.4643,-0.5107,-0.5924,-0.6203,-0.6246,-0.6242,-0.6455,-0.6465,-0.6389,-0.6387,-0.6387,-0.6389,-0.6414,-0.6562,-0.6627,-0.6676,-0.6958,-0.7386,-0.8488,-0.9139,-0.9767,-1.1186,-1.1725,-1.2164,-1.3252,-1.3869,-1.3923,-1.4503,-1.4775,-1.4557,-1.4395,-1.431,-1.4195,-1.3827,-1.3704,-1.3681,-1.3436,-1.3412,-1.36,-1.3928,-1.4276,-1.4949,-1.5621,-1.6318,-1.6967,-1.7109,-1.7373,-1.7638,-1.7681,-1.7784,-1.793,-1.7954,-1.7861,-1.7607,-1.7842,-1.7744,-1.7272,-1.7646,-1.7613,-1.7105,-1.6874,-1.67,-1.6487,-1.595,-1.6176,-1.6289,-1.674,-1.72,-1.7611,-1.7913,-1.7941,-1.805,-1.8548,-1.9013,-1.9066,-1.9734,-2.0386,-2.0772,-2.0875,-2.0712,-2.0831,-2.0713,-2.0268,-1.9564,-1.9198,-1.8806,-1.8336,-1.7957,-1.7539,-1.7656,-1.7748,-1.7904,-1.8009,-1.7878,-1.7838,-1.7786,-1.8062,-1.7929,-1.8148,-1.895,-1.8866,-1.8158,-1.7964,-1.8214,-1.8169,-1.8365,-1.841,-1.854,-1.902,-1.9724,0.0477,-0.0824,-0.1082,-0.2144,-0.3438,-0.3529,-0.3705,-0.4015,-0.485,-0.521,-0.5335,-0.6002,-0.6369,-0.6392,-0.6389,-0.6387,-0.6422,-0.6554,-0.6692,-0.688,-0.6801,-0.6777,-0.6912,-0.7452,-0.7766,-0.8391,-0.9503,-1.017,-1.0676,-1.181,-1.2872,-1.3217,-1.356,-1.3953,-1.4309,-1.4292,-1.4298,-1.4244,-1.3966,-1.3713,-1.3598,-1.3465,-1.3336,-1.3368,-1.3881,-1.4377,-1.475,-1.5134,-1.5498,-1.5943,-1.6652,-1.719,-1.7439,-1.7617,-1.7701,-1.7818,-1.793,-1.7959,-1.791,-1.792,-1.7959,-1.7734,-1.7588,-1.7441,-1.7295,-1.6872,-1.6543,-1.6261,-1.631,-1.6324,-1.6347,-1.622,-1.6498,-1.6797,-1.6892,-1.6864,-1.7032,-1.8073,-1.8815,-1.916,-1.9668,-2.0297,-2.0553,-2.0629,-2.0768,-2.1185,-2.1158,-2.0962,-2.0401,-1.9736,-1.9201,-1.8614,-1.8192,-1.7865,-1.8127,-1.8231,-1.8349,-1.8466,-1.8362,-1.8519,-1.8453,-1.8205,-1.827,-1.8558,-1.8986,-1.8597,-1.8009,-1.8659,-1.915,-1.868,-1.8211,-1.8382,-1.8577,-1.8882,-1.892,0.1111,0.0154,0.0,-0.092,-0.2148,-0.2424,-0.2757,-0.3246,-0.3874,-0.4115,-0.4289,-0.5264,-0.5705,-0.5802,-0.6165,-0.6488,-0.6622,-0.673,-0.6787,-0.6823,-0.6779,-0.6738,-0.6643,-0.6675,-0.6944,-0.7413,-0.8327,-0.8819,-0.9323,-1.0377,-1.1388,-1.1868,-1.2571,-1.3259,-1.3745,-1.3951,-1.4142,-1.4232,-1.4039,-1.3827,-1.3676,-1.3448,-1.3337,-1.3359,-1.3895,-1.4365,-1.4482,-1.481,-1.5008,-1.5335,-1.5951,-1.6651,-1.7042,-1.7208,-1.7378,-1.7813,-1.793,-1.8008,-1.8008,-1.8008,-1.7998,-1.7974,-1.7783,-1.7725,-1.751,-1.7119,-1.6638,-1.6436,-1.6408,-1.6402,-1.6477,-1.6214,-1.6175,-1.6316,-1.6402,-1.6402,-1.6591,-1.7457,-1.8174,-1.8379,-1.878,-1.9267,-1.9618,-2.0016,-2.0271,-2.0488,-2.0912,-2.0728,-2.016,-1.9551,-1.9326,-1.8855,-1.8431,-1.8274,-1.8588,-1.8767,-1.8832,-1.8911,-1.8911,-1.9277,-1.9601,-1.9248,-1.8858,-1.9094,-1.9251,-1.8819,-1.8479,-1.9251,-1.9486,-1.8713,-1.8297,-1.8485,-1.8567,-1.8611,-1.8515,0.1523,0.1167,0.0913,0.0153,-0.0881,-0.1248,-0.1836,-0.2598,-0.3028,-0.3055,-0.3171,-0.4188,-0.4669,-0.4836,-0.5397,-0.6041,-0.6529,-0.6896,-0.6885,-0.6774,-0.6787,-0.6695,-0.6573,-0.657,-0.6675,-0.6844,-0.749,-0.7801,-0.8214,-0.9124,-0.9962,-1.0314,-1.1409,-1.2327,-1.2878,-1.3339,-1.3766,-1.4082,-1.4008,-1.3894,-1.3845,-1.3483,-1.339,-1.3453,-1.3716,-1.4009,-1.4092,-1.4357,-1.4596,-1.4693,-1.5033,-1.5632,-1.6253,-1.6626,-1.683,-1.7549,-1.7515,-1.7467,-1.7426,-1.7613,-1.7759,-1.7828,-1.7964,-1.7988,-1.7812,-1.7441,-1.7028,-1.6699,-1.6566,-1.6296,-1.6437,-1.6243,-1.6204,-1.6335,-1.6402,-1.6402,-1.6477,-1.6842,-1.7157,-1.7479,-1.8174,-1.8789,-1.9023,-1.9336,-1.9545,-1.9831,-2.0284,-2.0434,-1.9859,-1.9511,-1.9367,-1.8903,-1.8403,-1.8418,-1.8718,-1.9538,-1.9577,-1.9499,-1.9512,-1.9863,-2.0347,-2.0059,-1.9627,-1.9392,-1.9303,-1.9015,-1.9002,-1.9512,-1.9394,-1.8597,-1.8593,-1.8982,-1.8801,-1.838,-1.8264,0.1568,0.1241,0.0982,0.057,0.0104,-0.0158,-0.0425,-0.0639,-0.1597,-0.1913,-0.2006,-0.2979,-0.3531,-0.3612,-0.3618,-0.4364,-0.5491,-0.615,-0.674,-0.6709,-0.673,-0.655,-0.6608,-0.6594,-0.6597,-0.6705,-0.7024,-0.7241,-0.7449,-0.795,-0.8783,-0.9473,-1.0017,-1.0838,-1.1853,-1.2411,-1.2938,-1.3567,-1.3726,-1.3761,-1.3713,-1.3733,-1.3595,-1.3492,-1.3577,-1.3664,-1.3753,-1.3821,-1.3912,-1.4157,-1.4001,-1.451,-1.5269,-1.5883,-1.615,-1.631,-1.6489,-1.6626,-1.6501,-1.6777,-1.701,-1.7217,-1.751,-1.7872,-1.7857,-1.7774,-1.743,-1.7181,-1.6727,-1.6336,-1.6447,-1.6375,-1.6284,-1.6347,-1.6467,-1.6506,-1.6524,-1.6608,-1.6871,-1.7266,-1.7883,-1.8313,-1.8414,-1.862,-1.8883,-1.93,-1.9812,-1.9964,-1.9651,-1.9547,-1.9559,-1.8975,-1.8261,-1.8481,-1.8783,-1.9839,-2.0412,-2.0268,-2.0229,-2.0229,-2.0581,-2.062,-2.0373,-2.0007,-1.985,-1.9771,-1.9863,-1.9954,-1.9747,-1.9303,-1.9433,-1.9603,-1.93,-1.897,-1.8599,0.1675,0.1456,0.1246,0.0935,0.0573,0.0318,0.0107,-0.0053,-0.0533,-0.0746,-0.111,-0.1867,-0.244,-0.2586,-0.3051,-0.366,-0.4303,-0.4835,-0.5521,-0.588,-0.5917,-0.621,-0.6524,-0.6565,-0.6573,-0.6562,-0.668,-0.6907,-0.7146,-0.7535,-0.7982,-0.8391,-0.9026,-0.99,-1.0576,-1.1231,-1.178,-1.2483,-1.297,-1.328,-1.3353,-1.3608,-1.3713,-1.3566,-1.3461,-1.3544,-1.3675,-1.3681,-1.3809,-1.4021,-1.3948,-1.4172,-1.4584,-1.5025,-1.5481,-1.5848,-1.5996,-1.6032,-1.5912,-1.6175,-1.6167,-1.6306,-1.6664,-1.6768,-1.695,-1.7076,-1.7512,-1.7498,-1.7005,-1.6732,-1.7179,-1.684,-1.6849,-1.7018,-1.7046,-1.7036,-1.7005,-1.682,-1.6979,-1.7173,-1.7255,-1.7483,-1.7651,-1.7885,-1.8214,-1.873,-1.9313,-1.938,-1.9253,-1.9412,-1.9475,-1.9318,-1.8808,-1.9276,-1.95,-2.0087,-2.0719,-2.0641,-2.0611,-2.0611,-2.0674,-2.0636,-2.0608,-2.0399,-2.0347,-2.0281,-2.0151,-2.0072,-2.0022,-2.0035,-2.0098,-2.0059,-1.9823,-1.9546,-1.9189,0.1774,0.1714,0.1403,0.1091,0.0781,0.0529,0.0213,0.0053,0.0053,0.0053,-0.0053,-0.0784,-0.1212,-0.1615,-0.232,-0.2958,-0.3121,-0.3434,-0.4218,-0.4759,-0.5098,-0.5518,-0.6048,-0.6503,-0.6597,-0.6603,-0.6627,-0.6733,-0.6955,-0.7252,-0.7394,-0.7789,-0.8674,-0.9198,-0.9515,-1.0268,-1.0637,-1.1279,-1.1796,-1.2334,-1.2582,-1.2928,-1.3314,-1.3173,-1.3171,-1.3268,-1.3551,-1.3675,-1.3831,-1.4033,-1.4068,-1.4117,-1.4117,-1.4279,-1.49,-1.5717,-1.5713,-1.5653,-1.5475,-1.5501,-1.5375,-1.5409,-1.5645,-1.5786,-1.613,-1.6865,-1.7437,-1.7728,-1.7529,-1.7258,-1.7705,-1.744,-1.7367,-1.7482,-1.7585,-1.7626,-1.7523,-1.7368,-1.7192,-1.7136,-1.6758,-1.6848,-1.7223,-1.7133,-1.7442,-1.776,-1.8329,-1.8583,-1.8563,-1.9032,-1.9219,-1.9456,-1.9586,-2.0227,-2.0443,-2.0398,-2.0678,-2.05,-2.0438,-2.0397,-2.0511,-2.0599,-2.0572,-2.0546,-2.0607,-2.0491,-2.0334,-2.0255,-2.0308,-2.0386,-2.053,-2.0502,-2.0253,-2.0046,-1.9795,0.1795,0.1662,0.1403,0.1143,0.0885,0.0582,0.0264,0.0052,0.0265,0.037,0.0313,0.0208,0.0053,-0.0322,-0.1378,-0.1942,-0.2224,-0.278,-0.3354,-0.3691,-0.447,-0.4928,-0.5253,-0.6167,-0.6603,-0.6671,-0.673,-0.6804,-0.6867,-0.695,-0.7194,-0.7574,-0.7856,-0.8255,-0.9078,-0.9504,-1.0075,-1.0809,-1.1121,-1.1277,-1.1429,-1.1403,-1.1682,-1.1949,-1.2126,-1.2391,-1.3046,-1.3307,-1.3646,-1.3948,-1.4039,-1.4088,-1.4124,-1.4286,-1.4426,-1.4552,-1.451,-1.4284,-1.4083,-1.4298,-1.4591,-1.473,-1.5211,-1.5844,-1.6226,-1.6858,-1.7569,-1.7926,-1.7868,-1.7885,-1.7874,-1.7561,-1.7424,-1.751,-1.7707,-1.7728,-1.7709,-1.7739,-1.7575,-1.7544,-1.7316,-1.7089,-1.7153,-1.6861,-1.667,-1.6987,-1.7324,-1.7592,-1.7992,-1.8542,-1.9206,-1.9558,-2.0016,-2.0637,-2.1033,-2.1024,-2.0786,-2.0507,-2.0391,-2.0296,-2.0322,-2.0476,-2.0537,-2.0549,-2.0587,-2.0586,-2.0406,-2.0404,-2.057,-2.0646,-2.0646,-2.0673,-2.0646,-2.0451,-2.0255,0.1712,0.1663,0.1559,0.1342,0.1077,0.0887,0.0676,0.0515,0.0573,0.0523,0.0417,0.042,0.0321,0.0055,-0.0614,-0.078,-0.0888,-0.1449,-0.199,-0.2651,-0.3545,-0.4357,-0.5116,-0.6007,-0.6611,-0.6599,-0.6706,-0.6711,-0.6784,-0.6987,-0.7211,-0.7397,-0.7757,-0.8071,-0.8571,-0.8812,-0.8932,-0.9268,-0.976,-1.0542,-1.0928,-1.0976,-1.091,-1.1119,-1.1036,-1.131,-1.1743,-1.24,-1.2778,-1.3167,-1.3603,-1.4088,-1.413,-1.4166,-1.4243,-1.4223,-1.4212,-1.4131,-1.3975,-1.3757,-1.3822,-1.4086,-1.4638,-1.5164,-1.5948,-1.6476,-1.7089,-1.7626,-1.7447,-1.7531,-1.7795,-1.7608,-1.7758,-1.7836,-1.7765,-1.7948,-1.7985,-1.7931,-1.7892,-1.7904,-1.7854,-1.7564,-1.7307,-1.7108,-1.6815,-1.6652,-1.6977,-1.7222,-1.7747,-1.8356,-1.9093,-1.9849,-2.0356,-2.0944,-2.1265,-2.1428,-2.1103,-2.0825,-2.068,-2.0523,-2.028,-2.03,-2.0347,-2.0246,-2.0131,-2.0195,-2.0308,-2.0498,-2.0648,-2.0686,-2.0699,-2.0699,-2.0699,-2.0673,-2.0399,0.1677,0.1702,0.1702,0.1488,0.1222,0.1188,0.1031,0.0817,0.0883,0.0835,0.0627,0.0582,0.038,0.0111,0.0,-0.0111,0.0055,0.0,-0.044,-0.1418,-0.2382,-0.3275,-0.3971,-0.5026,-0.5801,-0.6232,-0.6128,-0.6408,-0.6831,-0.7063,-0.7203,-0.7256,-0.7663,-0.7902,-0.7928,-0.821,-0.8398,-0.8113,-0.8728,-0.9418,-1.0021,-1.0069,-1.0088,-1.0146,-1.0108,-1.012,-1.0514,-1.1076,-1.1717,-1.2063,-1.2894,-1.3392,-1.3512,-1.3773,-1.3997,-1.4055,-1.4058,-1.4034,-1.3886,-1.3746,-1.3473,-1.3657,-1.4141,-1.4835,-1.564,-1.5779,-1.6101,-1.7167,-1.7179,-1.7252,-1.7394,-1.7479,-1.7401,-1.7555,-1.7724,-1.8047,-1.8213,-1.7931,-1.7926,-1.8075,-1.7996,-1.7893,-1.7647,-1.7472,-1.7129,-1.6591,-1.6643,-1.6913,-1.7521,-1.8249,-1.9068,-1.9896,-2.0257,-2.0811,-2.1209,-2.138,-2.1198,-2.1056,-2.0916,-2.0556,-2.0174,-2.0057,-2.0087,-1.9955,-1.9757,-1.9952,-2.0156,-2.0447,-2.0699,-2.0699,-2.0699,-2.0699,-2.0699,-2.0699,-2.0633,0.1647,0.162,0.1622,0.1483,0.1294,0.1245,0.1089,0.0986,0.1161,0.1211,0.1097,0.0954,0.0653,0.0388,0.0221,0.022,0.0383,0.011,0.0,-0.0324,-0.1067,-0.1926,-0.2661,-0.3403,-0.4262,-0.5126,-0.5229,-0.5836,-0.6658,-0.6819,-0.7119,-0.7411,-0.7579,-0.7689,-0.7786,-0.7934,-0.804,-0.7803,-0.8069,-0.8091,-0.8428,-0.8537,-0.8754,-0.9208,-0.9339,-0.9643,-1.0554,-1.0585,-1.0677,-1.0928,-1.1935,-1.2491,-1.2784,-1.3385,-1.3779,-1.3922,-1.3831,-1.3881,-1.3911,-1.3783,-1.3615,-1.372,-1.413,-1.4729,-1.5315,-1.6178,-1.6643,-1.6652,-1.67,-1.7077,-1.7132,-1.7093,-1.6893,-1.6973,-1.7107,-1.7186,-1.7387,-1.7583,-1.7637,-1.8043,-1.8222,-1.8268,-1.8109,-1.7977,-1.7337,-1.6798,-1.6653,-1.6913,-1.7616,-1.8333,-1.9147,-1.9803,-2.004,-2.0491,-2.1,-2.1074,-2.0986,-2.0931,-2.0819,-2.0345,-1.9844,-1.9837,-2.0044,-1.9704,-1.9552,-1.9795,-1.9965,-2.0118,-2.0309,-2.0599,-2.0699,-2.0699,-2.0699,-2.0699,-2.0699,0.2685,0.2565,0.1952,0.16,0.1557,0.1488,0.1396,0.142,0.1525,0.1475,0.1268,0.1021,0.0813,0.0653,0.0603,0.0602,0.0711,0.0657,0.0547,0.0,-0.0763,-0.1407,-0.194,-0.2575,-0.3642,-0.3968,-0.4145,-0.4777,-0.5877,-0.6021,-0.6684,-0.7039,-0.7185,-0.7604,-0.7732,-0.7638,-0.7651,-0.7737,-0.7661,-0.7653,-0.7743,-0.7932,-0.8115,-0.826,-0.8338,-0.8446,-0.8812,-0.9468,-0.9681,-1.0114,-1.1256,-1.1744,-1.2063,-1.2875,-1.3392,-1.3695,-1.3552,-1.3752,-1.3904,-1.3806,-1.3743,-1.4111,-1.4468,-1.4781,-1.5033,-1.5658,-1.5865,-1.597,-1.6114,-1.6396,-1.653,-1.647,-1.6379,-1.6378,-1.6368,-1.6388,-1.6546,-1.682,-1.7396,-1.7875,-1.8535,-1.9012,-1.8746,-1.8506,-1.775,-1.7006,-1.6913,-1.6965,-1.7636,-1.8333,-1.9083,-1.9749,-2.0009,-2.0366,-2.0869,-2.0891,-2.0836,-2.0826,-2.078,-2.0419,-2.003,-2.0105,-2.0182,-1.9728,-1.9333,-1.9478,-1.9594,-1.9706,-1.9952,-2.0309,-2.0561,-2.0699,-2.0699,-2.0624,-2.0549,0.3747,0.3645,0.293,0.222,0.1763,0.1648,0.1665,0.1697,0.1695,0.1646,0.1399,0.1142,0.0978,0.0972,0.0864,0.0981,0.0981,0.0926,0.0823,0.0439,-0.011,-0.0712,-0.1093,-0.1528,-0.1963,-0.2524,-0.2803,-0.3321,-0.463,-0.4695,-0.5139,-0.575,-0.6371,-0.6538,-0.7442,-0.7294,-0.7263,-0.7439,-0.7492,-0.755,-0.7578,-0.7785,-0.7939,-0.7899,-0.7945,-0.7914,-0.808,-0.8496,-0.8632,-0.9137,-0.9933,-1.0855,-1.1375,-1.1923,-1.2565,-1.2912,-1.3215,-1.3476,-1.3587,-1.3864,-1.3909,-1.4184,-1.4427,-1.4678,-1.4957,-1.5173,-1.5423,-1.5514,-1.5484,-1.552,-1.5899,-1.5892,-1.5793,-1.5746,-1.5784,-1.579,-1.6002,-1.625,-1.704,-1.7732,-1.8294,-1.8678,-1.8397,-1.8005,-1.7521,-1.6951,-1.6986,-1.6996,-1.7336,-1.8082,-1.8881,-1.9501,-1.9976,-2.0364,-2.0752,-2.0885,-2.1017,-2.1029,-2.0953,-2.0761,-2.0519,-2.0527,-2.009,-1.9407,-1.9152,-1.9167,-1.9275,-1.9417,-1.9746,-2.0105,-2.0233,-2.0258,-2.0156,-2.0042,-2.0118,0.4782,0.4776,0.4684,0.3516,0.1972,0.1743,0.1754,0.1713,0.1734,0.1744,0.169,0.1422,0.1311,0.125,0.1131,0.1137,0.1252,0.108,0.1029,0.0987,0.0713,0.0718,0.0611,0.0167,-0.0442,-0.0837,-0.1171,-0.1839,-0.3131,-0.3244,-0.3523,-0.3916,-0.4474,-0.5198,-0.6977,-0.7095,-0.7082,-0.7185,-0.7203,-0.7346,-0.7487,-0.7652,-0.7792,-0.7862,-0.7808,-0.7788,-0.7925,-0.783,-0.7941,-0.8122,-0.8743,-0.9323,-0.9515,-1.0409,-1.1058,-1.1354,-1.218,-1.2619,-1.2741,-1.3548,-1.3935,-1.4153,-1.4363,-1.4524,-1.4741,-1.4957,-1.5173,-1.5298,-1.5333,-1.5382,-1.5428,-1.544,-1.532,-1.5255,-1.5275,-1.5289,-1.5506,-1.6052,-1.6867,-1.7348,-1.7568,-1.7761,-1.7546,-1.7307,-1.7012,-1.6829,-1.6949,-1.7069,-1.7183,-1.7831,-1.8648,-1.92,-1.9746,-2.0263,-2.0617,-2.0985,-2.1167,-2.1201,-2.1144,-2.096,-2.0768,-2.0664,-2.0086,-1.9229,-1.9101,-1.9291,-1.919,-1.9105,-1.9277,-1.9396,-1.9565,-1.9629,-1.9525,-1.9551,-1.9707,0.5882,0.5787,0.5143,0.444,0.367,0.3008,0.2436,0.1844,0.1763,0.1823,0.1812,0.1658,0.1588,0.157,0.1517,0.1523,0.1581,0.1583,0.1532,0.1274,0.1211,0.1051,0.1003,0.089,0.0666,0.0391,0.0168,-0.0392,-0.1679,-0.1735,-0.2517,-0.3021,-0.3357,-0.4475,-0.5793,-0.6501,-0.7058,-0.7057,-0.7098,-0.715,-0.7232,-0.7342,-0.755,-0.7749,-0.7677,-0.774,-0.786,-0.7682,-0.7577,-0.7585,-0.8151,-0.8512,-0.8696,-0.954,-1.0193,-1.0582,-1.1278,-1.1456,-1.1886,-1.2613,-1.3434,-1.3822,-1.4243,-1.4398,-1.4531,-1.4741,-1.495,-1.5124,-1.5215,-1.5257,-1.5374,-1.5416,-1.533,-1.5139,-1.5083,-1.498,-1.5225,-1.6046,-1.6781,-1.6946,-1.7149,-1.7532,-1.7551,-1.7077,-1.668,-1.6386,-1.6433,-1.6707,-1.6847,-1.7601,-1.8413,-1.8889,-1.942,-1.9987,-2.0471,-2.0937,-2.1178,-2.1201,-2.1201,-2.1132,-2.0994,-2.0822,-2.0316,-1.9557,-1.9472,-1.9425,-1.8987,-1.8625,-1.8518,-1.8587,-1.8907,-1.9184,-1.9237,-1.9316,-1.9485,0.6986,0.6898,0.626,0.5766,0.5348,0.438,0.3381,0.2533,0.2397,0.222,0.1871,0.178,0.1769,0.1739,0.1794,0.1815,0.1818,0.1808,0.1766,0.1453,0.1499,0.1392,0.1281,0.1166,0.1225,0.1232,0.1121,0.0673,-0.0112,-0.0336,-0.0839,-0.1679,-0.2629,-0.3245,-0.4347,-0.5312,-0.631,-0.6426,-0.6597,-0.7086,-0.7084,-0.7148,-0.7294,-0.7409,-0.7489,-0.7592,-0.7667,-0.7698,-0.7604,-0.7682,-0.788,-0.8184,-0.8308,-0.8627,-0.9235,-0.9462,-1.0111,-1.0501,-1.1273,-1.1752,-1.2443,-1.2875,-1.3724,-1.4272,-1.4398,-1.4566,-1.4831,-1.5006,-1.5048,-1.5215,-1.5347,-1.5389,-1.5316,-1.5126,-1.509,-1.5035,-1.5227,-1.6057,-1.6366,-1.6557,-1.6858,-1.7247,-1.7465,-1.6946,-1.6451,-1.6137,-1.5876,-1.6153,-1.6476,-1.7274,-1.7983,-1.8462,-1.9205,-1.9935,-2.0484,-2.0937,-2.1155,-2.1201,-2.1201,-2.1221,-2.1052,-2.0814,-2.0385,-1.9902,-1.9512,-1.9039,-1.8476,-1.8139,-1.822,-1.8329,-1.8518,-1.8759,-1.8919,-1.8999,-1.9078,0.7988,0.8038,0.8038,0.7469,0.6681,0.5723,0.4724,0.3688,0.3635,0.3052,0.2029,0.2118,0.2221,0.2084,0.2026,0.2098,0.2172,0.2149,0.2051,0.19,0.1844,0.1737,0.1681,0.1679,0.1622,0.168,0.1683,0.1402,0.1234,0.0897,0.056,0.0,-0.1176,-0.1679,-0.2571,-0.3734,-0.4869,-0.5332,-0.5848,-0.6168,-0.6138,-0.6638,-0.674,-0.6885,-0.7118,-0.7346,-0.7456,-0.7444,-0.746,-0.7424,-0.7354,-0.7245,-0.7231,-0.7367,-0.7459,-0.794,-0.8982,-0.9802,-1.0534,-1.0933,-1.1241,-1.1714,-1.2918,-1.373,-1.3977,-1.3802,-1.4013,-1.4405,-1.4615,-1.4999,-1.5305,-1.5347,-1.5389,-1.5338,-1.5338,-1.5357,-1.5399,-1.5741,-1.5989,-1.6209,-1.6561,-1.6814,-1.6896,-1.6558,-1.6325,-1.5934,-1.5588,-1.532,-1.578,-1.6739,-1.7399,-1.7835,-1.8725,-1.9916,-2.0411,-2.0511,-2.1034,-2.1069,-2.119,-2.1178,-2.104,-2.0791,-2.0308,-1.9803,-1.9229,-1.8724,-1.8272,-1.8084,-1.8111,-1.822,-1.8329,-1.8356,-1.8545,-1.8437,-1.8437,0.8581,0.8528,0.8386,0.8223,0.8084,0.778,0.6598,0.502,0.486,0.462,0.4329,0.3405,0.3456,0.4273,0.3499,0.3677,0.3678,0.3567,0.3178,0.2909,0.2465,0.2018,0.1851,0.1906,0.1851,0.1795,0.1795,0.1739,0.157,0.1458,0.1177,0.0617,-0.0056,-0.028,-0.0951,-0.1958,-0.3007,-0.3935,-0.4527,-0.4766,-0.4976,-0.53,-0.5518,-0.5869,-0.6454,-0.6679,-0.6863,-0.7095,-0.7116,-0.7086,-0.712,-0.7102,-0.7139,-0.7187,-0.7323,-0.7768,-0.8376,-0.8807,-0.9292,-0.9946,-1.0294,-1.0467,-1.1456,-1.188,-1.218,-1.2479,-1.2814,-1.3584,-1.4223,-1.4608,-1.5124,-1.5305,-1.5389,-1.5389,-1.5389,-1.5431,-1.5472,-1.5514,-1.5722,-1.5839,-1.6203,-1.6585,-1.6613,-1.6559,-1.6301,-1.5809,-1.5378,-1.5024,-1.5091,-1.6083,-1.6739,-1.7183,-1.7902,-1.8975,-1.9366,-1.9508,-2.0326,-2.0905,-2.0985,-2.1008,-2.0925,-2.0651,-2.0232,-1.9643,-1.8942,-1.8501,-1.8192,-1.8084,-1.8084,-1.8084,-1.8166,-1.8139,-1.8084,-1.8084,-1.8111,0.8775,0.8775,0.8627,0.8711,0.8906,0.9101,0.8294,0.7135,0.642,0.5922,0.5472,0.4637,0.4749,0.5248,0.4689,0.4636,0.5135,0.4632,0.4301,0.4078,0.3469,0.3079,0.2744,0.2464,0.2241,0.2074,0.1795,0.1795,0.1683,0.1458,0.1177,0.1065,0.0729,0.0558,0.0056,-0.0613,-0.1282,-0.2218,-0.2921,-0.327,-0.3646,-0.3896,-0.4195,-0.453,-0.5258,-0.5591,-0.5819,-0.6125,-0.6467,-0.6596,-0.6731,-0.7098,-0.7095,-0.7139,-0.7279,-0.768,-0.7984,-0.8245,-0.864,-0.9082,-0.9297,-0.9515,-0.9951,-1.012,-1.0852,-1.1408,-1.226,-1.3105,-1.3704,-1.4258,-1.4824,-1.5257,-1.5347,-1.5389,-1.5389,-1.5389,-1.5431,-1.5431,-1.5472,-1.5555,-1.5922,-1.6409,-1.6565,-1.6506,-1.6339,-1.5987,-1.5454,-1.488,-1.4894,-1.5437,-1.6013,-1.6417,-1.7063,-1.7864,-1.8217,-1.8688,-1.937,-2.0071,-2.0462,-2.0526,-2.0628,-2.033,-1.9723,-1.9131,-1.8536,-1.8217,-1.7986,-1.8084,-1.8084,-1.8084,-1.8084,-1.8084,-1.8084,-1.8084,-1.8111,0.8833,0.8833,0.8882,0.9034,0.935,0.9609,0.9699,0.9596,0.7983,0.6927,0.6308,0.5808,0.5919,0.6366,0.5919,0.5808,0.6031,0.575,0.553,0.5472,0.4972,0.4472,0.3916,0.3692,0.3413,0.2521,0.2019,0.2129,0.1739,0.157,0.1402,0.1346,0.1065,0.0838,0.0555,0.0278,-0.0277,-0.0716,-0.1869,-0.268,-0.2865,-0.3043,-0.3208,-0.3197,-0.3507,-0.3764,-0.4031,-0.4586,-0.5462,-0.5769,-0.6256,-0.6786,-0.7098,-0.7095,-0.7279,-0.7459,-0.7724,-0.7984,-0.8204,-0.856,-0.8652,-0.87,-0.8616,-0.8915,-0.9694,-1.0381,-1.123,-1.1949,-1.2462,-1.3105,-1.3662,-1.4398,-1.4741,-1.4783,-1.479,-1.4915,-1.5041,-1.5173,-1.5431,-1.5555,-1.5839,-1.6319,-1.6603,-1.6573,-1.6514,-1.6201,-1.5608,-1.4904,-1.4862,-1.5151,-1.5275,-1.5635,-1.5933,-1.656,-1.7497,-1.7964,-1.8464,-1.9048,-1.9619,-1.9814,-1.9792,-1.9487,-1.915,-1.8438,-1.7724,-1.7896,-1.7872,-1.7838,-1.7909,-1.8084,-1.8084,-1.8084,-1.8084,-1.8084,-1.8111,0.9029,0.9072,0.9256,0.9347,0.9362,0.9675,0.9816,0.9761,0.9372,0.8982,0.8644,0.7919,0.7756,0.8149,0.7368,0.7257,0.7651,0.698,0.676,0.6422,0.6031,0.5641,0.5027,0.4916,0.4695,0.436,0.3692,0.2743,0.2297,0.1962,0.1683,0.1683,0.1402,0.1116,0.0996,0.072,0.0385,0.0218,-0.0487,-0.1242,-0.1178,-0.1737,-0.2017,-0.2246,-0.2571,-0.3021,-0.3295,-0.3594,-0.4035,-0.4338,-0.5271,-0.6144,-0.702,-0.7054,-0.7231,-0.7459,-0.7503,-0.772,-0.8072,-0.8292,-0.8384,-0.8524,-0.8568,-0.8616,-0.8876,-0.9349,-0.9903,-1.0626,-1.1311,-1.1992,-1.2674,-1.3451,-1.4055,-1.4097,-1.4146,-1.4398,-1.465,-1.4957,-1.5264,-1.5514,-1.5756,-1.6067,-1.6399,-1.6565,-1.6599,-1.6226,-1.5615,-1.5086,-1.4983,-1.5053,-1.4572,-1.4736,-1.449,-1.5118,-1.627,-1.7105,-1.751,-1.823,-1.8893,-1.898,-1.8916,-1.8669,-1.8356,-1.7503,-1.6957,-1.7259,-1.7444,-1.7374,-1.7501,-1.7815,-1.7991,-1.7936,-1.8057,-1.8084,-1.8084,0.9096,0.9157,0.9436,0.9666,0.9814,1.0016,1.0128,1.0194,1.0202,1.0198,1.0091,0.9309,0.9144,0.9651,0.8816,0.854,0.8937,0.8269,0.7989,0.7595,0.7204,0.6702,0.6422,0.6142,0.5584,0.5306,0.4804,0.397,0.3238,0.28,0.2633,0.2462,0.207,0.1557,0.1378,0.0983,0.0759,0.0588,0.0318,0.0211,0.0158,-0.0521,-0.0879,-0.1176,0.0,0.0,-0.2053,-0.2275,-0.2732,-0.321,-0.4073,-0.4899,-0.5544,-0.5669,-0.616,-0.6609,-0.6918,-0.7231,-0.776,-0.8069,-0.8204,-0.834,-0.8568,-0.8568,-0.8616,-0.9091,-0.9432,-1.0154,-1.1176,-1.1943,-1.2163,-1.2802,-1.3148,-1.3281,-1.3548,-1.3857,-1.3977,-1.411,-1.4243,-1.4328,-1.4615,-1.4977,-1.5328,-1.576,-1.5928,-1.6549,-1.5889,-1.5467,-1.5316,-1.5044,-1.4526,-1.4219,-1.424,-1.4373,-1.5373,-1.6044,-1.6445,-1.7235,-1.8063,-1.8151,-1.8121,-1.7943,-1.7562,-1.6938,-1.6628,-1.6831,-1.6945,-1.6853,-1.7101,-1.7435,-1.7611,-1.7733,-1.7881,-1.7936,-1.7936,0.9072,0.9145,0.9453,0.9884,1.0278,1.0342,1.0423,1.0603,1.0643,1.0631,1.0498,1.0026,1.0065,1.0033,0.9816,0.9596,0.932,0.8989,0.8933,0.8937,0.8881,0.8263,0.7762,0.7485,0.6903,0.633,0.5824,0.542,0.4907,0.4304,0.37,0.3555,0.2877,0.2085,0.178,0.1554,0.1498,0.1208,0.0883,0.0518,0.0362,0.0,0.0,0.0,0.0,0.0,0.0,-0.0845,-0.1511,-0.2188,-0.2961,-0.3893,-0.4431,-0.4734,-0.509,-0.5622,-0.5802,-0.6381,-0.7136,-0.7577,-0.7841,-0.8113,-0.8388,-0.8524,-0.8524,-0.8696,-0.9038,-0.9641,-1.0707,-1.1176,-1.1434,-1.1858,-1.2163,-1.2467,-1.2826,-1.3222,-1.3264,-1.3349,-1.3434,-1.3434,-1.3682,-1.4055,-1.4426,-1.4873,-1.5394,-1.6071,-1.6239,-1.5997,-1.5657,-1.5271,-1.4838,-1.4689,-1.4687,-1.4887,-1.5044,-1.5399,-1.5903,-1.6075,-1.682,-1.7116,-1.7272,-1.7059,-1.6859,-1.6707,-1.6531,-1.6396,-1.6355,-1.6284,-1.662,-1.6983,-1.7062,-1.7168,-1.7307,-1.739,-1.7595,0.8962,0.9116,0.9324,0.9632,0.9985,1.0144,1.0286,1.0282,1.0412,1.0408,1.0375,1.0325,1.0329,1.03,1.0198,1.0033,0.9706,0.9596,0.9596,0.9596,0.9489,0.9372,0.913,0.8656,0.8339,0.7762,0.7122,0.6565,0.6187,0.5448,0.4884,0.4629,0.4511,0.4063,0.3942,0.3437,0.2564,0.2269,0.1584,0.1119,0.0762,0.0,0.0,0.0,0.0,0.0,0.0,0.0,-0.0447,-0.1019,-0.1922,-0.2914,-0.3459,-0.3798,-0.4198,-0.4465,-0.4643,-0.5223,-0.5888,-0.6464,-0.6773,-0.7309,-0.7628,-0.812,-0.8164,-0.8252,-0.8512,-0.8692,-0.9375,-0.9423,-0.9724,-1.0491,-1.0918,-1.1273,-1.1628,-1.2235,-1.2577,-1.2881,-1.3137,-1.3137,-1.3222,-1.3555,-1.3922,-1.4294,-1.4622,-1.5113,-1.5238,-1.5111,-1.5537,-1.5339,-1.4963,-1.495,-1.4917,-1.5014,-1.4998,-1.5325,-1.5701,-1.5626,-1.5703,-1.6245,-1.6424,-1.6112,-1.5967,-1.6169,-1.5886,-1.5616,-1.5609,-1.589,-1.6062,-1.6368,-1.6418,-1.6528,-1.6669,-1.681,-1.6989]}]]